[[[{"header":{"parameterUnit":"kt","parameterCategory":2,"dx":1,"dy":1,"la1":29.587661999999998,"la2":31.0,"lo1":-88.76705300000003,"lo2":-86.6583820000003,"nx":115,"ny":88,"refTime":"2022-09-21T06:00:00:Z","depth":0,"parameterNumber":1,"parameterNumberName":"U-component_of_WINDS"},"data":[-3.8366,-3.7476,-3.6777,-3.6582,-3.6403,-3.6239,-3.5924,-3.5202,-3.3104,-3.0538,-2.7873,-2.548,-2.3438,-2.1759,-2.1759,-2.1759,-2.1759,-2.1759,-2.1378,-2.1187,-2.1187,-2.0805,-2.0423,-2.0049,-1.9475,-1.8908,-1.8715,-1.8715,-1.8715,-1.8523,-1.7547,-1.5598,-1.3454,-1.1326,-0.9393,-0.7448,-0.5887,-0.5691,-0.5493,-0.5493,-0.5297,-0.5342,-0.5537,-0.578,-0.6039,-0.566,-0.5083,-0.3906,-0.3925,-0.3935,-0.3924,-0.3711,-0.3705,-0.3497,-0.3307,-0.2905,-0.2916,-0.314,-0.316,-0.3166,-0.317,-0.3377,-0.3168,-0.2319,-0.2326,-0.2129,-0.2559,-0.3212,-0.3224,-0.2822,-0.261,-0.2833,-0.0,-0.0,-0.0,-0.0,-0.0,-0.0,-0.0,-0.0,0.8712,1.0236,1.2644,1.2856,1.3506,1.3289,1.3058,1.3058,1.2836,1.2625,1.2413,1.2625,1.2615,1.2836,1.2846,1.3284,1.3816,1.3805,1.4055,1.4203,1.4361,1.4541,1.4636,1.4678,1.4747,1.4586,1.47,1.5022,1.5075,1.5096,1.5238,1.5297,1.5281,1.5275,1.5249,-3.8753,-3.7881,-3.6971,-3.6598,-3.6598,-3.6434,-3.6269,-3.5744,-3.4796,-3.2191,-2.8107,-2.4571,-2.27,-2.1949,-2.1759,-2.1759,-2.1759,-2.1759,-2.1759,-2.1568,-2.1568,-2.1378,-2.0996,-2.0623,-2.0049,-1.9475,-1.8908,-1.8715,-1.8708,-1.8516,-1.7547,-1.5592,-1.346,-1.1331,-0.9393,-0.7448,-0.6083,-0.6083,-0.6106,-0.6094,-0.6173,-0.6265,-0.6324,-0.6366,-0.6396,-0.6195,-0.5783,-0.5176,-0.4971,-0.4776,-0.4583,-0.4588,-0.438,-0.3968,-0.3777,-0.338,-0.3604,-0.3414,-0.3438,-0.3444,-0.345,-0.3457,-0.3467,-0.3251,-0.3248,-0.3255,-0.3255,-0.3475,-0.3475,-0.3268,-0.2833,-0.2616,-0.1962,-0.0,-0.0,-0.0,-0.0,-0.0,-0.0,-0.0,1.1781,1.1772,1.2422,1.2196,1.2413,1.2413,1.2413,1.2413,1.2196,1.198,1.1794,1.2025,1.2098,1.2294,1.246,1.2764,1.336,1.3576,1.3617,1.4222,1.4594,1.4258,1.4351,1.4659,1.4731,1.4794,1.4898,1.4955,1.5233,1.5244,1.5297,1.5297,1.5302,1.5302,1.5302,-3.893,-3.8075,-3.6971,-3.6598,-3.6598,-3.6598,-3.6254,-3.5548,-3.33,-3.0512,-2.7385,-2.5324,-2.3458,-2.2329,-2.1949,-2.1759,-2.1759,-2.1759,-2.1759,-2.1759,-2.1759,-2.1568,-2.1378,-2.1005,-2.0623,-2.0241,-1.9475,-1.89,-1.8708,-1.8516,-1.7547,-1.5598,-1.3454,-1.1326,-0.9397,-0.7451,-0.6279,-0.6287,-0.6356,-0.642,-0.651,-0.6557,-0.6621,-0.6663,-0.6682,-0.6724,-0.6317,-0.6367,-0.5952,-0.5538,-0.5317,-0.5529,-0.489,-0.4463,-0.3849,-0.3653,-0.3449,-0.3462,-0.3477,-0.3482,-0.3481,-0.3478,-0.3485,-0.3483,-0.3489,-0.3053,-0.3053,-0.3052,-0.3052,-0.1743,-0.1307,-0.1743,-0.1307,-0.0654,-0.0654,-0.1089,0.0218,0.3266,0.8278,1.1781,1.1776,1.1767,1.1542,1.1316,1.1316,1.1316,1.0011,0.9794,1.0887,1.1325,1.118,1.1247,1.1857,1.1883,1.2031,1.232,1.2879,1.3133,1.3157,1.3524,1.3885,1.3975,1.4064,1.3923,1.4001,1.4272,1.4513,1.4544,1.4822,1.5064,1.5302,1.5302,1.5302,1.5302,1.5302,-3.893,-3.8075,-3.7166,-3.6777,-3.6418,-3.6044,-3.5684,-3.4977,-3.1064,-2.8676,-2.7023,-2.5523,-2.4015,-2.2519,-2.1949,-2.1759,-2.1759,-2.1759,-2.1759,-2.1759,-2.1759,-2.1759,-2.1568,-2.1378,-2.1196,-2.0814,-2.0241,-1.9667,-1.9091,-1.8516,-1.7547,-1.4819,-1.3454,-1.0743,-0.8425,-0.7323,-0.6345,-0.6359,-0.6465,-0.6594,-0.6658,-0.6679,-0.6714,-0.6748,-0.6774,-0.6833,-0.6862,-0.6917,-0.673,-0.6318,-0.6318,-0.5883,-0.5452,-0.4794,-0.436,-0.3925,-0.3701,-0.37,-0.3489,-0.3489,-0.3489,-0.3489,-0.3489,-0.3489,-0.3271,-0.2834,-0.2616,-0.2398,-0.1525,-0.0218,0.0654,-0.0218,-0.0654,0.0218,0.0654,0.0218,-0.0218,0.4352,0.9368,1.0457,1.067,1.0666,1.0445,1.0224,1.0224,0.9577,0.8712,0.8722,1.0259,1.1032,1.1118,1.1218,1.1605,1.166,1.1639,1.2111,1.2388,1.2652,1.2964,1.3057,1.3154,1.3449,1.3746,1.3376,1.3418,1.3866,1.4099,1.4118,1.4356,1.4832,1.5069,1.5064,1.5064,1.5064,1.5064,-3.8947,-3.8075,-3.8075,-3.7345,-3.6418,-3.4737,-3.3984,-3.3258,-2.9615,-2.7595,-2.6649,-2.4602,-2.3278,-2.2719,-2.2139,-2.1949,-2.1759,-2.1759,-2.1759,-2.1759,-2.1759,-2.1759,-2.1759,-2.1759,-2.1378,-2.1196,-2.0623,-2.0241,-1.9475,-1.8715,-1.6969,-1.2879,-1.2507,-1.1007,-0.8116,-0.6803,-0.6459,-0.6499,-0.6637,-0.6753,-0.6804,-0.6872,-0.6947,-0.6933,-0.6936,-0.6947,-0.6955,-0.6963,-0.6973,-0.6973,-0.6756,-0.6535,-0.6103,-0.5449,-0.5016,-0.4798,-0.4362,-0.4142,-0.3707,-0.3489,-0.3489,-0.3489,-0.3489,-0.3489,-0.2834,-0.1962,-0.0,-0.0,-0.0,0.196,0.2613,0.2177,0.2177,0.2612,0.2829,0.2394,0.2393,0.4568,0.8492,0.9585,0.9798,0.9581,0.9364,0.8765,0.8769,1.0057,0.9843,0.9865,1.06,1.0778,1.087,1.0949,1.1274,1.133,1.1573,1.1627,1.2128,1.2426,1.2767,1.2838,1.258,1.2865,1.3418,1.3175,1.2936,1.3175,1.3413,1.3409,1.3642,1.4118,1.4594,1.4832,1.4832,1.4594,1.4589,-3.893,-3.8075,-3.8075,-3.7524,-3.6223,-3.4542,-3.2894,-3.1248,-2.777,-2.5931,-2.5555,-2.4424,-2.3468,-2.2909,-2.2529,-2.1958,-2.1759,-2.1759,-2.1759,-2.1759,-2.1759,-2.1759,-2.1759,-2.1759,-2.1568,-2.1378,-2.1196,-2.0823,-2.0423,-1.9483,-1.7896,-1.4653,-1.2894,-1.0998,-0.8886,-0.7142,-0.68,-0.6695,-0.679,-0.6878,-0.6915,-0.6941,-0.6968,-0.6963,-0.6965,-0.6968,-0.697,-0.697,-0.6973,-0.6973,-0.6973,-0.6756,-0.6756,-0.632,-0.6105,-0.5449,-0.4796,-0.4362,-0.3925,-0.3707,-0.3489,-0.3489,-0.3489,-0.3489,-0.2616,-0.1307,-0.0,-0.0,-0.0,0.3917,0.4352,0.457,0.5004,0.5437,0.5222,0.4787,0.5222,0.5656,0.6963,0.8492,0.8709,0.8709,0.8306,0.7704,0.773,0.9499,1.0171,1.0217,1.0357,1.0753,1.1084,1.1136,1.1187,1.1231,1.1314,1.161,1.1846,1.1875,1.2434,1.2434,1.2208,1.2221,1.2459,1.2459,1.2455,1.2455,1.2689,1.2928,1.2932,1.3409,1.3885,1.3885,1.3885,1.3885,1.4118,-3.8753,-3.8075,-3.7881,-3.7329,-3.6403,-3.5113,-3.309,-3.0341,-2.666,-2.4801,-2.4801,-2.4434,-2.3667,-2.3288,-2.2719,-2.2339,-2.1949,-2.1759,-2.1759,-2.1759,-2.1759,-2.1759,-2.1759,-2.1759,-2.1759,-2.1568,-2.1405,-2.1259,-2.0963,-2.0613,-1.8851,-1.6511,-1.3938,-1.2008,-0.9886,-0.7941,-0.7189,-0.6846,-0.6907,-0.6947,-0.6965,-0.6968,-0.697,-0.6973,-0.6973,-0.6973,-0.6973,-0.6973,-0.6973,-0.6973,-0.6973,-0.6973,-0.6973,-0.6973,-0.6973,-0.61,-0.5449,-0.4798,-0.458,-0.3925,-0.3489,-0.3707,-0.3707,-0.3707,-0.2834,-0.109,-0.0,-0.0,-0.0,0.5004,0.5656,0.5656,0.5872,0.6526,0.7182,0.7182,0.762,0.8054,0.8272,0.9364,0.8489,0.8272,0.8278,0.7681,0.8189,0.9373,1.0122,1.0211,1.0563,1.0959,1.1294,1.1318,1.1358,1.1378,1.1457,1.1469,1.1489,1.1505,1.1501,1.1739,1.1743,1.1743,1.1505,1.1505,1.1739,1.1978,1.2212,1.2212,1.2455,1.2694,1.317,1.3175,1.3175,1.317,1.317,-3.8576,-3.8075,-3.7492,-3.7119,-3.6582,-3.6418,-3.4208,-3.0525,-2.666,-2.5001,-2.4801,-2.4424,-2.3856,-2.3278,-2.2719,-2.2339,-2.1949,-2.1759,-2.1759,-2.1759,-2.1759,-2.1759,-2.1759,-2.1768,-2.1823,-2.1795,-2.185,-2.1675,-2.1563,-2.1189,-1.995,-1.7562,-1.4986,-1.283,-1.0895,-0.8931,-0.7556,-0.7141,-0.7182,-0.6968,-0.6973,-0.6973,-0.6973,-0.6973,-0.6973,-0.6973,-0.6973,-0.6973,-0.6973,-0.6973,-0.6973,-0.6973,-0.6973,-0.6973,-0.6973,-0.6756,-0.6318,-0.5667,-0.5234,-0.4144,-0.3925,-0.436,-0.4362,-0.4144,-0.3052,-0.0653,0.1089,0.2613,0.3919,0.5439,0.696,0.6743,0.6526,0.7397,0.8272,0.9147,0.9802,0.9585,0.9585,0.9368,0.8492,0.8275,0.8278,0.8319,0.8614,0.9788,1.0312,1.0449,1.0885,1.1298,1.135,1.1386,1.1461,1.1501,1.1501,1.1493,1.1505,1.1505,1.1505,1.1505,1.1505,1.1505,1.1505,1.1505,1.1505,1.1501,1.1739,1.1739,1.1982,1.1978,1.2455,1.2455,1.2455,1.2455,1.2455,-3.8398,-3.8075,-3.7492,-3.6956,-3.6598,-3.6598,-3.4888,-3.1731,-2.8305,-2.5931,-2.5001,-2.4623,-2.4235,-2.3856,-2.3288,-2.2719,-2.2329,-2.1949,-2.1759,-2.1759,-2.1768,-2.1795,-2.1786,-2.1768,-2.197,-2.2135,-2.2218,-2.2374,-2.2361,-2.218,-2.1266,-1.9586,-1.664,-1.4716,-1.2568,-0.9897,-0.7631,-0.7411,-0.7191,-0.6973,-0.6973,-0.6973,-0.6973,-0.6973,-0.6973,-0.6973,-0.6973,-0.6973,-0.6973,-0.6973,-0.6973,-0.6973,-0.6973,-0.6973,-0.6973,-0.6973,-0.6756,-0.6318,-0.5667,-0.4796,-0.4796,-0.5232,-0.5016,-0.4798,-0.3705,-0.1088,0.0435,0.1959,0.3265,0.4135,0.5004,0.6743,0.6743,0.7397,0.8489,0.9802,1.0023,0.8492,0.8272,0.9147,0.893,0.9147,0.9154,0.9209,0.9248,0.9969,1.0715,1.0945,1.1167,1.1247,1.1306,1.1405,1.1493,1.1505,1.1505,1.1505,1.1505,1.1505,1.1505,1.1505,1.1505,1.1505,1.1505,1.1505,1.1505,1.1505,1.1505,1.1505,1.1505,1.1739,1.1978,1.1978,1.1739,1.1739,1.1739,-3.8237,-3.7865,-3.7313,-3.6777,-3.6598,-3.6598,-3.4722,-3.1913,-2.9775,-2.7221,-2.5367,-2.4801,-2.4613,-2.4046,-2.3478,-2.2909,-2.2519,-2.1949,-2.1759,-2.1786,-2.1951,-2.1951,-2.2053,-2.2172,-2.2346,-2.2521,-2.2613,-2.2787,-2.3182,-2.2988,-2.2609,-2.2155,-1.9715,-1.7353,-1.5126,-1.1303,-0.8067,-0.7846,-0.7411,-0.7191,-0.6973,-0.6973,-0.6973,-0.6973,-0.6973,-0.6973,-0.6973,-0.6973,-0.6973,-0.6973,-0.6973,-0.6973,-0.6973,-0.6973,-0.6973,-0.6973,-0.6973,-0.6756,-0.632,-0.5885,-0.5887,-0.5885,-0.5885,-0.5232,-0.4576,-0.2612,-0.1088,0.0218,0.1958,0.3265,0.3702,0.5445,0.6756,0.7411,0.8722,1.0038,1.0244,0.8709,0.8054,0.9147,0.9585,0.9806,0.9806,0.9843,0.9865,1.0576,1.0763,1.0985,1.1124,1.1195,1.1326,1.1445,1.1505,1.1505,1.1505,1.1505,1.1505,1.1505,1.1505,1.1505,1.1505,1.1505,1.1505,1.1505,1.1505,1.1505,1.1505,1.1505,1.1505,1.1505,1.1501,1.1501,1.1517,1.1521,1.1536,-3.7865,-3.7298,-3.6761,-3.6598,-3.6598,-3.6418,-3.4585,-3.1838,-3.0538,-2.8142,-2.5179,-2.4875,-2.4685,-2.4137,-2.3696,-2.3342,-2.2757,-2.2317,-2.1924,-2.2034,-2.2273,-2.2383,-2.2493,-2.265,-2.2806,-2.2953,-2.3026,-2.3201,-2.3605,-2.3398,-2.3363,-2.2931,-2.1894,-2.0272,-1.6871,-1.2164,-0.9147,-0.8064,-0.7849,-0.7629,-0.7193,-0.7191,-0.6973,-0.6973,-0.6973,-0.6973,-0.6973,-0.6973,-0.6973,-0.6973,-0.6973,-0.6973,-0.6973,-0.6973,-0.6973,-0.6973,-0.6973,-0.6973,-0.6973,-0.6973,-0.6756,-0.6756,-0.632,-0.5665,-0.5008,-0.3265,-0.1088,-0.0,0.131,0.262,0.3709,0.5022,0.6121,0.7218,0.9192,1.0505,1.0477,0.9802,0.9585,1.0023,1.0244,1.0465,1.0465,1.0477,1.0497,1.0624,1.0818,1.0949,1.106,1.1191,1.1374,1.1469,1.1505,1.1505,1.1505,1.1505,1.1505,1.1505,1.1505,1.1505,1.1505,1.1505,1.1505,1.1505,1.1505,1.1505,1.1505,1.1513,1.1505,1.1505,1.1505,1.1564,1.1544,1.1564,1.1624,-3.7492,-3.7298,-3.6777,-3.6598,-3.6403,-3.5113,-3.4448,-3.4031,-3.0616,-2.7221,-2.5022,-2.5147,-2.508,-2.4991,-2.4386,-2.3956,-2.3721,-2.2943,-2.2774,-2.2631,-2.2686,-2.2778,-2.2833,-2.2962,-2.3201,-2.3375,-2.3439,-2.3586,-2.3954,-2.4,-2.3862,-2.3283,-2.2249,-2.031,-1.6663,-1.238,-0.9368,-0.893,-0.8712,-0.8275,-0.7629,-0.7411,-0.7411,-0.6973,-0.6973,-0.6973,-0.6973,-0.6973,-0.6973,-0.6973,-0.6973,-0.6973,-0.6973,-0.6973,-0.6973,-0.6973,-0.6973,-0.6973,-0.6973,-0.6973,-0.6973,-0.6973,-0.6756,-0.5663,-0.4136,-0.2829,-0.0874,0.0437,0.1543,0.2215,0.2439,0.4907,0.6707,0.7283,0.9272,1.054,1.0509,1.0461,1.0461,1.0497,1.0481,1.0489,1.0505,1.0544,1.062,1.079,1.0917,1.0981,1.1088,1.1251,1.1421,1.1473,1.1501,1.1505,1.1505,1.1505,1.1505,1.1505,1.1505,1.1505,1.1505,1.1505,1.1505,1.1505,1.1505,1.1505,1.1528,1.1572,1.1556,1.1532,1.1632,1.1747,1.1735,1.1755,1.1786,-3.7135,-3.694,-3.6582,-3.6963,-3.7242,-3.5878,-3.4017,-3.1838,-3.0228,-2.8096,-2.5115,-2.5524,-2.5754,-2.562,-2.5095,-2.4785,-2.4385,-2.3573,-2.3153,-2.3008,-2.3145,-2.321,-2.3292,-2.3393,-2.354,-2.3761,-2.3834,-2.399,-2.4165,-2.4137,-2.4174,-2.3751,-2.3106,-2.031,-1.7741,-1.4527,-1.1515,-1.0441,-0.9147,-0.8709,-0.8281,-0.7846,-0.7629,-0.7193,-0.7191,-0.6973,-0.6973,-0.6973,-0.6973,-0.6973,-0.6973,-0.6973,-0.6973,-0.6973,-0.6973,-0.6973,-0.6973,-0.6973,-0.6973,-0.6973,-0.6973,-0.6973,-0.6761,-0.5898,-0.3522,-0.2639,-0.1102,0.0888,0.2466,0.3379,0.3605,0.5675,0.7288,0.8081,0.8888,0.9932,1.0318,1.0481,1.0477,1.0592,1.0584,1.058,1.0608,1.0647,1.081,1.0945,1.0973,1.1024,1.1171,1.1326,1.1421,1.1489,1.1501,1.1505,1.1505,1.1505,1.1505,1.1505,1.1505,1.1505,1.1505,1.1505,1.1513,1.1505,1.1505,1.1521,1.156,1.1624,1.1699,1.1763,1.1842,1.1905,1.1941,1.1973,1.1957,-3.6971,-3.6675,-3.6752,-3.7382,-3.8589,-3.7756,-3.2784,-2.7688,-3.0283,-2.8931,-2.5802,-2.5953,-2.6162,-2.6077,-2.5758,-2.5215,-2.4521,-2.408,-2.3771,-2.3283,-2.3421,-2.3605,-2.3706,-2.388,-2.4092,-2.4128,-2.4092,-2.411,-2.4174,-2.4174,-2.4174,-2.3963,-2.3106,-2.0736,-1.8168,-1.5817,-1.3239,-1.0445,-0.9585,-0.9364,-0.8712,-0.8278,-0.7846,-0.7629,-0.7411,-0.6973,-0.6973,-0.6973,-0.6973,-0.6973,-0.6973,-0.6973,-0.6973,-0.6973,-0.6973,-0.6973,-0.6973,-0.6992,-0.701,-0.7015,-0.7,-0.7002,-0.6807,-0.5751,-0.2677,-0.2459,-0.09,0.2044,0.4106,0.5038,0.596,0.7104,0.8028,0.8649,0.9057,0.9883,1.0247,1.0391,1.0391,1.0695,1.0747,1.0778,1.081,1.0949,1.1108,1.1147,1.1175,1.1199,1.1326,1.1378,1.1461,1.1489,1.1501,1.1505,1.1505,1.1505,1.1505,1.1505,1.1505,1.1505,1.1505,1.1517,1.1528,1.154,1.1592,1.1572,1.1576,1.1675,1.179,1.1933,1.2021,1.2021,1.2048,1.2155,1.2167,-3.7103,-3.7431,-3.791,-3.8406,-3.8404,-3.5109,-3.2405,-3.0308,-2.9005,-2.731,-2.6276,-2.6183,-2.6434,-2.6482,-2.6403,-2.6091,-2.5519,-2.4933,-2.4307,-2.4108,-2.399,-2.4009,-2.4027,-2.4064,-2.4174,-2.4174,-2.4174,-2.4174,-2.4174,-2.4174,-2.4174,-2.3963,-2.2673,-2.0097,-1.7526,-1.5602,-1.3681,-1.0457,-1.0244,-0.9806,-0.9368,-0.9147,-0.8498,-0.8064,-0.7629,-0.7411,-0.6973,-0.6973,-0.6973,-0.6973,-0.6973,-0.6973,-0.6973,-0.6973,-0.6973,-0.6976,-0.7008,-0.7034,-0.7087,-0.7113,-0.7158,-0.7204,-0.7017,-0.5636,-0.2269,-0.0682,0.0913,0.5049,0.6247,0.6518,0.7238,0.7767,0.8406,0.8809,0.9215,0.9612,0.9996,1.0155,1.0369,1.0652,1.0695,1.0961,1.108,1.1235,1.131,1.1342,1.1374,1.1397,1.1433,1.1461,1.1497,1.1497,1.1505,1.1505,1.1505,1.1505,1.1505,1.1505,1.1505,1.1505,1.1505,1.1513,1.1532,1.1624,1.1707,1.1739,1.1814,1.1818,1.1838,1.1949,1.2044,1.2088,1.2187,1.235,1.2413,-3.7879,-3.8512,-3.8574,-3.8996,-3.9084,-3.5731,-3.2527,-3.0192,-2.8695,-2.7666,-2.674,-2.6696,-2.6926,-2.7166,-2.701,-2.6734,-2.5892,-2.5642,-2.5029,-2.4156,-2.4156,-2.4165,-2.4174,-2.4174,-2.4174,-2.4174,-2.4174,-2.4174,-2.4174,-2.4174,-2.4174,-2.3751,-2.1816,-1.9671,-1.7306,-1.4968,-1.261,-1.1108,-1.0461,-1.0244,-1.0023,-0.9585,-0.9147,-0.8278,-0.7849,-0.7411,-0.7191,-0.6973,-0.6973,-0.6973,-0.6973,-0.6973,-0.6973,-0.6976,-0.6976,-0.6984,-0.7058,-0.7151,-0.7214,-0.7225,-0.7256,-0.7309,-0.7092,-0.6187,-0.3665,-0.138,0.2083,0.7,0.7542,0.7574,0.7598,0.7879,0.8067,0.8466,0.8602,0.9225,0.9612,0.9826,1.0083,1.0586,1.0866,1.0947,1.1278,1.1374,1.1413,1.1429,1.1441,1.1461,1.1481,1.1505,1.1505,1.1505,1.1505,1.1505,1.1505,1.1505,1.1505,1.1505,1.1505,1.1505,1.1505,1.1509,1.1528,1.1596,1.1715,1.1886,1.2076,1.206,1.1985,1.2017,1.206,1.214,1.2227,1.2398,1.2513,-3.9161,-3.9593,-3.8877,-3.9269,-3.9871,-3.6791,-3.2025,-2.7409,-2.9262,-2.9133,-2.6978,-2.7355,-2.7512,-2.7554,-2.7585,-2.6945,-2.6093,-2.5681,-2.525,-2.4174,-2.4174,-2.4174,-2.4174,-2.4174,-2.4174,-2.4174,-2.4174,-2.4174,-2.4174,-2.4174,-2.3963,-2.3318,-2.1391,-1.9457,-1.6669,-1.4753,-1.261,-1.0891,-1.0461,-1.0461,-1.0461,-1.0023,-0.9368,-0.893,-0.8281,-0.7626,-0.7193,-0.6973,-0.6973,-0.6973,-0.6973,-0.6981,-0.6994,-0.6997,-0.7002,-0.7074,-0.7185,-0.7331,-0.7344,-0.7347,-0.7365,-0.7407,-0.7399,-0.7146,-0.5097,-0.2103,0.2124,0.6954,0.767,0.7662,0.7659,0.7675,0.7862,0.8036,0.8228,0.8627,0.9027,0.9301,0.9769,1.0272,1.0327,1.065,1.1169,1.1219,1.1262,1.1505,1.1501,1.1501,1.1505,1.1505,1.1505,1.1505,1.1505,1.1505,1.1505,1.1505,1.1505,1.1505,1.1505,1.1505,1.1505,1.1505,1.1524,1.1612,1.1691,1.1846,1.1977,1.2064,1.2128,1.2144,1.2163,1.2219,1.2282,1.2398,1.2532,-4.001,-3.9476,-3.8253,-3.8836,-3.9535,-3.4428,-3.0228,-2.7841,-2.8011,-2.792,-2.7459,-2.7543,-2.7596,-2.7596,-2.7375,-2.6945,-2.5892,-2.5892,-2.525,-2.4386,-2.4174,-2.4174,-2.4174,-2.4174,-2.4174,-2.4174,-2.4174,-2.4174,-2.4174,-2.4174,-2.3098,-2.1816,-2.117,-1.8817,-1.5393,-1.3896,-1.2615,-1.1108,-1.0461,-1.0461,-1.0461,-1.0244,-1.0023,-0.9368,-0.893,-0.8284,-0.7646,-0.7218,-0.7221,-0.7,-0.6997,-0.7021,-0.71,-0.7143,-0.7188,-0.7249,-0.7294,-0.7378,-0.7434,-0.7468,-0.75,-0.7561,-0.7595,-0.641,-0.4514,-0.166,0.2148,0.6229,0.7678,0.7678,0.7678,0.7678,0.7662,0.7868,0.7862,0.7854,0.8516,0.8969,0.9444,0.9703,0.9767,1.0033,1.0505,1.0781,1.1019,1.1023,1.1501,1.1505,1.1505,1.1505,1.1505,1.1505,1.1505,1.1505,1.1505,1.1505,1.1505,1.1505,1.1505,1.1505,1.1505,1.1505,1.1628,1.1723,1.179,1.1846,1.185,1.1921,1.208,1.2199,1.2251,1.2302,1.2362,1.2457,1.2532,-4.0458,-3.9968,-3.8051,-3.739,-3.6784,-3.2664,-2.9681,-2.7696,-2.7689,-2.7596,-2.7596,-2.7596,-2.7596,-2.7596,-2.7596,-2.6955,-2.6103,-2.5892,-2.524,-2.4386,-2.4174,-2.4174,-2.4174,-2.4174,-2.4174,-2.4174,-2.4174,-2.4174,-2.4174,-2.4174,-2.2886,-2.0957,-1.9457,-1.7319,-1.4328,-1.2832,-1.1542,-1.0895,-1.0461,-1.0461,-1.0461,-1.0461,-1.0244,-0.9614,-0.9209,-0.8815,-0.8174,-0.7543,-0.7583,-0.7132,-0.7108,-0.7148,-0.7243,-0.7347,-0.7455,-0.749,-0.7505,-0.7532,-0.7574,-0.759,-0.7609,-0.7672,-0.7672,-0.6475,-0.4074,-0.1438,0.1676,0.5034,0.6475,0.7678,0.7678,0.7678,0.7678,0.7678,0.7672,0.767,0.8148,0.8382,0.8847,0.9321,0.9337,0.934,0.9822,1.031,1.0542,1.1019,1.1262,1.1262,1.1505,1.1505,1.1505,1.1505,1.1505,1.1505,1.1505,1.1505,1.1505,1.1505,1.1505,1.1505,1.1505,1.1509,1.162,1.1818,1.1901,1.1965,1.1977,1.1997,1.2112,1.2227,1.2294,1.2362,1.2429,1.2485,1.2525,-4.0674,-4.0459,-3.7794,-3.5822,-3.4055,-3.1368,-2.9301,-2.775,-2.7512,-2.7585,-2.7596,-2.7596,-2.7596,-2.7596,-2.7596,-2.6955,-2.6103,-2.5671,-2.5029,-2.4183,-2.4174,-2.4174,-2.4174,-2.4174,-2.4174,-2.4174,-2.4174,-2.4174,-2.4174,-2.3963,-2.2461,-2.0097,-1.8382,-1.5817,-1.3259,-1.1572,-1.0743,-1.0536,-1.0584,-1.06,-1.06,-1.0596,-1.0376,-0.9943,-0.9814,-0.9414,-0.8551,-0.84,-0.8005,-0.7554,-0.7299,-0.7328,-0.7413,-0.7561,-0.7635,-0.7648,-0.7643,-0.7635,-0.7656,-0.7667,-0.7675,-0.7678,-0.7678,-0.6475,-0.3595,-0.0958,0.1677,0.4315,0.6717,0.7678,0.7678,0.7678,0.7678,0.7678,0.7678,0.7678,0.7678,0.7914,0.839,0.8629,0.8632,0.8635,0.9133,0.9626,0.9883,1.0378,1.0818,1.1023,1.1262,1.1262,1.1262,1.1505,1.1509,1.1513,1.1521,1.1528,1.1572,1.1592,1.1596,1.1596,1.1636,1.1584,1.1663,1.1917,1.2052,1.2128,1.2144,1.2136,1.2255,1.2445,1.2437,1.2413,1.2596,1.2775,1.2747,-4.0674,-4.026,-3.6365,-3.4494,-3.3664,-2.9818,-2.7962,-2.7522,-2.7585,-2.7596,-2.7596,-2.7596,-2.7596,-2.7585,-2.7585,-2.7155,-2.6313,-2.5671,-2.4818,-2.4183,-2.4174,-2.4174,-2.4174,-2.4174,-2.4174,-2.4174,-2.4174,-2.4211,-2.4211,-2.376,-2.2129,-1.8417,-1.7339,-1.5259,-1.2034,-1.0588,-1.0671,-1.0687,-1.0778,-1.0846,-1.085,-1.0854,-1.0628,-1.0399,-1.0234,-0.9574,-0.9126,-0.8474,-0.8025,-0.7565,-0.7508,-0.7595,-0.7635,-0.7672,-0.7678,-0.7678,-0.7678,-0.7678,-0.7678,-0.7678,-0.7678,-0.7678,-0.7678,-0.5515,-0.2156,-0.024,0.2156,0.5034,0.6956,0.7678,0.7678,0.7678,0.7678,0.7678,0.7678,0.7678,0.7678,0.7678,0.7914,0.7917,0.7933,0.8216,0.8716,0.9196,0.946,0.9708,1.0353,1.0542,1.0781,1.1019,1.1023,1.1262,1.1305,1.1324,1.1588,1.1608,1.1719,1.1743,1.1739,1.1802,1.1886,1.1917,1.2013,1.2163,1.2294,1.2334,1.2378,1.2378,1.2485,1.2675,1.2727,1.2707,1.2838,1.3029,1.31,-4.0674,-4.026,-3.5959,-3.4316,-3.3497,-2.9643,-2.7596,-2.7596,-2.7596,-2.7596,-2.7596,-2.7596,-2.7596,-2.7585,-2.7165,-2.6945,-2.6524,-2.5461,-2.4827,-2.4183,-2.4174,-2.4174,-2.4174,-2.4174,-2.4174,-2.4174,-2.4193,-2.433,-2.4468,-2.4103,-2.1989,-1.8207,-1.78,-1.5112,-1.142,-1.0806,-1.0846,-1.087,-1.0933,-1.0745,-1.0745,-1.0745,-1.0745,-1.0749,-1.0375,-0.9961,-0.9275,-0.863,-0.8205,-0.7772,-0.7614,-0.7675,-0.7678,-0.7678,-0.7678,-0.7678,-0.7678,-0.7678,-0.7678,-0.7678,-0.7678,-0.7678,-0.7678,-0.5275,-0.3115,-0.0719,0.1917,0.4794,0.6717,0.7678,0.7678,0.7678,0.7678,0.7678,0.7678,0.7678,0.7678,0.7678,0.7678,0.7688,0.7731,0.7791,0.8303,0.8532,0.9034,0.9046,0.9702,1.0078,1.0078,1.0303,1.0545,1.0825,1.1111,1.1152,1.1421,1.1743,1.1608,1.1894,1.1913,1.2017,1.2155,1.2263,1.237,1.2592,1.2798,1.2779,1.2675,1.2656,1.2715,1.2854,1.2949,1.2993,1.3052,1.3128,1.3227,-4.026,-3.9445,-3.5552,-3.3472,-3.2204,-2.9204,-2.7596,-2.7596,-2.7596,-2.7596,-2.7596,-2.7375,-2.7375,-2.7375,-2.6734,-2.6313,-2.6103,-2.5461,-2.4827,-2.4183,-2.4174,-2.4211,-2.4339,-2.4477,-2.4468,-2.4496,-2.4459,-2.4624,-2.4627,-2.4072,-2.2212,-1.8599,-1.7213,-1.5257,-1.1412,-1.0981,-1.1028,-1.1036,-1.108,-1.1112,-1.1124,-1.112,-1.112,-1.0897,-1.0757,-1.0114,-0.9444,-0.8814,-0.8148,-0.7675,-0.7678,-0.7678,-0.7678,-0.7678,-0.7678,-0.7678,-0.7678,-0.7678,-0.7678,-0.7678,-0.7678,-0.7678,-0.7438,-0.6475,-0.4074,-0.1438,0.1198,0.3595,0.5996,0.7438,0.7678,0.7678,0.7678,0.7678,0.7678,0.7678,0.7678,0.7678,0.7696,0.7725,0.7791,0.7866,0.7916,0.8413,0.8373,0.8605,0.9025,0.9161,0.9366,0.9593,0.9866,1.0402,1.0695,1.1004,1.1293,1.1631,1.1736,1.2048,1.2128,1.2235,1.2429,1.2572,1.2747,1.2973,1.3195,1.316,1.3033,1.3001,1.2925,1.3017,1.3112,1.3239,1.3318,1.3239,1.3298,-3.8858,-3.6784,-3.4342,-3.1332,-2.8547,-2.7909,-2.7596,-2.7596,-2.7596,-2.7386,-2.7375,-2.6945,-2.6734,-2.6734,-2.6093,-2.5671,-2.525,-2.5038,-2.4606,-2.4183,-2.4202,-2.4413,-2.4725,-2.4992,-2.512,-2.5148,-2.5258,-2.5286,-2.487,-2.3092,-2.0667,-1.8501,-1.5992,-1.3475,-1.1507,-1.1144,-1.1199,-1.1231,-1.1322,-1.1378,-1.1382,-1.1382,-1.1378,-1.1382,-1.1192,-1.0728,-0.9553,-0.8856,-0.8154,-0.7678,-0.7678,-0.7678,-0.7678,-0.7678,-0.7678,-0.7678,-0.7678,-0.7678,-0.7678,-0.7678,-0.7678,-0.7678,-0.7678,-0.6475,-0.4315,-0.1917,0.0719,0.3115,0.5996,0.7196,0.7438,0.7678,0.7678,0.7678,0.7678,0.7678,0.7678,0.7678,0.7717,0.781,0.7831,0.7956,0.8051,0.8077,0.8003,0.8242,0.8401,0.8817,0.8778,0.8997,0.9252,0.9804,1.0363,1.0887,1.1216,1.1552,1.1919,1.2306,1.2433,1.2556,1.2751,1.2933,1.3116,1.3219,1.3294,1.331,1.3286,1.3263,1.3203,1.3239,1.3283,1.3469,1.3624,1.3449,1.3441,-3.731,-3.5756,-3.2265,-2.9267,-2.6658,-2.6643,-2.6975,-2.7427,-2.6965,-2.6524,-2.6524,-2.6313,-2.6093,-2.6093,-2.5671,-2.525,-2.5038,-2.4606,-2.4404,-2.4183,-2.4211,-2.4569,-2.5074,-2.5286,-2.5396,-2.5396,-2.5396,-2.5543,-2.5276,-2.3235,-2.0835,-1.8637,-1.6147,-1.3593,-1.1267,-1.1362,-1.139,-1.1401,-1.1457,-1.1505,-1.1505,-1.1505,-1.1505,-1.1505,-1.1505,-1.0784,-0.9589,-0.8635,-0.7914,-0.7678,-0.7678,-0.7678,-0.7678,-0.7678,-0.7678,-0.7678,-0.7678,-0.7678,-0.7678,-0.7678,-0.7678,-0.768,-0.7678,-0.6956,-0.5756,-0.3834,-0.1198,0.1677,0.3834,0.5994,0.7196,0.7678,0.7678,0.7678,0.7678,0.7704,0.7768,0.7548,0.7852,0.7932,0.8006,0.8099,0.8168,0.8152,0.8125,0.8099,0.8275,0.8228,0.8444,0.841,0.8671,0.9328,0.968,1.0496,1.1082,1.1415,1.1778,1.2455,1.2579,1.2653,1.2828,1.2999,1.3108,1.3429,1.3433,1.3445,1.3461,1.3457,1.3429,1.3433,1.3457,1.354,1.3588,1.3517,1.3616,-3.5894,-3.4564,-3.0823,-2.7742,-2.5467,-2.5813,-2.6343,-2.7016,-2.6123,-2.5892,-2.5882,-2.5671,-2.5671,-2.5662,-2.5038,-2.4902,-2.4997,-2.458,-2.4367,-2.4477,-2.4496,-2.4918,-2.5451,-2.5662,-2.5745,-2.5754,-2.58,-2.5638,-2.4995,-2.2449,-1.9999,-1.8103,-1.5238,-1.3134,-1.1739,-1.1489,-1.1505,-1.1505,-1.1505,-1.1505,-1.1505,-1.1505,-1.1505,-1.1505,-1.1505,-1.0784,-0.9593,-0.8396,-0.7917,-0.7678,-0.7678,-0.7678,-0.7678,-0.7678,-0.7678,-0.7678,-0.7678,-0.7678,-0.7678,-0.7678,-0.7696,-0.7715,-0.7701,-0.7208,-0.6747,-0.4325,-0.1677,0.0719,0.3355,0.5754,0.7196,0.7678,0.7678,0.7678,0.7678,0.772,0.7818,0.79,0.7972,0.8054,0.8138,0.8194,0.825,0.8271,0.8287,0.8242,0.8186,0.8136,0.8154,0.8392,0.8373,0.9042,0.9434,1.0295,1.0914,1.1252,1.1866,1.2545,1.2644,1.2425,1.2277,1.2671,1.3001,1.3604,1.3279,1.3529,1.3564,1.36,1.3664,1.3667,1.3679,1.3679,1.3679,1.3715,1.3814,-3.5024,-3.2665,-3.0083,-2.7059,-2.4597,-2.5499,-2.5779,-2.5941,-2.571,-2.572,-2.5701,-2.5259,-2.5048,-2.5057,-2.4681,-2.4673,-2.4725,-2.478,-2.4946,-2.5249,-2.535,-2.5534,-2.5974,-2.6268,-2.6157,-2.6202,-2.6211,-2.5096,-2.2749,-2.0395,-1.7867,-1.5744,-1.339,-1.1501,-1.1501,-1.1505,-1.1505,-1.1505,-1.1505,-1.1505,-1.1505,-1.1505,-1.1505,-1.1505,-1.1505,-1.0784,-0.9589,-0.8872,-0.8393,-0.7678,-0.7678,-0.7678,-0.7678,-0.7678,-0.7678,-0.7678,-0.7678,-0.7678,-0.7678,-0.7678,-0.7717,-0.7794,-0.7497,-0.6752,-0.486,-0.2654,-0.0,0.2875,0.5275,0.6956,0.7438,0.7678,0.7678,0.7678,0.7693,0.7741,0.7836,0.7958,0.8072,0.8165,0.8194,0.8239,0.8353,0.8448,0.8446,0.8403,0.8369,0.8366,0.8377,0.8366,0.835,0.8695,0.9093,0.9741,1.0466,1.0783,1.1263,1.1662,1.1773,1.1558,1.1366,1.1954,1.2547,1.3108,1.3368,1.3624,1.3628,1.3656,1.3703,1.3806,1.3866,1.3878,1.3906,1.3953,1.4025,-3.3623,-3.2099,-2.8424,-2.5932,-2.5145,-2.5373,-2.5363,-2.4872,-2.5111,-2.5232,-2.5166,-2.4737,-2.4543,-2.4756,-2.4793,-2.4808,-2.5157,-2.5175,-2.5534,-2.6085,-2.6158,-2.6232,-2.6397,-2.6562,-2.59,-2.4491,-2.4257,-2.2836,-2.0473,-1.8115,-1.6218,-1.5038,-1.2685,-1.1505,-1.1505,-1.1505,-1.1505,-1.1505,-1.1505,-1.1505,-1.1505,-1.1505,-1.1505,-1.1505,-1.1505,-1.0784,-0.9589,-0.8635,-0.7917,-0.7678,-0.7678,-0.7678,-0.7678,-0.7678,-0.7678,-0.7678,-0.7678,-0.7678,-0.7678,-0.7678,-0.7725,-0.7799,-0.7741,-0.652,-0.4381,-0.3383,-0.0479,0.2875,0.4794,0.5994,0.7198,0.7678,0.7678,0.7683,0.7736,0.781,0.79,0.7841,0.8247,0.8279,0.8303,0.8366,0.8448,0.8536,0.8549,0.8594,0.8589,0.8599,0.8655,0.8594,0.8753,0.9149,0.913,0.947,0.9928,1.047,1.0664,1.0761,1.0865,1.0626,1.0669,1.1532,1.1826,1.2398,1.3006,1.2995,1.3539,1.3822,1.3854,1.3921,1.4029,1.4052,1.4084,1.4152,1.4199,-3.2881,-3.1934,-2.7351,-2.5396,-2.5627,-2.5396,-2.5155,-2.4657,-2.4891,-2.5001,-2.4727,-2.4472,-2.4274,-2.4509,-2.4782,-2.5,-2.5365,-2.5519,-2.5838,-2.6516,-2.659,-2.659,-2.6599,-2.6608,-2.52,-2.3078,-2.1897,-2.0244,-1.8115,-1.6218,-1.4801,-1.4099,-1.2212,-1.1505,-1.1505,-1.1505,-1.1505,-1.1505,-1.1505,-1.1505,-1.1505,-1.1505,-1.1505,-1.1505,-1.1505,-1.0788,-0.9593,-0.8157,-0.7678,-0.7678,-0.7678,-0.7678,-0.7678,-0.7678,-0.7678,-0.7678,-0.7678,-0.7678,-0.7678,-0.768,-0.7725,-0.7802,-0.7778,-0.6081,-0.3437,-0.2677,-0.0241,0.4345,0.5046,0.5515,0.7196,0.7678,0.7678,0.768,0.7776,0.7863,0.7956,0.7902,0.8313,0.8358,0.8371,0.8424,0.8517,0.8594,0.865,0.8737,0.8761,0.8832,0.8933,0.8888,0.8962,0.9219,0.9171,0.9435,0.9515,0.9811,1.0096,1.0192,1.0203,0.9921,1.0232,1.0825,1.1126,1.1434,1.2067,1.2661,1.3211,1.3803,1.3858,1.392,1.4211,1.4227,1.4263,1.4306,1.4358,-3.2562,-3.1693,-2.713,-2.5414,-2.5692,-2.546,-2.5423,-2.572,-2.5432,-2.5173,-2.4711,-2.4444,-2.4178,-2.382,-2.4274,-2.4719,-2.51,-2.5401,-2.6061,-2.6599,-2.6608,-2.6608,-2.6375,-2.6142,-2.4958,-2.2367,-2.0237,-1.7879,-1.5513,-1.5038,-1.3861,-1.1974,-1.1501,-1.1505,-1.1505,-1.1505,-1.1505,-1.1505,-1.1505,-1.1505,-1.1505,-1.1505,-1.1505,-1.1505,-1.1513,-1.0799,-0.9589,-0.8157,-0.7678,-0.7678,-0.7678,-0.7678,-0.7678,-0.7678,-0.7678,-0.7678,-0.7678,-0.7678,-0.7678,-0.7678,-0.7725,-0.7815,-0.7831,-0.5646,-0.1488,-0.0492,0.1711,0.6112,0.728,0.7451,0.7456,0.7704,0.7712,0.7699,0.7818,0.7924,0.8017,0.813,0.8244,0.8345,0.839,0.8427,0.8541,0.8652,0.8758,0.8859,0.8906,0.8981,0.9132,0.9118,0.9174,0.9343,0.938,0.9362,0.9394,0.9428,0.9492,0.9537,0.9497,0.9782,0.9804,1.0104,1.0409,1.0706,1.134,1.1935,1.2492,1.3412,1.3478,1.3815,1.4103,1.4398,1.4433,1.4477,1.4521,-3.5062,-3.1887,-2.7592,-2.5785,-2.5818,-2.6063,-2.6211,-2.6186,-2.5483,-2.514,-2.4852,-2.4165,-2.3984,-2.3964,-2.4217,-2.4195,-2.4313,-2.5139,-2.5667,-2.59,-2.6375,-2.5667,-2.4257,-2.4015,-2.2601,-2.0237,-1.7637,-1.5275,-1.2919,-1.2685,-1.2212,-1.1505,-1.1505,-1.1505,-1.1505,-1.1505,-1.1505,-1.1505,-1.1505,-1.1505,-1.1505,-1.1505,-1.1505,-1.1505,-1.1517,-1.0556,-0.8869,-0.8157,-0.7678,-0.7678,-0.7678,-0.7678,-0.7678,-0.7678,-0.7678,-0.7678,-0.7678,-0.7678,-0.7678,-0.7678,-0.7725,-0.7829,-0.7541,-0.5372,-0.0748,-0.0,0.271,0.6446,0.7924,0.7871,0.7829,0.786,0.7911,0.7924,0.8011,0.8099,0.8138,0.8244,0.8329,0.8387,0.8448,0.8578,0.8737,0.8803,0.888,0.8994,0.9084,0.9142,0.9237,0.9272,0.937,0.9505,0.9537,0.9563,0.96,0.9606,0.9651,0.9664,0.9637,0.9659,0.9674,0.9968,0.9965,1.0261,1.0559,1.1158,1.177,1.2694,1.3034,1.3683,1.396,1.4208,1.456,1.4628,1.46,-3.4917,-3.1604,-2.7064,-2.5423,-2.58,-2.6447,-2.6415,-2.6148,-2.5578,-2.5074,-2.457,-2.389,-2.3696,-2.3691,-2.3699,-2.3592,-2.3764,-2.4491,-2.5192,-2.5667,-2.52,-2.4257,-2.2609,-2.1897,-2.0002,-1.7873,-1.5986,-1.4099,-1.1739,-1.1505,-1.1505,-1.1505,-1.1505,-1.1505,-1.1505,-1.1505,-1.1505,-1.1505,-1.1505,-1.1505,-1.1505,-1.1505,-1.1262,-1.0784,-1.0553,-0.9832,-0.8626,-0.7914,-0.7678,-0.7678,-0.7678,-0.7678,-0.7678,-0.7678,-0.7678,-0.7678,-0.7678,-0.7678,-0.7678,-0.7678,-0.7712,-0.7776,-0.7752,-0.5854,-0.2221,-0.0246,0.1971,0.573,0.7235,0.7929,0.7879,0.7948,0.8003,0.7995,0.813,0.8255,0.8287,0.8398,0.8496,0.8506,0.8557,0.8679,0.8824,0.8888,0.8936,0.9047,0.9129,0.9208,0.9288,0.9367,0.9465,0.9603,0.9659,0.968,0.9757,0.9759,0.9762,0.9762,0.9759,0.9751,0.9749,0.973,0.9725,1.0012,1.0025,1.0632,1.0617,1.1544,1.2467,1.3112,1.372,1.399,1.4628,1.4628,1.4628,-3.2919,-3.0291,-2.6061,-2.4982,-2.5414,-2.6289,-2.602,-2.5171,-2.5499,-2.4949,-2.3764,-2.374,-2.3321,-2.3102,-2.2852,-2.3102,-2.3321,-2.3312,-2.3781,-2.4491,-2.2852,-2.214,-2.214,-2.0002,-1.7637,-1.5275,-1.4801,-1.3628,-1.1501,-1.1505,-1.1505,-1.1505,-1.1505,-1.1505,-1.1505,-1.1505,-1.1505,-1.1505,-1.1505,-1.1505,-1.1501,-1.1266,-1.0784,-0.9589,-0.8869,-0.8629,-0.839,-0.7917,-0.7678,-0.7678,-0.7678,-0.7678,-0.7678,-0.7678,-0.7678,-0.7678,-0.7678,-0.7678,-0.7678,-0.7678,-0.7683,-0.7693,-0.7765,-0.6607,-0.3678,-0.1469,0.1232,0.425,0.6433,0.7863,0.7871,0.7979,0.7998,0.7934,0.8183,0.8358,0.8382,0.8559,0.8692,0.8697,0.8705,0.8771,0.8869,0.8893,0.8962,0.9036,0.9079,0.9153,0.9333,0.9415,0.9518,0.9666,0.9738,0.9754,0.9751,0.9749,0.9757,0.9762,0.9762,0.9759,0.9759,0.9762,0.9759,0.9759,0.9762,1.0066,1.0066,1.0675,1.1591,1.2508,1.3116,1.4024,1.4324,1.4628,1.4628,-3.2483,-2.9182,-2.7837,-2.6489,-2.5229,-2.5636,-2.5519,-2.5135,-2.5035,-2.4482,-2.3789,-2.3337,-2.3118,-2.2656,-2.1457,-2.0979,-2.0965,-2.0009,-1.9773,-2.0002,-2.0002,-1.9059,-1.7406,-1.6691,-1.5038,-1.2919,-1.2685,-1.2208,-1.1501,-1.1505,-1.1505,-1.1505,-1.1505,-1.1505,-1.1505,-1.1505,-1.1505,-1.1505,-1.1019,-1.0781,-1.0781,-1.0306,-0.9589,-0.8869,-0.8869,-0.8632,-0.7914,-0.7678,-0.7678,-0.7678,-0.7678,-0.7678,-0.7678,-0.7678,-0.7678,-0.7678,-0.7678,-0.7678,-0.7678,-0.7678,-0.7678,-0.768,-0.7704,-0.6542,-0.3907,-0.1469,0.1232,0.3988,0.6425,0.7879,0.7961,0.8077,0.813,0.8125,0.8334,0.8499,0.8506,0.862,0.8713,0.8721,0.8785,0.8856,0.8893,0.8962,0.902,0.9065,0.9137,0.9235,0.929,0.9436,0.9553,0.9627,0.9711,0.9719,0.9664,0.9696,0.9754,0.9762,0.9762,0.9762,0.9762,0.9762,0.9762,0.9762,0.9762,0.9762,0.9762,0.9762,1.0675,1.1591,1.2504,1.372,1.432,1.4628,1.4628,-3.1027,-2.8337,-2.7512,-2.6,-2.4812,-2.5219,-2.5082,-2.4674,-2.4501,-2.4039,-2.3575,-2.2895,-2.2678,-2.2678,-2.0679,-1.9551,-1.9551,-1.8122,-1.7406,-1.7631,-1.7406,-1.6454,-1.5275,-1.4331,-1.2914,-1.1505,-1.1505,-1.1505,-1.1505,-1.1505,-1.1505,-1.1505,-1.1505,-1.1505,-1.1505,-1.1505,-1.1262,-1.1023,-1.0781,-1.0299,-0.9583,-0.9111,-0.8635,-0.8154,-0.8393,-0.8157,-0.7678,-0.7678,-0.7678,-0.7678,-0.7678,-0.7678,-0.7678,-0.7678,-0.7678,-0.7678,-0.7678,-0.7678,-0.7678,-0.7678,-0.7678,-0.7678,-0.7678,-0.698,-0.5337,-0.1941,0.0243,0.1472,0.5124,0.7313,0.6397,0.7273,0.8122,0.816,0.8379,0.8549,0.8552,0.8647,0.8737,0.8785,0.8848,0.8904,0.8959,0.9023,0.9063,0.9079,0.9116,0.9184,0.9243,0.9359,0.9465,0.9518,0.9574,0.9603,0.9616,0.9656,0.9733,0.9794,0.9794,0.9794,0.9807,0.9804,0.9762,0.9762,0.9762,0.9762,0.9762,0.9762,0.9762,1.0374,1.1591,1.2808,1.4017,1.432,1.4545,-2.8765,-2.793,-2.6083,-2.4606,-2.4248,-2.5102,-2.4854,-2.4063,-2.4044,-2.3662,-2.2928,-2.2283,-2.1841,-2.165,-1.9328,-1.8269,-1.8065,-1.6432,-1.5728,-1.6207,-1.4796,-1.4331,-1.4564,-1.268,-1.1505,-1.1505,-1.1505,-1.1505,-1.1505,-1.1505,-1.1505,-1.1505,-1.1505,-1.1505,-1.1505,-1.1505,-1.1023,-1.0538,-1.0299,-0.9822,-0.8626,-0.7914,-0.7678,-0.7678,-0.7678,-0.7683,-0.7699,-0.7686,-0.7683,-0.7693,-0.7686,-0.7678,-0.7678,-0.7678,-0.7678,-0.7678,-0.7678,-0.7678,-0.7678,-0.7678,-0.7678,-0.7678,-0.7678,-0.7441,-0.7203,-0.2637,-0.0719,-0.096,0.3599,0.6484,0.4803,0.6643,0.8001,0.8019,0.8297,0.8525,0.8533,0.8631,0.8745,0.8861,0.8853,0.8909,0.8975,0.9018,0.9041,0.9034,0.9063,0.9116,0.9195,0.9256,0.9309,0.9359,0.9418,0.9468,0.9547,0.9587,0.9717,0.9876,0.9836,0.982,0.986,0.9836,0.9762,0.9762,0.9762,0.9762,0.9762,0.9749,0.9741,1.0025,1.0606,1.1522,1.2753,1.3941,1.4469,-2.815,-2.6284,-2.5451,-2.4616,-2.422,-2.5102,-2.4835,-2.3983,-2.3751,-2.3349,-2.2704,-2.0472,-1.9439,-1.8994,-1.54,-1.3694,-1.3602,-1.1755,-1.1358,-1.1949,-1.1485,-1.1731,-1.2208,-1.1739,-1.1505,-1.1505,-1.1505,-1.1505,-1.1505,-1.1505,-1.1505,-1.1505,-1.1505,-1.1505,-1.1505,-1.1019,-1.0542,-1.0538,-0.9583,-0.8629,-0.7917,-0.7678,-0.7678,-0.7678,-0.7678,-0.7717,-0.7797,-0.7723,-0.7717,-0.7797,-0.7723,-0.7678,-0.7678,-0.7678,-0.7678,-0.7678,-0.7678,-0.7678,-0.7678,-0.7678,-0.7678,-0.7678,-0.7678,-0.7678,-0.6956,-0.1198,0.2636,0.2636,0.5275,0.7198,0.6733,0.7318,0.7881,0.7897,0.812,0.8308,0.8406,0.8514,0.8628,0.8729,0.8753,0.8761,0.88,0.8872,0.893,0.8949,0.9012,0.9068,0.911,0.919,0.92,0.9211,0.9306,0.9423,0.9457,0.9595,0.9762,0.9905,0.9839,0.9833,0.9889,0.9844,0.977,0.9767,0.9764,0.9762,0.9754,0.9701,0.9651,0.9635,1.0137,1.122,1.2168,1.3371,1.4231,-2.6928,-2.5872,-2.525,-2.4606,-2.4193,-2.4654,-2.4542,-2.3897,-2.366,-2.2748,-2.1532,-1.9653,-1.8227,-1.6666,-1.3638,-1.1931,-1.1565,-0.9723,-0.9348,-0.9949,-1.0193,-1.0706,-1.1497,-1.1505,-1.1505,-1.1505,-1.1505,-1.1505,-1.1505,-1.1505,-1.1505,-1.1505,-1.1505,-1.1262,-1.1019,-1.0303,-0.9822,-0.9586,-0.8686,-0.7994,-0.7752,-0.7704,-0.7678,-0.7678,-0.7678,-0.7709,-0.7762,-0.7417,-0.7149,-0.7203,-0.7102,-0.7072,-0.7116,-0.7361,-0.7384,-0.7193,-0.7198,-0.7196,-0.6717,-0.6717,-0.6717,-0.6717,-0.5996,-0.5754,-0.6717,-0.1917,0.0719,-0.024,0.3834,0.5994,0.4796,0.656,0.7844,0.7844,0.8003,0.8138,0.8207,0.8273,0.8374,0.8525,0.8559,0.8599,0.87,0.8769,0.8822,0.8888,0.8936,0.901,0.9063,0.8554,0.7996,0.8245,0.8353,0.8758,0.883,0.9272,0.9741,0.991,0.9836,0.9841,0.9976,0.9865,0.9802,0.9825,0.9791,0.9767,0.9759,0.9709,0.9653,0.9606,1.0053,1.0557,1.1747,1.2647,1.3556,-2.5754,-2.5696,-2.5067,-2.4466,-2.3881,-2.4101,-2.4119,-2.3963,-2.3274,-2.1562,-1.9266,-1.8908,-1.7263,-1.4853,-1.2389,-1.1128,-1.0468,-0.8882,-0.8507,-0.9338,-0.98,-1.0572,-1.1425,-1.1453,-1.1465,-1.1469,-1.1493,-1.1505,-1.1505,-1.1505,-1.1505,-1.1262,-1.1262,-1.1019,-1.0299,-0.9849,-0.9139,-0.8419,-0.8051,-0.7868,-0.7866,-0.7776,-0.7723,-0.7704,-0.7704,-0.7704,-0.7461,-0.6865,-0.6571,-0.658,-0.6471,-0.6446,-0.6534,-0.6992,-0.703,-0.6643,-0.6638,-0.6395,-0.5917,-0.5683,-0.5693,-0.5717,-0.4305,-0.3824,-0.4754,-0.2378,-0.1904,-0.3571,0.1669,0.4061,0.2629,0.5806,0.7813,0.7823,0.7911,0.7977,0.8001,0.8009,0.8091,0.8297,0.8334,0.8432,0.8583,0.866,0.8726,0.8814,0.8595,0.8649,0.8447,0.7633,0.6795,0.6827,0.7469,0.8142,0.8553,0.8949,0.9408,0.9905,0.9839,0.9828,1.0024,0.9892,0.9799,0.9886,0.9817,0.9767,0.9757,0.9751,0.9688,0.9611,0.9473,1.0273,1.147,1.2367,1.2958,-2.4733,-2.4599,-2.3588,-2.3375,-2.3264,-2.3489,-2.388,-2.3944,0.0,0.0,0.0,-1.4582,-1.3309,-1.2658,-0.9869,-0.8634,-0.8523,-0.7852,-0.8147,-0.9189,-0.9189,-0.9887,-1.1072,-1.1215,-1.1286,-1.129,-1.1433,-1.1505,-1.1505,-1.1505,-1.1262,-1.0781,-1.0542,-1.0303,-0.9596,-0.9224,-0.8547,-0.8062,-0.7929,-0.7987,-0.7987,-0.7969,-0.7913,-0.7818,-0.7815,-0.7571,-0.7086,-0.6664,-0.6365,-0.5963,-0.581,-0.5729,-0.5741,-0.59,-0.5865,-0.5652,-0.5588,-0.5551,-0.5551,-0.5551,-0.5613,-0.576,-0.5435,-0.4011,-0.1135,0.2289,0.4153,0.369,0.4898,0.6106,0.7052,0.7868,0.8185,0.7707,0.7728,0.7778,0.7858,0.7874,0.7929,0.8062,0.8168,0.8247,0.83,0.8459,0.8323,0.809,0.7948,0.7797,0.7249,0.6975,0.674,0.6575,0.6952,0.7354,0.8048,0.8446,0.917,0.9588,0.9833,0.9812,0.9907,0.9852,0.9778,0.9802,0.9778,0.9757,0.9751,0.968,0.9621,0.96,0.9428,0.9881,1.1444,1.2409,1.3296,-2.4389,-2.4375,-2.3373,-2.2668,0.0,-2.3061,-2.3421,-2.3209,-1.9859,-1.7261,-1.4982,-1.3509,-1.2076,-1.0879,-0.9364,-0.8534,-0.8382,-0.8161,-0.8454,-0.9491,-0.9491,-0.9985,-1.0977,-1.106,-1.1104,-1.1108,-1.1191,-1.1235,-1.1231,-1.1231,-1.0806,-1.0414,-1.0418,-0.9942,-0.9007,-0.8659,-0.8334,-0.8019,-0.808,-0.8109,-0.8107,-0.8051,-0.7993,-0.7937,-0.7932,0.0,0.0,0.0,0.0,0.0,0.0,0.0,0.0,0.0,0.0,-0.501,-0.4641,-0.4349,-0.435,-0.435,-0.4399,-0.4512,-0.466,-0.3555,-0.0426,0.1725,0.3079,0.3829,0.4965,0.5908,0.7156,0.8156,0.8664,0.7965,0.8022,0.7843,0.7667,0.7723,0.7805,0.7913,0.7979,0.7815,0.7668,0.7787,0.7619,0.7197,0.7028,0.7099,0.6595,0.6057,0.5528,0.5604,0.6016,0.6733,0.7119,0.7839,0.8874,0.9215,0.9496,0.9815,0.9915,0.9839,0.9762,0.9757,0.9711,0.9653,0.9603,0.9547,0.9489,0.9423,0.9629,1.0441,1.1254,1.1802,1.2362,-2.4025,-2.4141,-2.3139,-2.2361,-2.1798,-2.1953,-2.2015,-2.1518,-1.7612,-1.5107,-1.3479,-1.3065,-1.1689,-0.9705,-0.9523,-0.9321,-0.8886,-0.8696,-0.9213,-0.9781,-0.9781,-1.007,-1.087,-1.0905,-1.0921,-1.0925,-1.0957,-1.0745,-1.0745,-1.0745,-1.0586,-1.0015,-1.0018,-0.9567,-0.8199,0.0,0.0,0.0,-0.8183,-0.8485,-0.8482,-0.839,-0.8327,-0.8308,-0.8054,0.0,-0.7764,-0.7151,-0.6796,-0.6691,-0.6568,0.0,0.0,0.0,0.0,0.0,0.0,0.0,0.0,0.0,0.0,0.0,-0.2802,-0.1405,0.1183,0.0601,0.0828,0.2819,0.4317,0.5656,0.6739,0.8342,0.8818,0.8416,0.829,0.8367,0.7701,0.7786,0.7654,0.7765,0.7799,0.7648,0.7328,0.7148,0.6976,0.6328,0.6122,0.6162,0.6215,0.5151,0.4347,0.4359,0.5047,0.576,0.5838,0.7125,0.8095,0.8432,0.9028,0.9349,0.9714,0.9664,0.9621,0.9608,0.9558,0.9457,0.9373,0.9354,0.9317,0.9232,0.9791,1.0324,1.1002,1.1171,1.1697,-2.3406,-2.3445,-2.2298,-2.1923,-2.1617,-1.9907,-1.8571,-1.7229,-1.4468,-1.3423,-1.3246,-1.1196,-1.018,-0.9801,-0.9523,-0.937,-0.9165,-0.8869,-0.894,-0.9614,-0.9614,-0.9847,-1.0532,-1.0671,-1.0743,-1.0747,-1.0897,-1.0745,-1.0745,-1.0745,-1.0297,-0.9404,-0.9179,-0.8781,-0.7729,-0.7644,-0.7495,-0.7744,-0.8649,-0.9386,-1.017,-0.9628,-0.9048,-0.9207,-0.843,-0.7869,-0.7266,-0.6835,-0.645,-0.5876,-0.571,-0.5319,-0.4512,-0.4298,-0.389,0.0,-0.2956,0.0,0.0,0.0,0.0,0.0,0.0,0.0,0.0,0.3315,0.1338,0.4965,0.5852,0.6811,0.8757,0.9218,0.9112,0.8698,0.8747,0.8583,0.8242,0.804,0.7872,0.7532,0.7635,0.7505,0.6902,0.7064,0.6659,0.5423,0.5253,0.5299,0.475,0.4516,0.4282,0.4289,0.4394,0.5056,0.5684,0.6004,0.6602,0.7738,0.8325,0.8301,0.9208,0.919,0.9166,0.9166,0.9163,0.9137,0.9116,0.9113,0.9108,0.9084,0.928,0.9456,1.0721,1.1283,1.2496,-2.2708,-2.2748,-2.1812,-2.1249,-2.0865,-1.7817,-1.5013,-1.261,-1.1408,-1.0934,-1.103,-1.0139,-0.9782,-0.979,-0.9657,-0.9483,-0.9502,-0.9452,-0.9526,-0.9737,-0.9741,-0.9952,-1.0167,-1.0239,-1.0274,-1.0278,-1.0457,-1.054,-1.0544,-1.064,-1.0062,-0.9027,-0.9027,-0.8308,-0.7116,-0.7346,-0.7735,-0.8047,-0.9141,-0.9882,-1.0208,-0.9702,-0.9423,-0.9118,-0.8862,-0.8327,-0.7519,-0.7367,-0.7206,-0.6803,-0.6649,-0.5952,-0.4764,-0.4511,-0.3855,0.0,0.0,0.0,0.0,0.0,0.0,0.0,0.0,0.0,0.0,0.0,0.265,0.5334,0.6534,0.7779,0.919,0.9213,0.9072,0.8601,0.858,0.8253,0.7791,0.7785,0.7796,0.7675,0.76,0.7082,0.6281,0.6373,0.5981,0.46,0.4601,0.4325,0.4053,0.4122,0.4178,0.4182,0.4278,0.4648,0.4986,0.5337,0.6237,0.7085,0.7648,0.8217,0.9068,0.9068,0.9044,0.8983,0.897,0.8951,0.8883,0.8872,0.8872,0.8848,0.8726,0.8865,0.9867,1.0708,1.1555,-2.1636,-2.227,-2.05,-1.9614,-1.8934,-1.568,-1.2459,-0.9358,-0.9139,-0.9187,-0.9159,-0.9294,-0.933,-0.9298,-0.9338,-0.9378,-0.9429,-0.9643,-0.9786,-0.9866,-0.9866,-0.9886,-0.9925,-0.9925,-0.9925,-0.9933,-1.0024,-1.0092,-1.0136,-1.0227,-0.969,-0.8716,-0.865,-0.8064,-0.6814,-0.7397,-0.79,-0.8517,-0.9266,-1.0001,-1.0205,-1.0,-1.0023,-0.9526,-0.8993,-0.8729,-0.8226,-0.7815,-0.7627,-0.7429,-0.7235,-0.6458,-0.4965,-0.4655,0.0,0.0,0.0,0.0,0.0,0.0,0.0,0.0,0.0,0.0641,0.2195,0.0,0.3959,0.0,0.6963,0.8292,0.8993,0.8909,0.0,0.0,0.8442,0.8336,0.7892,0.7593,0.7509,0.7478,0.7428,0.6766,0.5609,0.5667,0.5288,0.4222,0.4175,0.3882,0.3886,0.3993,0.4074,0.407,0.4146,0.4228,0.4273,0.4913,0.5538,0.64,0.6952,0.7785,0.8621,0.8898,0.8875,0.879,0.8766,0.8734,0.865,0.8631,0.8634,0.862,0.8496,0.8633,0.9149,0.9938,1.0724,-2.0546,-2.1685,-1.7604,-1.5842,-1.5292,-1.3259,-1.1116,-0.9326,-0.8843,-0.8592,-0.8441,-0.8457,-0.8377,-0.8243,-0.8393,0.0,-0.8719,-0.9056,-0.9378,-0.9683,-0.9687,-0.9774,-0.9925,-0.9921,-0.9925,-0.9921,-0.9778,-0.979,-0.9933,-0.9802,-0.9334,-0.8326,-0.7859,-0.7262,-0.6774,-0.7113,-0.7699,-0.8534,-0.9505,-1.0342,-1.0541,-1.0698,-1.0772,-1.0765,-0.94,-0.8841,-0.8587,-0.7778,-0.7309,-0.7174,-0.679,-0.5994,-0.4682,0.0,0.0,0.0,0.0,0.0,0.0,0.0,0.0,0.0,0.0,0.0,0.0,0.0,0.0,0.5847,0.6919,0.0,0.8588,0.8568,0.0,0.0,0.0,0.8462,0.8284,0.8046,0.7548,0.6933,0.0,0.0,0.5244,0.5412,0.5292,0.4624,0.4435,0.4233,0.3767,0.3907,0.4,0.3951,0.3995,0.4036,0.4062,0.4106,0.4423,0.5266,0.5794,0.6596,0.7384,0.7916,0.8438,0.843,0.8416,0.8416,0.8406,0.8395,0.8398,0.8387,0.8369,0.8616,0.9111,0.9887,1.0659,-1.8681,-1.7645,-1.4379,-1.1991,-1.0678,-1.1166,-1.0596,-0.9148,-0.86,-0.8276,-0.8044,-0.7933,-0.7675,-0.7318,-0.7278,0.0,0.0,0.0,-0.8493,-0.8731,-0.883,-0.8913,-0.8981,-0.8981,-0.9036,-0.9139,-0.9175,-0.929,-0.9461,-0.9489,-0.8707,-0.7071,0.0,0.0,-0.6202,-0.6784,-0.7571,-0.8574,-0.953,-1.0114,-1.051,-1.0776,-1.0725,-1.0578,-1.0043,-0.9257,-0.8466,-0.7941,-0.7433,-0.674,-0.6502,-0.5639,0.0,0.0,0.0,0.0,0.0,0.0,0.0,0.0,0.0,0.0,0.0,0.0514,0.1519,0.0,0.0,0.0,0.6025,0.6822,0.7449,0.7837,0.0,0.0,0.0,0.0,0.0,0.0,0.0,0.7094,0.6931,0.6573,0.588,0.5938,0.576,0.4743,0.4597,0.4218,0.4038,0.0,0.3832,0.3913,0.3915,0.3933,0.4,0.3975,0.3964,0.4271,0.5362,0.6439,0.7157,0.7765,0.8342,0.8297,0.8324,0.8371,0.8371,0.8138,0.7956,0.7953,0.8939,0.9428,0.8446,0.993,1.1168,-1.6331,0.0,0.0,0.0,0.0,-0.9269,-0.9439,-0.8401,-0.7989,-0.756,-0.7018,-0.7036,0.0,0.0,0.0,0.0,0.0,0.0,-0.754,-0.7814,-0.8088,-0.8239,-0.8286,-0.811,-0.7999,-0.8293,-0.8151,-0.825,-0.8581,-0.8189,-0.7198,-0.5759,0.0,0.0,0.0,0.0,-0.7532,-0.8592,-0.9478,-1.0076,-1.0378,-1.0671,-1.066,-1.0315,-1.0047,-0.9498,-0.8232,-0.7724,-0.718,-0.6224,-0.5996,0.0,0.0,0.0,0.0,0.0,0.0,0.0,0.0,0.0,0.0,0.0,0.0,0.0,0.0,0.0,0.0,0.0,0.0,0.0,0.6369,0.7209,0.7656,0.0,0.0,0.0,0.0,0.0,0.0,0.0,0.0,0.0,0.7297,0.7185,0.6896,0.0,0.0,0.4679,0.4266,0.3987,0.3677,0.3783,0.378,0.0,0.3876,0.3833,0.3809,0.3866,0.4685,0.5732,0.6405,0.7481,0.8056,0.8009,0.807,0.834,0.848,0.8173,0.8193,0.8406,0.9796,1.0258,0.9105,1.0494,1.19,0.0,0.0,0.0,0.0,0.0,0.0,0.0,0.0,-0.6747,-0.6146,0.0,-0.5592,0.0,0.0,0.0,0.0,-0.5576,-0.6088,0.0,0.0,-0.7596,-0.7949,-0.8092,-0.7412,-0.7262,-0.7595,-0.6647,-0.6583,-0.7301,-0.5864,0.0,0.0,0.0,0.0,0.0,0.0,-0.7434,-0.8468,-0.9477,-1.0009,-1.0195,-1.0378,-1.0481,-1.0489,-0.9679,-0.9094,-0.8305,-0.7307,-0.6534,-0.5625,-0.5172,0.0,0.0,0.0,0.0,0.0,0.0,0.0,0.0,0.0,0.0,0.0,0.0,0.0,0.0,0.0,0.0,0.0,0.0,0.0,0.0,0.6614,0.0,0.0,0.0,0.0,0.0,0.0,0.0,0.0,0.0,0.0,0.9454,0.9259,0.8584,0.7221,0.0,0.0,0.0,0.0,0.356,0.3515,0.3551,0.3588,0.3593,0.3637,0.3689,0.3746,0.0,0.0,0.54,0.6731,0.7399,0.7503,0.7527,0.7884,0.8848,0.8957,0.9371,1.0011,1.0425,1.0678,1.0903,1.148,1.2206,0.0,0.0,0.0,0.0,0.0,0.0,0.0,0.0,0.0,-0.5624,-0.5179,-0.4954,0.0,0.0,0.0,0.0,0.0,0.0,0.0,0.0,-0.6268,-0.6259,-0.6179,-0.6292,-0.5955,0.0,-0.5562,-0.5211,0.0,0.0,0.0,0.0,0.0,0.0,0.0,0.0,-0.6535,-0.7928,-0.8751,-0.9326,-0.9826,-1.0024,-1.0167,-1.0282,-1.0011,-0.9329,-0.8061,-0.7156,-0.63,0.0,0.0,0.0,0.0,0.0,0.0,0.0,0.0,0.0,0.0,0.0,0.0,0.0,0.0,0.0,0.0,0.0,0.0,0.0,0.0,0.0,0.0,0.0,0.7091,0.0,0.0,0.0,0.0,0.0,0.0,0.0,0.0,0.0,1.1104,1.0814,0.9966,0.89,0.7773,0.6478,0.5224,0.0,0.0,0.0,0.0,0.0,0.0,0.0,0.3487,0.3469,0.3466,0.3899,0.4982,0.6251,0.7101,0.7355,0.0,0.0,0.8105,0.8354,0.8653,0.951,1.077,1.1521,1.0398,1.1709,1.2713,0.0,0.0,0.0,0.0,0.0,0.0,0.0,0.0,0.0,-0.5043,-0.4612,0.0,0.0,0.0,0.0,0.0,0.0,0.0,0.0,0.0,0.0,0.0,-0.4904,-0.4848,0.0,0.0,0.0,0.0,0.0,0.0,0.0,0.0,0.0,0.0,0.0,0.0,-0.614,-0.7635,-0.8294,-0.8532,-0.8482,-0.9262,-0.9376,-0.8813,-0.9429,-0.9144,-0.797,0.0,0.0,0.0,0.0,0.0,0.0,0.0,0.0,0.0,0.0,0.0,0.0,0.0,0.0,0.0,0.0,0.0,0.0,0.0,0.0,0.0,0.0,0.0,0.0,0.0,0.6953,0.0,0.0,0.0,0.0,0.0,0.0,0.0,0.0,0.0,0.0,0.0,1.1886,1.0774,0.9567,0.818,0.6623,0.5711,0.5029,0.0,0.0,0.0,0.0,0.0,0.0,0.0,0.0,0.0,0.0,0.0,0.0,0.0,0.0,0.7475,0.7969,0.8506,0.9017,0.9703,0.0,0.0,0.0,0.0,0.0,0.0,0.0,0.0,0.0,0.0,0.0,0.0,0.0,0.0,0.0,-0.3886,0.0,0.0,-0.3322,0.0,0.0,0.0,0.0,0.0,0.0,0.0,0.0,0.0,0.0,0.0,0.0,0.0,0.0,0.0,0.0,0.0,0.0,0.0,0.0,0.0,0.0,-0.6021,-0.7458,-0.8171,-0.7867,-0.6273,-0.8146,-0.8157,-0.6485,-0.8,-0.8897,-0.8358,0.0,0.0,0.0,0.0,0.0,0.0,0.0,0.0,0.0,0.0,0.0,0.0,0.0,0.0,0.0,0.0,0.0,0.0,0.0,0.0,0.0,0.0,0.0,0.0,0.0,0.0,0.8684,1.0272,1.1116,0.0,0.0,0.0,0.0,0.0,0.0,0.0,0.0,0.0,1.264,1.2003,1.0604,0.8111,0.7893,0.713,0.4603,0.4561,0.4343,0.3619,0.3428,0.3208,0.0,0.0,0.0,0.0,0.0,0.0,0.0,0.0,0.0,0.0,0.0,0.0,0.0,0.0,0.0,0.0,0.0,0.0,0.0,0.0,0.0,0.0,0.0,0.0,0.0,0.0,0.0,0.0,0.0,0.0,0.0,0.0,0.0,0.0,0.0,0.0,0.0,0.0,0.0,0.0,0.0,0.0,0.0,0.0,0.0,0.0,0.0,0.0,0.0,0.0,0.0,0.0,0.0,0.0,-0.5749,-0.7119,-0.8167,-0.8441,-0.7837,-0.6006,-0.6197,-0.8589,-0.8854,-0.8665,0.0,0.0,0.0,0.0,0.0,0.0,0.0,0.0,0.0,0.0,0.0,0.0,0.0,0.0,0.0,0.0,0.0,0.0,0.0,0.0,0.0,0.0,0.0,0.0,0.0,0.0,0.0,0.0,1.2139,1.298,1.3096,0.0,0.0,0.0,0.0,0.0,0.0,0.0,0.0,0.0,0.0,1.3102,1.1105,1.0281,0.9337,0.7753,0.7443,0.6896,0.5331,0.4996,0.4771,0.3648,0.0,0.0,0.0,0.0,0.0,0.0,0.0,0.0,0.0,0.0,0.0,0.0,0.0,0.0,0.0,0.0,0.0,0.0,0.0,0.0,0.0,0.0,0.0,0.0,0.0,0.0,0.0,0.0,0.0,0.0,0.0,0.0,0.0,0.0,0.0,0.0,0.0,0.0,0.0,0.0,0.0,0.0,0.0,0.0,0.0,0.0,0.0,0.0,0.0,0.0,0.0,0.0,0.0,-0.5474,-0.6797,-0.7851,-0.7609,-0.6016,-0.3293,-0.3843,-0.7695,-0.7971,-0.7873,0.0,0.0,0.0,0.0,0.0,0.0,0.0,0.0,0.0,0.0,0.0,0.0,0.0,0.0,0.0,0.0,0.0,0.0,0.0,0.0,0.0,0.0,0.0,0.0,0.0,0.0,0.0,0.0,1.3961,1.5229,1.5463,0.0,0.0,0.0,0.0,0.0,0.0,0.0,0.0,0.0,0.0,1.5511,1.3641,1.2692,0.0,0.0,0.9337,0.8627,0.7134,0.6322,0.5525,0.4819,0.404,0.0,0.0,0.0,0.0,0.0,0.0,0.0,0.0,0.0,0.0,0.0,0.0,0.0,0.0,0.0,0.0,0.0,0.0,0.0,0.0,0.0,0.0,0.0,0.0,0.0,0.0,0.0,0.0,0.0,0.0,0.0,0.0,0.0,0.0,0.0,0.0,0.0,0.0,0.0,0.0,0.0,0.0,0.0,0.0,0.0,0.0,0.0,0.0,0.0,0.0,0.0,0.0,-0.5,-0.6315,-0.7022,-0.5454,-0.1781,-0.0537,-0.1435,-0.4658,-0.642,-0.6957,0.0,0.0,0.0,0.0,0.0,0.0,0.0,0.0,0.0,0.0,0.0,0.0,0.0,0.0,0.0,0.0,0.0,0.0,0.0,0.0,0.0,0.0,0.0,0.0,0.0,0.0,0.0,0.0,0.0,0.0,0.0,0.0,0.0,0.0,0.0,0.0,0.0,0.0,0.0,0.0,0.0,1.773,1.6005,1.535,1.4085,0.0,1.0675,0.9917,0.9055,0.7247,0.6262,0.6427,0.0,0.0,0.0,0.0,0.0,0.0,0.0,0.0,0.0,0.0,0.0,0.0,0.0,0.0,0.0,0.0,0.0,0.0,0.0,0.0,0.0,0.0,0.0,0.0,0.0,0.0,0.0,0.0,0.0,0.0,0.0,0.0,0.0,0.0,0.0,0.0,0.0,0.0,0.0,0.0,0.0,0.0,0.0,0.0,0.0,0.0,0.0,0.0,0.0,0.0,0.0,0.0,0.0,0.0,-0.5481,-0.4648,-0.2852,-0.0514,-0.0174,-0.2969,-0.9128,-0.8045,0.0,0.0,0.0,0.0,0.0,0.0,0.0,0.0,0.0,0.0,0.0,0.0,0.0,0.0,0.0,0.0,0.0,0.0,0.0,0.0,0.0,0.0,0.0,0.0,0.0,0.0,0.0,1.2742,0.0,0.0,0.0,0.0,0.0,0.0,0.0,0.0,0.0,0.0,0.0,0.0,0.0,0.0,1.8818,1.7826,1.6881,1.5893,0.0,0.0,1.2746,1.0326,0.9555,0.8756,0.0,0.0,0.0,0.0,0.0,0.0,0.0,0.0,0.0,0.0,0.0,0.0,0.0,0.0,0.0,0.0,0.0,0.0,0.0,0.0,0.0,0.0,0.0,0.0,0.0,0.0,0.0,0.0,0.0,0.0,0.0,0.0,0.0,0.0,0.0,0.0,0.0,0.0,0.0,0.0,0.0,0.0,0.0,0.0,0.0,0.0,0.0,0.0,0.0,0.0,0.0,0.0,0.0,0.0,-0.3105,-0.4187,-0.2544,-0.1132,-0.0,-0.0,-0.2026,-0.6178,-0.4901,-0.429,0.0,0.0,0.0,0.0,0.0,0.0,0.0,0.0,0.0,0.0,0.0,0.0,0.0,0.0,0.0,0.0,0.0,0.0,0.0,0.0,0.0,0.0,0.0,0.0,0.0,0.0,0.0,0.0,0.0,0.0,0.0,0.0,0.0,0.0,0.0,0.0,0.0,0.0,0.0,0.0,0.0,0.0,1.8709,1.7757,0.0,0.0,0.0,1.4191,1.2156,0.0,0.0,0.0,0.0,0.0,0.0,0.0,0.0,0.0,0.0,0.0,0.0,0.0,0.0,0.0,0.0,0.0,0.0,0.0,0.0,0.0,0.0,0.0,0.0,0.0,0.0,0.0,0.0,0.0,0.0,0.0,0.0,0.0,0.0,0.0,0.0,0.0,0.0,0.0,0.0,0.0,0.0,0.0,0.0,0.0,0.0,0.0,0.0,0.0,0.0,0.0,0.0,0.0,0.0,0.0,0.0,0.0,-0.2451,-0.0849,-0.0,-0.0,-0.0,0.0163,0.0489,0.0766,-0.0144,0.0,0.0,0.0,0.0,0.0,0.0,0.0,0.0,0.0,0.0,0.0,0.0,0.0,0.0,0.0,0.0,0.0,0.0,0.0,0.0,0.0,0.0,0.0,0.0,0.0,0.0,0.0,0.0,0.0,0.0,0.0,0.0,0.0,0.0,0.0,0.0,0.0,0.0,0.0,0.0,0.0,2.0578,1.8924,1.8355,1.7553,0.0,0.0,1.4685,1.3836,1.1857,0.0,0.0,0.0,0.0,0.0,0.0,0.0,0.0,0.0,0.0,0.0,0.0,0.0,0.0,0.0,0.0,0.0,0.0,0.0,0.0,0.0,0.0,0.0,0.0,0.0,0.0,0.0,0.0,0.0,0.0,0.0,0.0,0.0,0.0,0.0,0.0,0.0,0.0,0.0,0.0,0.0,0.0,0.0,0.0,0.0,0.0,0.0,0.0,0.0,0.0,0.0,0.0,0.0,0.0,0.0,0.0,-0.0489,-0.0142,-0.0,-0.0,-0.0,0.1295,0.3819,0.525,0.4365,0.0,0.0,0.0,0.0,0.0,0.0,0.0,0.0,0.0,0.0,0.0,0.0,0.0,0.0,0.0,0.0,0.0,0.0,0.0,0.0,0.0,0.0,0.0,0.0,0.0,0.0,0.0,0.0,0.0,0.0,0.0,0.0,0.0,0.0,0.0,0.0,0.0,0.0,0.0,0.0,0.0,2.0296,2.0085,1.8681,0.0,0.0,0.0,0.0,1.3523,1.2774,0.0,0.0,0.0,0.0,0.0,0.0,0.0,0.0,0.0,0.0,0.0,0.0,0.0,0.0,0.0,0.0,0.0,0.0,0.0,0.0,0.0,0.0,0.0,0.0,0.0,0.0,0.0,0.0,0.0,0.0,0.0,0.0,0.0,0.0,0.0,0.0,0.0,0.0,0.0,0.0,0.0,0.0,0.0,0.0,0.0,0.0,0.0,0.0,0.0,0.0,0.0,0.0,0.0,0.0,0.0,0.0,0.0722,0.0552,0.03,0.0155,0.2671,0.472,0.6072,0.6858,0.5048,0.0,0.0,0.0,0.0,0.0,0.0,0.0,0.0,0.0,0.0,0.0,0.0,0.0,0.0,0.0,0.0,0.0,0.0,0.0,0.0,0.0,0.0,0.0,0.0,0.0,0.0,0.0,0.0,0.0,0.0,0.0,0.0,0.0,0.0,0.0,0.0,0.0,0.0,0.0,0.0,2.1032,2.1103,1.9442,0.0,0.0,0.0,0.0,0.0,0.0,1.3707,1.2845,0.0,0.0,0.0,0.0,0.0,0.0,0.0,0.0,0.0,0.0,0.0,0.0,0.0,0.0,0.0,0.0,0.0,0.0,0.0,0.0,0.0,0.0,0.0,0.0,0.0,0.0,0.0,0.0,0.0,0.0,0.0,0.0,0.0,0.0,0.0,0.0,0.0,0.0,0.0,0.0,0.0,0.0,0.0,0.0,0.0,0.0,0.0,0.0,0.0,0.0,0.0,0.0,0.0,0.0,0.0,0.1548,0.12,0.1154,0.1363,0.5946,0.7955,0.7037,0.6728,0.4117,-0.0783,0.0,0.0,0.0,0.0,0.0,0.0,0.0,0.0,0.0,0.0,0.0,0.0,0.0,0.0,0.0,0.0,0.0,0.0,0.0,0.0,0.0,0.0,0.0,0.0,0.0,0.0,0.0,0.0,0.0,0.0,0.0,0.0,0.0,0.0,0.0,0.0,0.0,0.0,0.0,2.1332,2.1851,0.0,0.0,0.0,0.0,0.0,0.0,0.0,0.0,1.3764,0.0,0.0,0.0,0.0,0.0,0.0,0.0,0.0,0.0,0.0,0.0,0.0,0.0,0.0,0.0,0.0,0.0,0.0,0.0,0.0,0.0,0.0,0.0,0.0,0.0,0.0,0.0,0.0,0.0,0.0,0.0,0.0,0.0,0.0,0.0,0.0,0.0,0.0,0.0,0.0,0.0,0.0,0.0,0.0,0.0,0.0,0.0,0.0,0.0,0.0,0.0,0.0,0.0,0.0,0.0,0.0,0.1816,0.3232,0.6488,0.725,0.7022,0.5785,0.4167,0.3087,0.2785,0.0,0.0,0.0,0.0,0.0,0.0,0.0,0.0,0.0,0.0,0.0,0.0,0.0,0.0,0.0,0.0,0.0,0.0,0.0,0.0,0.0,0.0,0.0,0.0,0.0,0.0,0.0,0.0,0.0,0.0,0.0,0.0,0.0,0.0,0.0,0.0,0.0,0.0,1.9377,2.0829,0.0,0.0,0.0,0.0,0.0,0.0,0.0,0.0,1.5773,0.0,0.0,0.0,0.0,0.0,0.0,0.0,0.0,0.0,0.0,0.0,0.0,0.0,0.0,0.0,0.0,0.0,0.0,0.0,0.0,0.0,0.0,0.0,0.0,0.0,0.0,0.0,0.0,0.0,0.0,0.0,0.0,0.0,0.0,0.0,0.0,0.0,0.0,0.0,0.0,0.0,0.0,0.0,0.0,0.0,0.0,0.0,0.0,0.0,0.0,0.0,0.0,0.0,0.0,0.0,0.0,0.0,0.0,0.5022,0.762,0.7527,0.701,0.6069,0.4927,0.3946,0.0,0.0,0.0,0.0,0.0,0.0,0.0,0.0,0.0,0.0,0.0,0.0,0.0,0.0,0.0,0.0,0.0,0.0,0.0,0.0,0.0,0.0,0.0,0.0,0.0,0.0,0.0,0.0,0.0,0.0,0.0,0.0,0.0,0.0,0.0,0.0,0.0,0.0,0.0,0.0,0.0,0.0,0.0,0.0,0.0,0.0,0.0,0.0,0.0,0.0,0.0,0.0,0.0,0.0,0.0,0.0,0.0,0.0,0.0,0.0,0.0,0.0,0.0,0.0,0.0,0.0,0.0,0.0,0.0,0.0,0.0,0.0,0.0,0.0,0.0,0.0,0.0,0.0,0.0,0.0,0.0,0.0,0.0,0.0,0.0,0.0,0.0,0.0,0.0,0.0,0.0,0.0,0.0,0.0,0.0,0.0,0.0,0.0,0.0,0.0,0.0,0.0,0.0,0.0,0.0,0.0,0.0,0.0,0.6737,0.7985,0.7796,0.7458,0.6677,0.606,0.484,0.0,0.0,0.0,0.0,0.0,0.0,0.0,0.0,0.0,0.0,0.0,0.0,0.0,0.0,0.0,0.0,0.0,0.0,0.0,0.0,0.0,0.0,0.0,0.0,0.0,0.0,0.0,0.0,0.0,0.0,0.0,0.0,0.0,0.0,0.0,0.0,0.0,0.0,0.0,0.0,0.0,0.0,0.0,0.0,0.0,0.0,0.0,0.0,1.9153,0.0,0.0,0.0,0.0,0.0,0.0,0.0,0.0,0.0,0.0,0.0,0.0,0.0,0.0,0.0,0.0,0.0,0.0,0.0,0.0,0.0,0.0,0.0,0.0,0.0,0.0,0.0,0.0,0.0,0.0,0.0,0.0,0.0,0.0,0.0,0.0,0.0,0.0,0.0,0.0,0.0,0.0,0.0,0.0,0.0,0.0,0.0,0.0,0.0,0.0,0.0,0.0,0.0,0.0,0.0,0.0,0.0,0.0,0.0,0.838,0.9472,0.9063,0.8215,0.6666,0.5681,0.4872,0.0,0.0,0.0,0.0,0.0,0.0,0.0,0.0,0.0,0.0,0.0,0.0,0.0,0.0,0.0,0.0,0.0,0.0,0.0,0.0,0.0,0.0,0.0,0.0,0.0,0.0,0.0,0.0,0.0,0.0,0.0,0.0,0.0,0.0,0.0,0.0,0.0,0.0,0.0,0.0,0.0,0.0,0.0,0.0,0.0,0.0,0.0,0.0,0.0,0.0,0.0,0.0,0.0,0.0,0.0,0.0,0.0,0.0,0.0,0.0,0.0,0.0,0.0,0.0,0.0,0.0,0.0,0.0,0.0,0.0,0.0,0.0,0.0,0.0,0.0,0.0,0.0,0.0,0.0,0.0,0.0,0.0,0.0,0.0,0.0,0.0,0.0,0.0,0.0,0.0,0.0,0.0,0.0,0.0,0.0,0.0,0.0,0.0,0.0,0.0,0.0,0.0,0.0,0.0,0.0,0.0,0.0,0.0,0.8384,0.9372,0.8572,0.8089,0.7698,0.5926,0.4772,0.0,0.0,0.0,0.0,0.0,0.0,0.0,0.0,0.0,0.0,0.0,0.0,0.0,0.0,0.0,0.0,0.0,0.0,0.0,0.0,0.0,0.0,0.0,0.0,0.0,0.0,0.0,0.0,0.0,0.0,0.0,0.0,0.0,0.0,0.0,0.0,0.0,0.0,0.0,0.0,0.0,0.0,0.0,0.0,0.0,0.0,0.0,0.0,0.0,0.0,0.0,0.0,0.0,0.0,0.0,0.0,0.0,0.0,0.0,0.0,0.0,0.0,0.0,0.0,0.0,0.0,0.0,0.0,0.0,0.0,0.0,0.0,0.0,0.0,0.0,0.0,0.0,0.0,0.0,0.0,0.0,0.0,0.0,0.0,0.0,0.0,0.0,0.0,0.0,0.0,0.0,0.0,0.0,0.0,0.0,0.0,0.0,0.0,0.0,0.0,0.0,0.0,0.0,0.0,0.0,0.0,0.0,0.0,0.0,0.927,0.7968,0.7408,0.7497,0.5809,0.452,0.0,0.0,0.0,0.0,0.0,0.0,0.0,0.0,0.0,0.0,0.0,0.0,0.0,0.0,0.0,0.0,0.0,0.0,0.0,0.0,0.0,0.0,0.0,0.0,0.0,0.0,0.0,0.0,0.0,0.0,0.0,0.0,0.0,0.0,0.0,0.0,0.0,0.0,0.0,0.0,0.0,0.0,0.0,0.0,0.0,0.0,0.0,0.0,0.0,0.0,0.0,0.0,0.0,0.0,0.0,0.0,0.0,0.0,0.0,0.0,0.0,0.0,0.0,0.0,0.0,0.0,0.0,0.0,0.0,0.0,0.0,0.0,0.0,0.0,0.0,0.0,0.0,0.0,0.0,0.0,0.0,0.0,0.0,0.0,0.0,0.0,0.0,0.0,0.0,0.0,0.0,0.0,0.0,0.0,0.0,0.0,0.0,0.0,0.0,0.0,0.0,0.0,0.0,0.0,0.0,0.0,0.0,0.0,0.0,1.0014,0.7852,0.618,0.5305,0.4613,0.3859,0.0,0.0,0.0,0.0,0.0,0.0,0.0,0.0,0.0,0.0,0.0,0.0,0.0,0.0,0.0,0.0,0.0,0.0,0.0,0.0,0.0,0.0,0.0,0.0,0.0,0.0,0.0,0.0,0.0,0.0,0.0,0.0,0.0,0.0,0.0,0.0,0.0,0.0,0.0,0.0,0.0,0.0,0.0,0.0,0.0,0.0,0.0,0.0,0.0,0.0,0.0,0.0,0.0,0.0,0.0,0.0,0.0,0.0,0.0,0.0,0.0,0.0,0.0,0.0,0.0,0.0,0.0,0.0,0.0,0.0,0.0,0.0,0.0,0.0,0.0,0.0,0.0,0.0,0.0,0.0,0.0,0.0,0.0,0.0,0.0,0.0,0.0,0.0,0.0,0.0,0.0,0.0,0.0,0.0,0.0,0.0,0.0,0.0,0.0,0.0,0.0,0.0,0.0,0.0,0.0,0.0,0.0,0.0,0.0,0.7927,0.6778,0.585,0.51,0.4586,0.4004,0.3464,0.0,0.0,0.0,0.0,0.0,0.0,0.0,0.0,0.0,0.0,0.0,0.0,0.0,0.0,0.0,0.0,0.0,0.0,0.0,0.0,0.0,0.0,0.0,0.0,0.0,0.0,0.0,0.0,0.0,0.0,0.0,0.0,0.0,0.0,0.0,0.0,0.0,0.0,0.0,0.0,0.0,0.0,0.0,0.0,0.0,0.0,0.0,0.0,0.0,0.0,0.0,0.0,0.0,0.0,0.0,0.0,0.0,0.0,0.0,0.0,0.0,0.0,0.0,0.0,0.0,0.0,0.0,0.0,0.0,0.0,0.0,0.0,0.0,0.0,0.0,0.0,0.0,0.0,0.0,0.0,0.0,0.0,0.0,0.0,0.0,0.0,0.0,0.0,0.0,0.0,0.0,0.0,0.0,0.0,0.0,0.0,0.0,0.0,0.0,0.0,0.0,0.0,0.0,0.0,0.0,0.0,0.0,0.0,0.632,0.5987,0.5663,0.529,0.4722,0.4199,0.0,0.0,0.0,0.0,0.0,0.0,0.0,0.0,0.0,0.0,0.0,0.0,0.0,0.0,0.0,0.0,0.0,0.0,0.0,0.0,0.0,0.0,0.0,0.0,0.0,0.0,0.0,0.0,0.0,0.0,0.0,0.0,0.0,0.0,0.0,0.0,0.0,0.0,0.0,0.0,0.0,0.0,0.0,0.0,0.0,0.0,0.0,0.0,0.0,0.0,0.0,0.0,0.0,0.0,0.0,0.0,0.0,0.0,0.0,0.0,0.0,0.0,0.0,0.0,0.0,0.0,0.0,0.0,0.0,0.0,0.0,0.0,0.0,0.0,0.0,0.0,0.0,0.0,0.0,0.0,0.0,0.0,0.0,0.0,0.0,0.0,0.0,0.0,0.0,0.0,0.0,0.0,0.0,0.0,0.0,0.0,0.0,0.0,0.0,0.0,0.0,0.0,0.0,0.0,0.0,0.0,0.0,0.0,0.609,0.5856,0.5559,0.554,0.5627,0.486,0.439,0.0,0.0,0.0,0.0,0.0,0.0,0.0,0.0,0.0,0.0,0.0,0.0,0.0,0.0,0.0,0.0,0.0,0.0,0.0,0.0,0.0,0.0,0.0,0.0,0.0,0.0,0.0,0.0,0.0,0.0,0.0,0.0,0.0,0.0,0.0,0.0,0.0,0.0,0.0,0.0,0.0,0.0,0.0,0.0,0.0,0.0,0.0,0.0,0.0,0.0,0.0,0.0,0.0,0.0,0.0,0.0,0.0,0.0,0.0,0.0,0.0,0.0,0.0,0.0,0.0,0.0,0.0,0.0,0.0,0.0,0.0,0.0,0.0,0.0,0.0,0.0,0.0,0.0,0.0,0.0,0.0,0.0,0.0,0.0,0.0,0.0,0.0,0.0,0.0,0.0,0.0,0.0,0.0,0.0,0.0,0.0,0.0,0.0,0.0,0.0,0.0,0.0,0.0,0.0,0.0,0.0,0.0,0.0,0.0,0.5967,0.0,0.5607,0.0,0.4976,0.4715,0.0,0.0,0.0,0.0,0.0,0.0,0.0,0.0,0.0,0.0,0.0,0.0,0.0,0.0,0.0,0.0,0.0,0.0,0.0,0.0,0.0,0.0,0.0,0.0,0.0,0.0,0.0,0.0,0.0,0.0,0.0,0.0,0.0,0.0,0.0,0.0,0.0,0.0,0.0,0.0,0.0,0.0,0.0,0.0,0.0,0.0,0.0,0.0,0.0,0.0,0.0,0.0,0.0,0.0,0.0,0.0,0.0,0.0,0.0,0.0,0.0,0.0,0.0,0.0,0.0,0.0,0.0,0.0,0.0,0.0,0.0,0.0,0.0,0.0,0.0,0.0,0.0,0.0,0.0,0.0,0.0,0.0,0.0,0.0,0.0,0.0,0.0,0.0,0.0,0.0,0.0,0.0,0.0,0.0,0.0,0.0,0.0,0.0,0.0,0.0,0.0,0.0,0.0,0.0,0.0,0.0,0.0,0.0,0.0,0.604,0.5838,0.5677,0.5463,0.5226,0.517,0.0,0.0,0.0,0.0,0.0,0.0,0.0,0.0,0.0,0.0,0.0,0.0,0.0,0.0,0.0,0.0,0.0,0.0,0.0,0.0,0.0,0.0,0.0,0.0,0.0,0.0,0.0,0.0,0.0,0.0,0.0,0.0,0.0,0.0,0.0,0.0,0.0,0.0,0.0,0.0,0.0,0.0,0.0,0.0,0.0,0.0,0.0,0.0,0.0,0.0,0.0,0.0,0.0,0.0,0.0,0.0,0.0,0.0,0.0,0.0,0.0,0.0,0.0,0.0,0.0,0.0,0.0,0.0,0.0,0.0,0.0,0.0,0.0,0.0,0.0,0.0,0.0,0.0,0.0,0.0,0.0,0.0,0.0,0.0,0.0,0.0,0.0,0.0,0.0,0.0,0.0,0.0,0.0,0.0,0.0,0.0,0.0,0.0,0.0,0.0,0.0,0.0,0.0,0.0,0.0,0.0,0.0,0.0,0.0,0.0,0.5791,0.5713,0.5832,0.5678,0.5614,0.0,0.0,0.0,0.0,0.0,0.0,0.0,0.0,0.0,0.0,0.0,0.0,0.0,0.0,0.0,0.0,0.0,0.0,0.0,0.0,0.0,0.0,0.0,0.0,0.0,0.0,0.0,0.0,0.0,0.0,0.0,0.0,0.0,0.0,0.0,0.0,0.0,0.0,0.0,0.0,0.0,0.0,0.0,0.0,0.0,0.0,0.0,0.0,0.0,0.0,0.0,0.0,0.0,0.0,0.0,0.0,0.0,0.0,0.0,0.0,0.0,0.0,0.0,0.0,0.0,0.0,0.0,0.0,0.0,0.0,0.0,0.0,0.0,0.0,0.0,0.0,0.0,0.0,0.0,0.0,0.0,0.0,0.0,0.0,0.0,0.0,0.0,0.0,0.0,0.0,0.0,0.0,0.0,0.0,0.0,0.0,0.0,0.0,0.0,0.0,0.0,0.0,0.0,0.0,0.0,0.0,0.0,0.0,0.0,0.0,0.595,0.0,0.5929,0.5914,0.6182,0.6757,0.0,0.0,0.0,0.0,0.0,0.0,0.0,0.0,0.0,0.0,0.0,0.0,0.0,0.0,0.0,0.0,0.0,0.0,0.0,0.0,0.0,0.0,0.0,0.0,0.0,0.0,0.0,0.0,0.0,0.0,0.0,0.0,0.0,0.0,0.0,0.0,0.0,0.0,0.0,0.0,0.0,0.0,0.0,0.0,0.0,0.0,0.0,0.0,0.0,0.0,0.0,0.0,0.0,0.0,0.0,0.0,0.0,0.0,0.0,0.0,0.0,0.0,0.0,0.0,0.0,0.0,0.0,0.0,0.0,0.0,0.0,0.0,0.0,0.0,0.0,0.0,0.0,0.0,0.0,0.0,0.0,0.0,0.0,0.0,0.0,0.0,0.0,0.0,0.0,0.0,0.0,0.0,0.0,0.0,0.0,0.0,0.0,0.0,0.0,0.0,0.0,0.0,0.0,0.0,0.0,0.0,0.0,0.0,0.0,0.0,0.5957,0.6178,0.6217,0.6672,0.0,0.0,0.0,0.0,0.0,0.0,0.0,0.0,0.0,0.0,0.0,0.0,0.0,0.0,0.0,0.0,0.0,0.0,0.0,0.0,0.0,0.0,0.0,0.0,0.0,0.0,0.0,0.0,0.0,0.0,0.0,0.0,0.0,0.0,0.0,0.0,0.0,0.0,0.0,0.0,0.0,0.0,0.0,0.0,0.0,0.0,0.0,0.0,0.0,0.0,0.0,0.0,0.0,0.0,0.0,0.0,0.0,0.0,0.0,0.0,0.0,0.0,0.0,0.0,0.0,0.0,0.0,0.0,0.0,0.0,0.0,0.0,0.0,0.0,0.0,0.0,0.0,0.0,0.0,0.0,0.0,0.0,0.0,0.0,0.0,0.0,0.0,0.0,0.0,0.0,0.0,0.0,0.0,0.0,0.0,0.0,0.0,0.0,0.0,0.0,0.0,0.0,0.0,0.0,0.0,0.0,0.0,0.0,0.0,0.0,0.0,0.6328,0.6495,0.6625,0.0,0.777,0.0,0.0,0.0,0.0,0.0,0.0,0.0,0.0,0.0,0.0,0.0,0.0,0.0,0.0,0.0,0.0,0.0,0.0,0.0,0.0,0.0,0.0,0.0,0.0,0.0,0.0,0.0,0.0,0.0,0.0,0.0,0.0,0.0,0.0,0.0,0.0,0.0,0.0,0.0,0.0,0.0,0.0,0.0,0.0,0.0,0.0,0.0,0.0,0.0,0.0,0.0,0.0,0.0,0.0,0.0,0.0,0.0,0.0,0.0,0.0,0.0,0.0,0.0,0.0,0.0,0.0,0.0,0.0,0.0,0.0,0.0,0.0,0.0,0.0,0.0,0.0,0.0,0.0,0.0,0.0,0.0,0.0,0.0,0.0,0.0,0.0,0.0,0.0,0.0,0.0,0.0,0.0,0.0,0.0,0.0,0.0,0.0,0.0,0.0,0.0,0.0,0.0,0.0,0.0,0.0,0.0,0.0,0.0,0.0,0.0,0.0,0.0,0.6996,0.7329,0.792,0.0,0.0,0.0,0.0,0.0,0.0,0.0,0.0,0.0,0.0,0.0,0.0,0.0,0.0,0.0,0.0,0.0,0.0,0.0,0.0,0.0,0.0,0.0,0.0,0.0,0.0,0.0,0.0,0.0,0.0,0.0,0.0,0.0,0.0,0.0,0.0,0.0,0.0,0.0,0.0,0.0,0.0,0.0,0.0,0.0,0.0,0.0,0.0,0.0,0.0,0.0,0.0,0.0,0.0,0.0,0.0,0.0,0.0,0.0,0.0,0.0,0.0,0.0,0.0,0.0,0.0,0.0,0.0,0.0,0.0,0.0,0.0,0.0,0.0,0.0,0.0,0.0,0.0,0.0,0.0,0.0,0.0,0.0,0.0,0.0,0.0,0.0,0.0,0.0,0.0,0.0,0.0,0.0,0.0,0.0,0.0,0.0,0.0,0.0,0.0,0.0,0.0,0.0,0.0,0.0,0.0,0.0,0.0,0.0,0.0,0.7879,0.7879,0.7952,0.8194,0.8769,0.0,0.0,0.0,0.0,0.0,0.0,0.0,0.0,0.0,0.0,0.0,0.0,0.0,0.0,0.0,0.0,0.0,0.0,0.0,0.0,0.0,0.0,0.0,0.0,0.0,0.0,0.0,0.0,0.0,0.0,0.0,0.0,0.0,0.0,0.0,0.0,0.0,0.0,0.0,0.0,0.0,0.0,0.0,0.0,0.0,0.0,0.0,0.0,0.0,0.0,0.0,0.0,0.0,0.0,0.0,0.0,0.0,0.0,0.0,0.0,0.0,0.0,0.0,0.0,0.0,0.0,0.0,0.0,0.0,0.0,0.0,0.0,0.0,0.0,0.0,0.0,0.0,0.0,0.0,0.0,0.0,0.0,0.0,0.0,0.0,0.0,0.0,0.0,0.0,0.0,0.0,0.0,0.0,0.0,0.0,0.0,0.0,0.0,0.0,0.0,0.0,0.0,0.0,0.0,0.0,0.0,0.0,0.0,0.0,0.0,0.0,0.0,0.0,0.0,0.9938,0.0,0.0,0.0,0.0,0.0,0.0,0.0,0.0,0.0,0.0,0.0,0.0,0.0,0.0,0.0,0.0,0.0,0.0,0.0,0.0,0.0,0.0,0.0,0.0,0.0,0.0,0.0,0.0,0.0,0.0,0.0,0.0,0.0,0.0,0.0,0.0,0.0,0.0,0.0,0.0,0.0,0.0,0.0,0.0,0.0,0.0,0.0,0.0,0.0,0.0,0.0,0.0,0.0,0.0,0.0,0.0,0.0,0.0,0.0,0.0,0.0,0.0,0.0,0.0,0.0,0.0,0.0,0.0,0.0,0.0,0.0,0.0,0.0,0.0,0.0,0.0,0.0,0.0,0.0,0.0,0.0,0.0,0.0,0.0,0.0,0.0,0.0,0.0,0.0,0.0,0.0,0.0,0.0,0.0,0.0,0.0,0.0,0.0,0.0,0.0,0.0,0.0,0.0,0.0,0.0,0.0,0.0,0.0,0.0,0.0,0.0,0.0,0.0,0.0,0.0,0.0,0.0,0.0,0.0,0.0,0.0,0.0,0.0,0.0,0.0,0.0,0.0,0.0,0.0,0.0,0.0,0.0,0.0,0.0,0.0,0.0,0.0,0.0,0.0,0.0,0.0,0.0,0.0,0.0,0.0,0.0,0.0,0.0,0.0,0.0,0.0,0.0,0.0,0.0,0.0,0.0,0.0,0.0,0.0,0.0,0.0,0.0,0.0,0.0,0.0,0.0,0.0,0.0,0.0,0.0,0.0,0.0,0.0,0.0,0.0,0.0,0.0,0.0,0.0,0.0,0.0,0.0,0.0,0.0,0.0,0.0,0.0,0.0,0.0,0.0,0.0,0.0,0.0,0.0,0.0,0.0,0.0,0.0,0.0,0.0,0.0,0.0,0.0,0.0,0.0,0.0,0.0,0.0,0.0,0.0,0.0,0.0,0.0,0.0,0.0,0.0,0.0,0.0,0.0,0.0,0.0,0.0,0.0,0.0,0.0,0.0,0.0,0.0,0.0,0.0,0.0,0.0,0.0,0.0,0.0,0.0,0.0,0.0,0.0,0.0,0.0,0.0,0.0,0.0,0.0,0.0,0.0,0.0,0.0,0.0,0.0,0.0,0.0,0.0,0.0,0.0,0.0,0.0,0.0,0.0,0.0,0.0,0.0,0.0,0.0,0.0,0.0,0.0,0.0,0.0,0.0,0.0,0.0,0.0,0.0,0.0,0.0,0.0,0.0,0.0,0.0,0.0,0.0,0.0,0.0,0.0,0.0,0.0,0.0,0.0,0.0,0.0,0.0,0.0,0.0,0.0,0.0,0.0,0.0,0.0,0.0,0.0,0.0,0.0,0.0,0.0,0.0,0.0,0.0,0.0,0.0,0.0,0.0,0.0,0.0,0.0,0.0,0.0,0.0,0.0,0.0,0.0,0.0,0.0,0.0,0.0,0.0,0.0,0.0,0.0,0.0,0.0,0.0,0.0,0.0,0.0,0.0,0.0,0.0,0.0,0.0,0.0,0.0,0.0,0.0,0.0,0.0,0.0,0.0,0.0,0.0,0.0,0.0,0.0,0.0,0.0,0.0,0.0,0.0,0.0,0.0,0.0,0.0,0.0,0.0,0.0,0.0,0.0,0.0,0.0,0.0,0.0,0.0,0.0,0.0,0.0,0.0,0.0,0.0,0.0,0.0,0.0,0.0,0.0,0.0,0.0,0.0,0.0,0.0,0.0,0.0,0.0,0.0,0.0,0.0,0.0,0.0,0.0,0.0,0.0,0.0,0.0,0.0,0.0,0.0,0.0,0.0,0.0,0.0,0.0,0.0,0.0,0.0,0.0,0.0,0.0,0.0,0.0,0.0,0.0,0.0,0.0,0.0,0.0,0.0,0.0,0.0,0.0,0.0,0.0,0.0,0.0,0.0,0.0,0.0,0.0,0.0,0.0,0.0,0.0,0.0,0.0,0.0,0.0,0.0,0.0,0.0,0.0,0.0,0.0,0.0,0.0,0.0,0.0,0.0,0.0,0.0,0.0,0.0,0.0,0.0,0.0,0.0,0.0,0.0,0.0,0.0,0.0,0.0,0.0,0.0,0.0,0.0,0.0,0.0,0.0,0.0,0.0,0.0,0.0,0.0,0.0,0.0,0.0,0.0,0.0,0.0,0.0,0.0,0.0,0.0,0.0,0.0,0.0,0.0,0.0,0.0,0.0,0.0,0.0,0.0,0.0,0.0,0.0,0.0,0.0,0.0,0.0,0.0,0.0,0.0,0.0,0.0,0.0,0.0,0.0,0.0,0.0,0.0,0.0,0.0,0.0,0.0,0.0,0.0,0.0,0.0,0.0,0.0,0.0,0.0,0.0,0.0,0.0,0.0,0.0,0.0,0.0,0.0,0.0,0.0,0.0,0.0,0.0,0.0,0.0,0.0,0.0,0.0,0.0,0.0,0.0,0.0,0.0,0.0,0.0,0.0,0.0,0.0,0.0,0.0,0.0,0.0,0.0,0.0,0.0,0.0,0.0,0.0,0.0,0.0,0.0,0.0,0.0,0.0,0.0,0.0,0.0,0.0,0.0,0.0,0.0,0.0,0.0,0.0,0.0,0.0,0.0,0.0,0.0,0.0,0.0,0.0,0.0,0.0,0.0,0.0,0.0,0.0,0.0,0.0,0.0,0.0,0.0,0.0,0.0,0.0,0.0,0.0,0.0,0.0,0.0,0.0,0.0,0.0,0.0,0.0,0.0,0.0,0.0,0.0,0.0,0.0,0.0,0.0,0.0,0.0,0.0,0.0,0.0,0.0,0.0,0.0,0.0,0.0,0.0,0.0,0.0,0.0,0.0,0.0,0.0,0.0,0.0,0.0,0.0,0.0,0.0,0.0,0.0,0.0,0.0,0.0,0.0,0.0,0.0,0.0,0.0,0.0,0.0,0.0,0.0,0.0,0.0,0.0,0.0,0.0,0.0,0.0,0.0,0.0,0.0,0.0,0.0,0.0,0.0,0.0,0.0,0.0,0.0,0.0,0.0,0.0,0.0,0.0,0.0,0.0,0.0,0.0,0.0,0.0,0.0,0.0,0.0,0.0,0.0,0.0,0.0,0.0,0.0,0.0,0.0,0.0,0.0,0.0,0.0,0.0,0.0,0.0,0.0,0.0,0.0,0.0,0.0,0.0,0.0,0.0,0.0,0.0,0.0,0.0,0.0,0.0,0.0,0.0,0.0,0.0,0.0,0.0,0.0,0.0,0.0,0.0,0.0,0.0,0.0,0.0,0.0,0.0,0.0,0.0,0.0,0.0,0.0,0.0,0.0,0.0,0.0,0.0,0.0,0.0,0.0,0.0,0.0,0.0,0.0,0.0,0.0,0.0,0.0,0.0,0.0,0.0,0.0,0.0,0.0,0.0,0.0,0.0,0.0,0.0,0.0,0.0,0.0,0.0,0.0,0.0,0.0,0.0,0.0,0.0,0.0,0.0,0.0,0.0,0.0,0.0,0.0,0.0,0.0,0.0,0.0,0.0,0.0,0.0,0.0,0.0,0.0,0.0,0.0,0.0,0.0,0.0,0.0,0.0,0.0,0.0,0.0,0.0,0.0,0.0,0.0,0.0,0.0,0.0,0.0,0.0,0.0,0.0,0.0,0.0,0.0,0.0,0.0,0.0,0.0,0.0,0.0,0.0,0.0,0.0,0.0,0.0,0.0,0.0,0.0,0.0,0.0,0.0,0.0,0.0,0.0,0.0,0.0,0.0,0.0,0.0,0.0,0.0,0.0,0.0,0.0,0.0,0.0,0.0,0.0,0.0,0.0,0.0,0.0,0.0,0.0,0.0,0.0,0.0,0.0,0.0,0.0,0.0,0.0,0.0,0.0,0.0,0.0,0.0,0.0,0.0,0.0,0.0,0.0,0.0,0.0,0.0,0.0,0.0,0.0,0.0,0.0,0.0,0.0,0.0,0.0,0.0,0.0,0.0,0.0,0.0,0.0,0.0,0.0,0.0,0.0,0.0,0.0,0.0,0.0,0.0,0.0,0.0,0.0,0.0,0.0,0.0,0.0,0.0,0.0,0.0,0.0,0.0,0.0,0.0,0.0,0.0,0.0,0.0,0.0,0.0,0.0,0.0,0.0,0.0,0.0,0.0,0.0,0.0,0.0,0.0,0.0,0.0,0.0,0.0,0.0,0.0,0.0,0.0,0.0,0.0,0.0,0.0,0.0,0.0,0.0,0.0,0.0,0.0,0.0,0.0,0.0,0.0,0.0,0.0,0.0,0.0,0.0,0.0,0.0,0.0,0.0,0.0,0.0,0.0,0.0,0.0,0.0,0.0,0.0,0.0,0.0,0.0,0.0,0.0,0.0,0.0,0.0,0.0,0.0,0.0,0.0]}],[{"header":{"parameterUnit":"kt","parameterCategory":2,"dx":1,"dy":1,"la1":29.587661999999998,"la2":31.0,"lo1":-88.76705300000003,"lo2":-86.6583820000003,"nx":115,"ny":88,"refTime":"2022-09-21T06:00:00:Z","depth":0,"parameterNumber":2,"parameterNumberName":"V-component_of_WINDS"},"data":[-8.1347,-8.1761,-8.2119,-8.2165,-8.2244,-8.2358,-8.262,-8.2931,-8.3504,-8.4476,-8.5153,-8.6018,-8.6715,-8.7269,-8.7269,-8.7269,-8.7269,-8.7269,-8.7363,-8.7409,-8.7409,-8.7501,-8.7591,-8.7716,-8.7846,-8.8008,-8.8049,-8.8049,-8.8049,-8.809,-8.8212,-8.8462,-8.8698,-8.9033,-8.9372,-8.9632,-8.9824,-8.9836,-8.9811,-8.9811,-8.9822,-9.058,-9.0531,-9.1238,-9.2135,-9.2539,-9.3105,-9.4188,-9.4643,-9.487,-9.4605,-9.4462,-9.431,-9.4242,-9.4704,-9.5097,-9.5439,-9.5926,-9.6533,-9.6723,-9.6836,-9.6715,-9.6761,-9.6633,-9.6898,-9.7548,-9.7728,-9.8127,-9.8468,-9.9468,-9.9664,-9.9847,-9.9888,-9.9888,-9.9888,-9.9888,-9.9888,-9.9812,-9.9698,-9.9622,-9.9583,-9.9476,-9.939,-9.9325,-9.9239,-9.9268,-9.9184,-9.9184,-9.9174,-9.924,-9.9305,-9.924,-9.9164,-9.9174,-9.9249,-9.923,-9.9886,-9.9811,-10.0006,-10.1058,-10.2186,-10.3465,-10.4141,-10.4442,-10.4931,-10.5452,-10.6279,-10.6886,-10.7262,-10.7412,-10.8427,-10.8841,-10.8728,-10.869,-10.8502,-8.1248,-8.17,-8.2074,-8.2199,-8.2199,-8.2314,-8.2428,-8.2698,-8.2978,-8.386,-8.5236,-8.6401,-8.699,-8.7221,-8.7269,-8.7269,-8.7269,-8.7269,-8.7269,-8.7316,-8.7316,-8.7363,-8.7456,-8.7583,-8.7716,-8.7846,-8.8008,-8.8049,-8.8012,-8.8053,-8.8212,-8.8425,-8.8736,-8.9071,-8.9372,-8.9632,-8.9811,-8.9811,-9.0152,-8.9962,-9.1136,-9.25,-9.3371,-9.3977,-9.4432,-9.4521,-9.4548,-9.4811,-9.486,-9.5098,-9.5412,-9.5525,-9.5535,-9.5667,-9.6131,-9.6791,-9.7125,-9.7778,-9.8461,-9.8613,-9.8802,-9.8992,-9.9296,-9.9303,-9.9227,-9.9417,-9.9417,-9.9523,-9.9523,-9.9834,-9.9847,-9.9891,-9.9906,-9.9888,-9.9888,-9.9888,-9.985,-9.9774,-9.966,-9.9584,-9.9535,-9.9459,-9.938,-9.9331,-9.9305,-9.9305,-9.9305,-9.9305,-9.9331,-9.9358,-9.9648,-9.9735,-10.0338,-10.0123,-9.9681,-10.0332,-10.148,-10.1413,-10.1714,-10.2819,-10.3841,-10.4768,-10.5446,-10.5978,-10.6505,-10.6956,-10.7708,-10.8122,-10.839,-10.8465,-10.8841,-10.8841,-10.8878,-10.8878,-10.8878,-8.1163,-8.1651,-8.2074,-8.2199,-8.2199,-8.2199,-8.2393,-8.2741,-8.3467,-8.4405,-8.5551,-8.6183,-8.6788,-8.7125,-8.7221,-8.7269,-8.7269,-8.7269,-8.7269,-8.7269,-8.7269,-8.7316,-8.7363,-8.7492,-8.7583,-8.7672,-8.7846,-8.7971,-8.8012,-8.8053,-8.8212,-8.8462,-8.8698,-8.9033,-8.941,-8.967,-8.9797,-8.9911,-9.0896,-9.1805,-9.3092,-9.3774,-9.4683,-9.5289,-9.5554,-9.616,-9.6378,-9.7135,-9.7314,-9.7528,-9.7389,-9.7377,-9.7373,-9.7355,-9.7952,-9.8453,-9.8764,-9.9144,-9.9561,-9.9713,-9.9675,-9.9599,-9.9789,-9.9751,-9.9903,-9.9917,-9.9917,-9.9879,-9.9879,-9.9872,-9.9879,-9.9872,-9.9879,-9.9885,-9.9885,-9.9844,-9.9811,-9.9758,-9.962,-9.9535,-9.9497,-9.9421,-9.9371,-9.9321,-9.9321,-9.9321,-9.9423,-9.9444,-9.9407,-9.9396,-10.0062,-10.0666,-10.2087,-10.2313,-10.1646,-10.2185,-10.3034,-10.3232,-10.342,-10.4483,-10.547,-10.6147,-10.6825,-10.757,-10.8173,-10.8406,-10.8412,-10.8638,-10.8907,-10.8912,-10.8878,-10.8878,-10.8878,-10.8878,-10.8878,-8.1163,-8.1651,-8.2027,-8.2119,-8.2279,-8.2402,-8.2559,-8.2902,-8.4203,-8.5086,-8.5705,-8.6164,-8.6596,-8.7076,-8.7221,-8.7269,-8.7269,-8.7269,-8.7269,-8.7269,-8.7269,-8.7269,-8.7316,-8.7363,-8.7446,-8.7538,-8.7672,-8.7803,-8.793,-8.8053,-8.8212,-8.8557,-8.8698,-8.9105,-8.9545,-9.0518,-9.0744,-9.0933,-9.2448,-9.4304,-9.5213,-9.5516,-9.6008,-9.6501,-9.688,-9.7713,-9.8129,-9.8925,-9.9356,-9.9726,-9.9726,-9.9752,-9.9853,-9.981,-9.9868,-9.9886,-9.9743,-9.9705,-9.9903,-9.9903,-9.9903,-9.9903,-9.9903,-9.9903,-9.991,-9.9885,-9.9891,-9.9897,-9.9876,-9.9849,-9.9847,-9.9849,-9.9847,-9.9849,-9.9847,-9.9811,-9.9773,-9.9679,-9.9562,-9.9491,-9.9431,-9.9393,-9.9378,-9.9363,-9.9363,-9.9465,-9.9583,-9.9697,-9.9703,-10.0728,-10.1521,-10.2426,-10.3873,-10.4364,-10.4175,-10.4274,-10.4662,-10.4936,-10.5587,-10.634,-10.7132,-10.7593,-10.8053,-10.894,-10.928,-10.8994,-10.8926,-10.9077,-10.9045,-10.8982,-10.8949,-10.8912,-10.8912,-10.8912,-10.8912,-8.1197,-8.1651,-8.1651,-8.1946,-8.2279,-8.2838,-8.3068,-8.3361,-8.4804,-8.5563,-8.5823,-8.651,-8.6876,-8.7063,-8.7173,-8.7221,-8.7269,-8.7269,-8.7269,-8.7269,-8.7269,-8.7269,-8.7269,-8.7269,-8.7363,-8.7446,-8.7583,-8.7672,-8.7846,-8.8049,-8.8325,-8.8822,-8.899,-8.9647,-9.0489,-9.1548,-9.2373,-9.2941,-9.491,-9.6577,-9.7296,-9.8281,-9.9341,-9.9152,-9.919,-9.9341,-9.9455,-9.9569,-9.972,-9.972,-9.9735,-9.9712,-9.9777,-9.9815,-9.9876,-9.9886,-9.9906,-9.9878,-9.9895,-9.9903,-9.9903,-9.9903,-9.9903,-9.9903,-9.9885,-9.9906,-9.9888,-9.9888,-9.9812,-9.9792,-9.9777,-9.975,-9.975,-9.9739,-9.9734,-9.9745,-9.9707,-9.9631,-9.9564,-9.9541,-9.9482,-9.9503,-9.9524,-10.0188,-10.0226,-9.9876,-9.9936,-10.0162,-10.0851,-10.255,-10.3418,-10.4173,-10.5055,-10.5584,-10.5672,-10.6163,-10.645,-10.6989,-10.7867,-10.847,-10.8309,-10.8696,-10.928,-10.9271,-10.9299,-10.9271,-10.9242,-10.9204,-10.9137,-10.9077,-10.9014,-10.8982,-10.8982,-10.9014,-10.8976,-8.1163,-8.1651,-8.1651,-8.1864,-8.2324,-8.2879,-8.3506,-8.4135,-8.5466,-8.6161,-8.6273,-8.66,-8.6825,-8.7013,-8.7113,-8.7258,-8.7269,-8.7269,-8.7269,-8.7269,-8.7269,-8.7269,-8.7269,-8.7269,-8.7316,-8.7363,-8.7446,-8.7575,-8.7591,-8.7883,-8.8956,-8.997,-9.0316,-9.1216,-9.2285,-9.335,-9.429,-9.5743,-9.7107,-9.8357,-9.8887,-9.9266,-9.9644,-9.9569,-9.9606,-9.9644,-9.9682,-9.9682,-9.972,-9.972,-9.972,-9.9735,-9.9735,-9.9763,-9.9815,-9.9815,-9.9848,-9.9906,-9.9886,-9.9895,-9.9903,-9.9903,-9.9903,-9.9903,-9.9891,-9.9879,-9.9888,-9.985,-9.9774,-9.9697,-9.9679,-9.9669,-9.9648,-9.9587,-9.9637,-9.9659,-9.9637,-9.9613,-9.9569,-9.9564,-9.9545,-9.9545,-9.9961,-10.0694,-10.1035,-10.096,-10.1009,-10.1463,-10.286,-10.4499,-10.5457,-10.5948,-10.6439,-10.6854,-10.7647,-10.8188,-10.8163,-10.8427,-10.9129,-10.9129,-10.9269,-10.9382,-10.9355,-10.9355,-10.9317,-10.9317,-10.9252,-10.9224,-10.9262,-10.9204,-10.9145,-10.9145,-10.9145,-10.9145,-10.9077,-8.1248,-8.1651,-8.17,-8.1912,-8.2244,-8.2721,-8.3469,-8.4507,-8.5859,-8.6493,-8.6493,-8.6637,-8.681,-8.6913,-8.7063,-8.7161,-8.7221,-8.7269,-8.7269,-8.7269,-8.7269,-8.7269,-8.7269,-8.7269,-8.7269,-8.7316,-8.7474,-8.7705,-8.8166,-8.8404,-8.965,-9.1307,-9.1889,-9.2773,-9.4054,-9.5572,-9.6735,-9.7902,-9.8773,-9.9341,-9.9606,-9.9644,-9.9682,-9.972,-9.972,-9.972,-9.972,-9.972,-9.972,-9.972,-9.972,-9.972,-9.972,-9.972,-9.972,-9.9739,-9.9815,-9.9886,-9.9897,-9.9886,-9.9903,-9.9895,-9.9895,-9.9895,-9.9885,-9.9882,-9.985,-9.9812,-9.9736,-9.9648,-9.9613,-9.9613,-9.9563,-9.956,-9.9591,-9.9591,-9.9597,-9.9562,-9.9544,-9.9524,-9.9526,-9.9544,-9.962,-10.0391,-10.1227,-10.2002,-10.2769,-10.3676,-10.49,-10.6501,-10.7458,-10.7685,-10.8062,-10.8251,-10.9006,-10.912,-10.9308,-10.9459,-10.9422,-10.9396,-10.9434,-10.9434,-10.9459,-10.9459,-10.9396,-10.937,-10.9306,-10.9306,-10.9317,-10.929,-10.9233,-10.9271,-10.9271,-10.9233,-10.9233,-8.1332,-8.1651,-8.1795,-8.1924,-8.2165,-8.2279,-8.3099,-8.4441,-8.5859,-8.6475,-8.6493,-8.66,-8.6758,-8.6876,-8.7063,-8.7161,-8.7221,-8.7269,-8.7269,-8.7269,-8.7269,-8.7269,-8.7269,-8.7306,-8.7527,-8.7416,-8.7637,-8.858,-8.9818,-8.9985,-9.0929,-9.2502,-9.3301,-9.4273,-9.5624,-9.72,-9.8764,-9.9023,-9.9591,-9.9644,-9.972,-9.972,-9.972,-9.972,-9.972,-9.972,-9.972,-9.972,-9.972,-9.972,-9.972,-9.972,-9.972,-9.972,-9.972,-9.9735,-9.9726,-9.9803,-9.9864,-9.9916,-9.9886,-9.9868,-9.9906,-9.9916,-9.9879,-9.9809,-9.9806,-9.9777,-9.9735,-9.9625,-9.9531,-9.9546,-9.956,-9.9537,-9.9544,-9.9544,-9.952,-9.9541,-9.9541,-9.9562,-9.9564,-9.9582,-9.962,-10.0112,-10.1002,-10.1657,-10.2407,-10.3767,-10.5783,-10.7496,-10.7987,-10.8327,-10.9044,-10.9422,-10.9422,-10.9346,-10.9459,-10.9459,-10.9459,-10.9459,-10.9459,-10.9459,-10.9459,-10.9459,-10.9459,-10.9422,-10.9396,-10.9396,-10.9408,-10.937,-10.9317,-10.9317,-10.9317,-10.9317,-10.9317,-8.1416,-8.1651,-8.1795,-8.2039,-8.2199,-8.2199,-8.2692,-8.3752,-8.5211,-8.6161,-8.6475,-8.6583,-8.6653,-8.6758,-8.6913,-8.7063,-8.7125,-8.7221,-8.7269,-8.7269,-8.7306,-8.7416,-8.7379,-8.7306,-8.8116,-8.8779,-8.9111,-8.9737,-9.1383,-9.1505,-9.2111,-9.3143,-9.4369,-9.5611,-9.7103,-9.829,-9.9748,-9.9726,-9.9705,-9.972,-9.972,-9.972,-9.972,-9.972,-9.972,-9.972,-9.972,-9.972,-9.972,-9.972,-9.972,-9.972,-9.972,-9.972,-9.972,-9.972,-9.9735,-9.9726,-9.9803,-9.9848,-9.9848,-9.9826,-9.9876,-9.9886,-9.9857,-9.9768,-9.9773,-9.9754,-9.972,-9.9688,-9.9648,-9.9546,-9.9546,-9.9537,-9.9526,-9.952,-9.9536,-9.9564,-9.9544,-9.9544,-9.9564,-9.9544,-9.962,-10.0225,-10.0641,-10.122,-10.1946,-10.4136,-10.625,-10.7005,-10.7572,-10.8515,-10.9346,-10.9459,-10.9459,-10.9459,-10.9459,-10.9459,-10.9459,-10.9459,-10.9459,-10.9459,-10.9459,-10.9459,-10.9459,-10.9459,-10.9459,-10.9459,-10.9459,-10.9396,-10.937,-10.937,-10.9396,-10.9396,-10.9396,-8.1534,-8.1665,-8.1877,-8.2119,-8.2199,-8.2199,-8.2803,-8.3682,-8.4668,-8.5682,-8.6329,-8.6493,-8.6547,-8.6706,-8.6862,-8.7013,-8.7076,-8.7221,-8.7269,-8.7379,-8.8043,-8.8043,-8.8448,-8.8927,-8.9627,-9.0326,-9.0695,-9.1395,-9.2979,-9.3066,-9.3276,-9.4087,-9.5831,-9.7173,-9.8275,-9.9208,-9.9714,-9.9693,-9.9726,-9.9705,-9.972,-9.972,-9.972,-9.972,-9.972,-9.972,-9.972,-9.972,-9.972,-9.972,-9.972,-9.972,-9.972,-9.972,-9.972,-9.972,-9.972,-9.9735,-9.9763,-9.979,-9.9828,-9.979,-9.979,-9.9826,-9.9821,-9.9739,-9.9768,-9.9773,-9.9716,-9.972,-9.9781,-9.9739,-9.9735,-9.9726,-9.9697,-9.9687,-9.9552,-9.9545,-9.9562,-9.9544,-9.9541,-9.9558,-9.9558,-9.9936,-10.0162,-10.0624,-10.2399,-10.4513,-10.5835,-10.6514,-10.776,-10.8893,-10.9459,-10.9459,-10.9459,-10.9459,-10.9459,-10.9459,-10.9459,-10.9459,-10.9459,-10.9459,-10.9459,-10.9459,-10.9459,-10.9459,-10.9459,-10.9459,-10.9459,-10.9459,-10.9422,-10.9422,-10.9573,-10.961,-10.9761,-8.1665,-8.1842,-8.2085,-8.2199,-8.2199,-8.2279,-8.2984,-8.4036,-8.4476,-8.5344,-8.6384,-8.6748,-8.6802,-8.7035,-8.7668,-8.7881,-8.7995,-8.7872,-8.7932,-8.8374,-8.9332,-8.9774,-9.0216,-9.0842,-9.1468,-9.2058,-9.2353,-9.3052,-9.4673,-9.4725,-9.5476,-9.644,-9.6758,-9.746,-9.8183,-9.9068,-9.9544,-9.9676,-9.9731,-9.971,-9.9742,-9.9705,-9.972,-9.972,-9.972,-9.972,-9.972,-9.972,-9.972,-9.972,-9.972,-9.972,-9.972,-9.972,-9.972,-9.972,-9.972,-9.972,-9.972,-9.972,-9.9735,-9.9735,-9.9763,-9.9765,-9.9724,-9.972,-9.973,-9.985,-10.0069,-10.0043,-9.9971,-9.9989,-10.008,-10.0083,-10.0036,-9.9944,-9.968,-9.952,-9.9541,-9.9536,-9.9552,-9.9567,-9.9567,-9.968,-9.9869,-10.1077,-10.2927,-10.4173,-10.5231,-10.6477,-10.8213,-10.912,-10.9459,-10.9459,-10.9459,-10.9459,-10.9459,-10.9459,-10.9459,-10.9459,-10.9459,-10.9459,-10.9459,-10.9459,-10.9459,-10.9459,-10.9459,-10.9535,-10.9459,-10.9459,-10.9459,-11.0026,-10.9837,-11.0026,-11.0592,-8.1795,-8.1842,-8.2119,-8.2199,-8.2244,-8.2721,-8.3164,-8.3705,-8.4691,-8.5682,-8.6548,-8.7697,-8.819,-8.861,-8.9447,-9.0192,-9.0097,-9.0338,-9.0498,-9.0769,-9.099,-9.1358,-9.1579,-9.2095,-9.3052,-9.3752,-9.401,-9.46,-9.6073,-9.6257,-9.6604,-9.698,-9.7339,-9.7646,-9.8257,-9.9041,-9.9562,-9.9564,-9.9583,-9.9582,-9.971,-9.9726,-9.9726,-9.972,-9.972,-9.972,-9.972,-9.972,-9.972,-9.972,-9.972,-9.972,-9.972,-9.972,-9.972,-9.972,-9.972,-9.972,-9.972,-9.972,-9.972,-9.972,-9.9735,-9.9727,-9.9726,-9.9734,-10.015,-10.0152,-10.1015,-10.1534,-10.1605,-10.2162,-10.2326,-10.0992,-10.0905,-10.0284,-9.9982,-9.9529,-9.9529,-9.9869,-9.9718,-9.9793,-9.9944,-10.0322,-10.1039,-10.2663,-10.3871,-10.4475,-10.5495,-10.7043,-10.8667,-10.9157,-10.9422,-10.9459,-10.9459,-10.9459,-10.9459,-10.9459,-10.9459,-10.9459,-10.9459,-10.9459,-10.9459,-10.9459,-10.9459,-10.9459,-10.9686,-11.0101,-10.995,-10.9724,-11.0668,-11.1763,-11.1649,-11.1838,-11.214,-8.1958,-8.2004,-8.2165,-8.2535,-8.3159,-8.3509,-8.3669,-8.4036,-8.5957,-8.7117,-8.7588,-8.9011,-8.9814,-9.0089,-9.1261,-9.1699,-9.1807,-9.1979,-9.2008,-9.2279,-9.2831,-9.3089,-9.3421,-9.3826,-9.4415,-9.53,-9.5594,-9.6221,-9.692,-9.681,-9.6957,-9.7062,-9.7178,-9.7646,-9.8107,-9.8672,-9.9145,-9.934,-9.9544,-9.9545,-9.9658,-9.9693,-9.971,-9.9742,-9.9705,-9.972,-9.972,-9.972,-9.972,-9.972,-9.972,-9.972,-9.972,-9.972,-9.972,-9.972,-9.972,-9.972,-9.972,-9.972,-9.972,-9.972,-9.9811,-10.0018,-10.0851,-10.0764,-10.0983,-10.1744,-10.2743,-10.3211,-10.3242,-10.3947,-10.4227,-10.2683,-10.1588,-10.0842,-10.0269,-9.9718,-9.968,-10.0775,-10.07,-10.0662,-10.0926,-10.1304,-10.2852,-10.4136,-10.44,-10.4891,-10.6288,-10.776,-10.8667,-10.9308,-10.9422,-10.9459,-10.9459,-10.9459,-10.9459,-10.9459,-10.9459,-10.9459,-10.9459,-10.9459,-10.9535,-10.9459,-10.9459,-10.961,-10.9988,-11.0592,-11.131,-11.1914,-11.2669,-11.3273,-11.3613,-11.3915,-11.3764,-8.2074,-8.2373,-8.2546,-8.3471,-8.4675,-8.4801,-8.4852,-8.5214,-8.7948,-8.9041,-8.9247,-9.0507,-9.1237,-9.1696,-9.2101,-9.2488,-9.232,-9.228,-9.2752,-9.3384,-9.3937,-9.4673,-9.5079,-9.5778,-9.6626,-9.6773,-9.6626,-9.6699,-9.6957,-9.6957,-9.6957,-9.701,-9.7178,-9.7556,-9.8028,-9.8474,-9.8891,-9.9378,-9.9541,-9.9524,-9.9583,-9.962,-9.9693,-9.971,-9.9726,-9.972,-9.972,-9.972,-9.972,-9.972,-9.972,-9.972,-9.972,-9.972,-9.972,-9.972,-9.972,-9.9985,-10.025,-10.0326,-10.0099,-10.0137,-10.0493,-10.1281,-10.2244,-10.244,-10.3073,-10.4082,-10.4515,-10.4892,-10.4958,-10.4886,-10.4934,-10.4085,-10.3517,-10.264,-10.1765,-10.0987,-10.0987,-10.1757,-10.2248,-10.255,-10.2852,-10.4173,-10.5684,-10.6061,-10.6326,-10.6552,-10.776,-10.8251,-10.9044,-10.9308,-10.9422,-10.9459,-10.9459,-10.9459,-10.9459,-10.9459,-10.9459,-10.9459,-10.9459,-10.9573,-10.9686,-10.9799,-11.029,-11.0101,-11.0139,-11.1083,-11.2178,-11.3537,-11.4368,-11.4368,-11.4632,-11.5652,-11.5765,-8.2847,-8.4072,-8.5148,-8.5758,-8.6257,-8.7446,-8.7837,-8.802,-8.9935,-9.0742,-9.0888,-9.131,-9.2186,-9.312,-9.4405,-9.4885,-9.5237,-9.5549,-9.571,-9.58,-9.6221,-9.6294,-9.6368,-9.6515,-9.6957,-9.6957,-9.6957,-9.6957,-9.6957,-9.6957,-9.6957,-9.701,-9.7241,-9.769,-9.8145,-9.8508,-9.8908,-9.9491,-9.9552,-9.9558,-9.9562,-9.9544,-9.964,-9.9676,-9.971,-9.9726,-9.972,-9.972,-9.972,-9.972,-9.972,-9.972,-9.972,-9.972,-9.972,-9.9758,-10.0212,-10.0591,-10.1349,-10.1727,-10.2371,-10.3015,-10.3599,-10.3227,-10.4001,-10.4175,-10.4591,-10.512,-10.593,-10.656,-10.6856,-10.7695,-10.6809,-10.6014,-10.5332,-10.461,-10.3811,-10.3109,-10.2974,-10.3517,-10.3933,-10.4287,-10.5419,-10.6892,-10.7609,-10.7911,-10.8213,-10.844,-10.878,-10.9044,-10.9384,-10.9384,-10.9459,-10.9459,-10.9459,-10.9459,-10.9459,-10.9459,-10.9459,-10.9459,-10.9459,-10.9535,-10.9724,-11.0592,-11.1385,-11.1687,-11.2405,-11.2442,-11.2631,-11.3688,-11.4594,-11.501,-11.5954,-11.7502,-11.8106,-8.5078,-8.65,-8.6639,-8.7074,-8.7783,-8.8996,-8.9368,-8.9584,-9.1706,-9.2656,-9.2493,-9.3098,-9.3901,-9.4741,-9.5772,-9.6401,-9.6631,-9.654,-9.6779,-9.6884,-9.6884,-9.692,-9.6957,-9.6957,-9.6957,-9.6957,-9.6957,-9.6957,-9.6957,-9.6957,-9.6957,-9.7062,-9.7398,-9.7777,-9.8146,-9.8683,-9.9127,-9.9421,-9.9529,-9.9552,-9.9536,-9.9541,-9.9544,-9.962,-9.9731,-9.9726,-9.9705,-9.972,-9.972,-9.972,-9.972,-9.972,-9.972,-9.9758,-9.9758,-9.9871,-10.0932,-10.2257,-10.3166,-10.3318,-10.3772,-10.453,-10.4697,-10.4907,-10.4949,-10.5384,-10.6056,-10.6796,-10.7863,-10.8317,-10.8658,-10.9247,-10.8548,-10.7566,-10.6336,-10.5445,-10.461,-10.4438,-10.4718,-10.5127,-10.5594,-10.6387,-10.7307,-10.8213,-10.8591,-10.8742,-10.8855,-10.9044,-10.9233,-10.9459,-10.9459,-10.9459,-10.9459,-10.9459,-10.9459,-10.9459,-10.9459,-10.9459,-10.9459,-10.9459,-10.9459,-10.9497,-10.9686,-11.0328,-11.1461,-11.3084,-11.4897,-11.4745,-11.4028,-11.433,-11.4745,-11.5501,-11.6331,-11.7955,-11.905,-8.7957,-8.8928,-8.7834,-8.82,-8.9552,-9.0492,-9.0436,-9.0355,-9.3518,-9.4552,-9.4084,-9.5398,-9.5945,-9.6091,-9.6201,-9.6342,-9.6537,-9.6687,-9.6761,-9.6957,-9.6957,-9.6957,-9.6957,-9.6957,-9.6957,-9.6957,-9.6957,-9.6957,-9.6957,-9.6957,-9.701,-9.7128,-9.7493,-9.7819,-9.8294,-9.8715,-9.9127,-9.9445,-9.9529,-9.9529,-9.9529,-9.9536,-9.9562,-9.9564,-9.9658,-9.9672,-9.9742,-9.972,-9.972,-9.972,-9.972,-9.9834,-10.0023,-10.0061,-10.0137,-10.1159,-10.275,-10.4833,-10.5022,-10.506,-10.5325,-10.5931,-10.5818,-10.5493,-10.6105,-10.708,-10.8143,-10.9766,-10.9681,-10.9567,-10.9529,-10.9756,-10.902,-10.8132,-10.7546,-10.6639,-10.5844,-10.6315,-10.6311,-10.6684,-10.725,-10.8134,-10.854,-10.9031,-10.9446,-10.9459,-10.9422,-10.9422,-10.9459,-10.9459,-10.9459,-10.9459,-10.9459,-10.9459,-10.9459,-10.9459,-10.9459,-10.9459,-10.9459,-10.9459,-10.9459,-10.9459,-10.9648,-11.0479,-11.1234,-11.2707,-11.3953,-11.4783,-11.5387,-11.5538,-11.5727,-11.6256,-11.686,-11.7955,-11.9239,-8.9864,-8.9188,-9.0668,-9.1493,-9.202,-9.3322,-9.3729,-9.399,-9.5326,-9.5788,-9.5763,-9.6055,-9.6237,-9.6237,-9.6261,-9.6342,-9.6631,-9.6631,-9.6761,-9.6904,-9.6957,-9.6957,-9.6957,-9.6957,-9.6957,-9.6957,-9.6957,-9.6957,-9.6957,-9.6957,-9.7141,-9.7398,-9.7502,-9.7945,-9.8579,-9.8878,-9.9164,-9.9421,-9.9529,-9.9529,-9.9529,-9.9552,-9.9536,-9.9562,-9.9564,-9.9696,-9.9937,-10.0083,-10.0121,-10.0099,-10.0061,-10.0402,-10.1538,-10.2144,-10.2788,-10.3659,-10.4303,-10.5515,-10.631,-10.6802,-10.7257,-10.8128,-10.862,-10.8697,-10.883,-10.8683,-10.9358,-10.9696,-10.9794,-10.9794,-10.9794,-10.9794,-10.9567,-10.9096,-10.902,-10.8906,-10.8209,-10.7944,-10.7942,-10.8185,-10.8904,-10.9185,-10.9102,-10.9457,-10.9433,-10.9471,-10.9422,-10.9459,-10.9459,-10.9459,-10.9459,-10.9459,-10.9459,-10.9459,-10.9459,-10.9459,-10.9459,-10.9459,-10.9459,-10.9459,-10.9459,-10.9459,-11.063,-11.1536,-11.2178,-11.2707,-11.2744,-11.3424,-11.4934,-11.6067,-11.6558,-11.7049,-11.7615,-11.8521,-11.9239,-9.087,-9.0299,-9.1863,-9.2544,-9.2786,-9.4195,-9.4859,-9.5022,-9.5775,-9.6237,-9.6237,-9.6237,-9.6237,-9.6237,-9.6237,-9.6379,-9.6574,-9.6631,-9.6725,-9.6904,-9.6957,-9.6957,-9.6957,-9.6957,-9.6957,-9.6957,-9.6957,-9.6957,-9.6957,-9.6957,-9.7192,-9.7548,-9.7819,-9.822,-9.8816,-9.9137,-9.9371,-9.9483,-9.9529,-9.9529,-9.9529,-9.9529,-9.9552,-9.9843,-10.0225,-10.0756,-10.1038,-10.1506,-10.2036,-10.1992,-10.1652,-10.222,-10.3583,-10.506,-10.6613,-10.7105,-10.7332,-10.7711,-10.8317,-10.8544,-10.881,-10.9719,-10.9719,-10.9796,-10.9797,-10.9825,-10.9746,-10.9795,-10.9796,-10.9794,-10.9794,-10.9794,-10.9794,-10.9794,-10.9719,-10.9681,-10.9646,-10.9552,-10.9363,-10.9286,-10.9475,-10.9513,-10.9509,-10.9578,-10.948,-10.9433,-10.9446,-10.9446,-10.9459,-10.9459,-10.9459,-10.9459,-10.9459,-10.9459,-10.9459,-10.9459,-10.9459,-10.9459,-10.9459,-10.9459,-10.9459,-10.9497,-11.0554,-11.2442,-11.3235,-11.3839,-11.3953,-11.4141,-11.5236,-11.6331,-11.6973,-11.7615,-11.8257,-11.8786,-11.9163,-9.1356,-9.141,-9.238,-9.2714,-9.2933,-9.4434,-9.5096,-9.5205,-9.5945,-9.6201,-9.6237,-9.6237,-9.6237,-9.6237,-9.6237,-9.6379,-9.6574,-9.665,-9.6779,-9.6994,-9.6957,-9.6957,-9.6957,-9.6957,-9.6957,-9.6957,-9.6957,-9.6957,-9.6957,-9.701,-9.729,-9.769,-9.7988,-9.8474,-9.9042,-9.9635,-10.011,-10.0247,-10.07,-10.0851,-10.0851,-10.0813,-10.0836,-10.0956,-10.1922,-10.2455,-10.2912,-10.3838,-10.4631,-10.4741,-10.4378,-10.4795,-10.6007,-10.8128,-10.9188,-10.9378,-10.9302,-10.9188,-10.9491,-10.9643,-10.9756,-10.9794,-10.9794,-10.9796,-10.9814,-10.9792,-10.9822,-10.9826,-10.9819,-10.9794,-10.9794,-10.9794,-10.9794,-10.9794,-10.9794,-10.9794,-10.9794,-10.9739,-10.9666,-10.9647,-10.9685,-10.9723,-10.9911,-11.0022,-11.019,-11.0297,-10.9835,-10.9471,-10.9446,-10.9446,-10.9446,-10.9459,-10.9497,-10.9535,-10.961,-10.9686,-11.0101,-11.029,-11.0328,-11.0328,-11.0705,-11.0215,-11.097,-11.3386,-11.467,-11.5387,-11.5538,-11.5463,-11.6596,-11.8408,-11.8332,-11.8106,-11.9843,-12.1542,-12.1278,-9.1356,-9.1498,-9.2911,-9.35,-9.3762,-9.5294,-9.5933,-9.5982,-9.6201,-9.6237,-9.6237,-9.6237,-9.6237,-9.6201,-9.6201,-9.6283,-9.6517,-9.665,-9.6834,-9.6994,-9.6957,-9.6957,-9.6957,-9.6957,-9.6957,-9.6957,-9.6957,-9.7105,-9.7105,-9.7099,-9.7795,-9.8175,-9.8333,-9.9138,-9.981,-10.0737,-10.153,-10.1681,-10.255,-10.3192,-10.3229,-10.3267,-10.3291,-10.3276,-10.3903,-10.4194,-10.4311,-10.4747,-10.4896,-10.4892,-10.737,-10.862,-10.9188,-10.9719,-10.9794,-10.9794,-10.9794,-10.9794,-10.9794,-10.9794,-10.9794,-10.9794,-10.9794,-10.981,-10.9813,-10.9796,-10.9813,-10.9795,-10.9804,-10.9794,-10.9794,-10.9794,-10.9794,-10.9794,-10.9794,-10.9794,-10.9794,-10.9794,-10.9739,-10.9777,-11.0004,-11.0555,-11.0745,-11.0668,-11.0913,-11.0967,-11.0032,-10.948,-10.9457,-10.9433,-10.9471,-10.9446,-10.9862,-11.0051,-11.0252,-11.0441,-11.1498,-11.1725,-11.1687,-11.2291,-11.3084,-11.3386,-11.4292,-11.5727,-11.6973,-11.7351,-11.7766,-11.7766,-11.8786,-12.0598,-12.1089,-12.09,-12.2146,-12.3958,-12.4638,-9.1356,-9.1498,-9.3069,-9.3646,-9.3942,-9.5467,-9.6237,-9.6237,-9.6237,-9.6237,-9.6237,-9.6237,-9.6237,-9.6201,-9.632,-9.6342,-9.6459,-9.6706,-9.6871,-9.6994,-9.6957,-9.6957,-9.6957,-9.6957,-9.6957,-9.6957,-9.7031,-9.7584,-9.8136,-9.85,-9.9188,-10.0684,-10.095,-10.1118,-10.2213,-10.2814,-10.3192,-10.3418,-10.4022,-10.4424,-10.4424,-10.4424,-10.4424,-10.4461,-10.5338,-10.5874,-10.6013,-10.6677,-10.7243,-10.777,-10.8885,-10.9756,-10.9794,-10.9794,-10.9794,-10.9794,-10.9794,-10.9794,-10.9794,-10.9794,-10.9794,-10.9794,-10.9794,-10.9822,-10.979,-10.9794,-10.9818,-10.9806,-10.9819,-10.9794,-10.9794,-10.9794,-10.9794,-10.9794,-10.9794,-10.9794,-10.9794,-10.9794,-10.9794,-10.9946,-11.0552,-11.1423,-11.1728,-11.1521,-11.1672,-11.1823,-11.0892,-10.9676,-10.9676,-10.9503,-10.9518,-10.991,-11.034,-11.0755,-11.0995,-11.1725,-11.2808,-11.316,-11.3348,-11.433,-11.5652,-11.6671,-11.7691,-11.9805,-12.1768,-12.158,-12.0598,-12.0409,-12.0976,-12.2297,-12.3203,-12.3619,-12.4185,-12.4902,-12.5846,-9.1498,-9.1811,-9.3225,-9.3871,-9.4193,-9.5523,-9.6237,-9.6237,-9.6237,-9.6237,-9.6237,-9.6261,-9.6261,-9.6261,-9.6401,-9.6517,-9.6574,-9.6706,-9.6871,-9.6994,-9.6957,-9.7105,-9.762,-9.8173,-9.8136,-9.8247,-9.8099,-9.8762,-9.97,-10.0266,-10.1238,-10.2851,-10.2861,-10.363,-10.42,-10.4475,-10.4928,-10.5004,-10.5419,-10.5721,-10.5835,-10.5797,-10.5797,-10.5896,-10.6827,-10.7499,-10.7942,-10.8947,-10.9646,-10.9756,-10.9794,-10.9794,-10.9794,-10.9794,-10.9794,-10.9794,-10.9794,-10.9794,-10.9794,-10.9794,-10.9794,-10.9794,-10.9811,-10.9796,-10.9797,-10.9825,-10.979,-10.9814,-10.9823,-10.9811,-10.9794,-10.9794,-10.9794,-10.9794,-10.9794,-10.9794,-10.9794,-10.9794,-11.0059,-11.0476,-11.1423,-11.2483,-11.3203,-11.3205,-11.2675,-11.2467,-11.1558,-11.0252,-10.9816,-10.9644,-11.0,-11.0561,-11.1067,-11.1724,-11.2153,-11.3034,-11.4054,-11.4632,-11.5387,-11.6407,-11.8257,-11.9616,-12.1278,-12.343,-12.5544,-12.5204,-12.3996,-12.3694,-12.2977,-12.3845,-12.4751,-12.596,-12.6715,-12.596,-12.6526,-9.2102,-9.2786,-9.3718,-9.4326,-9.485,-9.5751,-9.6237,-9.6237,-9.6237,-9.6297,-9.6261,-9.6342,-9.6401,-9.6401,-9.6537,-9.665,-9.6761,-9.6816,-9.6888,-9.6994,-9.7068,-9.7915,-9.9168,-10.0236,-10.0752,-10.0862,-10.1304,-10.1415,-10.1635,-10.2053,-10.2727,-10.3602,-10.3903,-10.4107,-10.5068,-10.6023,-10.6552,-10.6854,-10.7723,-10.8251,-10.8289,-10.8289,-10.8251,-10.8289,-10.8767,-10.8928,-10.919,-10.9477,-10.9722,-10.9794,-10.9794,-10.9794,-10.9794,-10.9794,-10.9794,-10.9794,-10.9794,-10.9794,-10.9794,-10.9794,-10.9794,-10.9794,-10.9794,-10.9796,-10.9826,-10.9818,-10.9794,-10.979,-10.9823,-10.9789,-10.9811,-10.9794,-10.9794,-10.9794,-10.9794,-10.9794,-10.9794,-10.9794,-11.0362,-11.1688,-11.1991,-11.3771,-11.5134,-11.5513,-11.4453,-11.4283,-11.3054,-11.2032,-11.154,-11.1218,-11.1349,-11.2064,-11.2776,-11.307,-11.3877,-11.4721,-11.5829,-11.7086,-11.8295,-11.9465,-12.1315,-12.3052,-12.4789,-12.5771,-12.6488,-12.6639,-12.6413,-12.6186,-12.562,-12.596,-12.6375,-12.8149,-12.9622,-12.7961,-12.7885,-9.3517,-9.3147,-9.4373,-9.4987,-9.5319,-9.6072,-9.6452,-9.6443,-9.6416,-9.6459,-9.6459,-9.6517,-9.6537,-9.6537,-9.665,-9.6761,-9.6816,-9.6888,-9.6978,-9.6994,-9.7105,-9.8541,-10.0567,-10.1415,-10.1857,-10.1857,-10.1857,-10.2446,-10.3294,-10.3733,-10.4745,-10.5698,-10.6453,-10.6847,-10.7194,-10.81,-10.8364,-10.8478,-10.9006,-10.9459,-10.9459,-10.9459,-10.9459,-10.9459,-10.9459,-10.9495,-10.9606,-10.9723,-10.9739,-10.9794,-10.9794,-10.9794,-10.9794,-10.9794,-10.9794,-10.9794,-10.9794,-10.9794,-10.9794,-10.9794,-10.9794,-10.9832,-10.9794,-10.9804,-10.9836,-10.9806,-10.979,-10.9822,-10.9806,-10.9785,-10.9789,-10.9794,-10.9794,-10.9794,-10.9794,-11.0173,-11.1082,-11.144,-11.2294,-11.343,-11.4491,-11.5816,-11.6801,-11.6574,-11.6195,-11.5816,-11.4738,-11.4094,-11.3622,-11.3167,-11.3338,-11.5305,-11.6495,-11.7034,-11.7781,-11.855,-11.9583,-12.1041,-12.2249,-12.2967,-12.4666,-12.6328,-12.7385,-12.7772,-12.781,-12.7923,-12.8074,-12.8036,-12.7772,-12.781,-12.8036,-12.8829,-12.9282,-12.8603,-12.9546,-9.5369,-9.4324,-9.5572,-9.5958,-9.588,-9.6337,-9.6627,-9.6598,-9.6647,-9.6631,-9.6594,-9.665,-9.665,-9.6614,-9.6816,-9.7165,-9.7533,-9.7678,-9.7731,-9.8173,-9.8247,-9.9941,-10.2078,-10.2925,-10.3257,-10.3293,-10.3478,-10.3792,-10.512,-10.5615,-10.6608,-10.8178,-10.8427,-10.8932,-10.9396,-10.9308,-10.9459,-10.9459,-10.9459,-10.9459,-10.9459,-10.9459,-10.9459,-10.9459,-10.9459,-10.9495,-10.9644,-10.9742,-10.9777,-10.9794,-10.9794,-10.9794,-10.9794,-10.9794,-10.9794,-10.9794,-10.9794,-10.9794,-10.9794,-10.9794,-11.0059,-11.0324,-11.0135,-10.9978,-11.0312,-11.0091,-10.9822,-10.9794,-10.9821,-10.9798,-10.9789,-10.9794,-10.9794,-10.9794,-10.9794,-11.04,-11.1802,-11.2976,-11.3998,-11.5172,-11.6384,-11.7179,-11.7975,-11.8278,-11.8505,-11.7861,-11.7066,-11.6346,-11.6611,-11.6366,-11.6101,-11.8183,-11.9866,-12.071,-12.1685,-12.2455,-12.3236,-12.4581,-12.5563,-12.6157,-12.7506,-12.865,-12.9114,-12.9433,-12.9047,-12.8716,-12.9056,-12.9395,-13.0,-13.0037,-13.0151,-13.0151,-13.0151,-13.049,-13.1434,-9.7549,-9.6923,-9.7636,-9.7572,-9.6851,-9.6853,-9.7054,-9.6814,-9.6797,-9.6834,-9.676,-9.6798,-9.6853,-9.689,-9.7182,-9.8046,-9.9168,-9.9389,-10.0052,-10.1267,-10.1673,-10.2409,-10.4178,-10.5356,-10.5893,-10.6077,-10.6114,-10.6578,-10.7026,-10.7422,-10.8218,-10.8585,-10.9054,-10.9422,-10.9422,-10.9459,-10.9459,-10.9459,-10.9459,-10.9459,-10.9459,-10.9459,-10.9459,-10.9459,-10.9459,-10.9495,-10.9606,-10.9666,-10.9704,-10.9794,-10.9794,-10.9794,-10.9794,-10.9794,-10.9794,-10.9794,-10.9794,-10.9794,-10.9794,-10.9794,-11.0362,-11.1461,-11.0682,-11.0388,-11.1323,-11.0562,-10.9797,-10.9797,-10.9822,-10.9804,-10.9811,-10.9794,-10.9794,-10.9794,-11.0021,-11.0703,-11.2067,-11.3809,-11.5437,-11.6763,-11.7179,-11.7823,-11.9452,-12.0815,-12.0777,-12.0171,-11.9679,-11.9641,-11.9793,-11.9641,-11.9414,-12.0569,-12.2367,-12.3765,-12.5953,-12.6422,-12.558,-12.6916,-12.8126,-12.887,-12.9916,-13.0092,-13.0303,-13.0171,-12.9916,-12.9622,-12.966,-12.9924,-13.0377,-13.1359,-13.1925,-13.2038,-13.2303,-13.2756,-13.3436,-9.9765,-9.879,-9.9949,-10.0271,-9.9923,-9.9905,-9.9868,-9.9757,-9.8875,-9.8452,-9.8195,-9.7403,-9.753,-9.8377,-9.8524,-9.9499,-10.0899,-10.0973,-10.2409,-10.462,-10.4914,-10.5209,-10.5872,-10.6535,-10.6854,-10.7147,-10.72,-10.7434,-10.7832,-10.8253,-10.8515,-10.8724,-10.9214,-10.9459,-10.9459,-10.9459,-10.9459,-10.9459,-10.9459,-10.9459,-10.9459,-10.9459,-10.9459,-10.9459,-10.9459,-10.9495,-10.9606,-10.9723,-10.9777,-10.9794,-10.9794,-10.9794,-10.9794,-10.9794,-10.9794,-10.9794,-10.9794,-10.9794,-10.9794,-10.9794,-11.0476,-11.1536,-11.0703,-11.0554,-11.1495,-11.0732,-10.9871,-10.9797,-10.9806,-10.9785,-10.9827,-10.9794,-10.9794,-10.987,-11.0627,-11.1688,-11.2976,-11.5758,-11.7937,-11.8391,-11.8732,-11.9641,-12.0815,-12.2065,-12.2255,-12.2898,-12.2823,-12.2974,-12.3769,-12.2898,-12.5171,-12.6855,-12.659,-12.7441,-12.9767,-12.942,-12.8337,-12.951,-13.0759,-13.135,-13.1879,-13.1807,-13.1857,-13.1766,-13.2051,-13.1938,-13.1577,-13.151,-13.1812,-13.2454,-13.3473,-13.37,-13.4002,-13.4644,-13.5097,-10.0452,-9.9761,-10.1192,-10.1857,-10.1838,-10.1857,-10.1838,-10.1726,-10.0769,-10.0273,-10.0106,-9.9074,-9.9201,-10.016,-10.0327,-10.1212,-10.2686,-10.3313,-10.4603,-10.6351,-10.6646,-10.6646,-10.6683,-10.6719,-10.7022,-10.7421,-10.763,-10.7914,-10.8253,-10.8515,-10.8756,-10.8926,-10.9306,-10.9459,-10.9459,-10.9459,-10.9459,-10.9459,-10.9459,-10.9459,-10.9459,-10.9459,-10.9459,-10.9459,-10.9459,-10.9532,-10.9644,-10.976,-10.9794,-10.9794,-10.9794,-10.9794,-10.9794,-10.9794,-10.9794,-10.9794,-10.9794,-10.9794,-10.9794,-10.9832,-11.0476,-11.1574,-11.1233,-11.1377,-11.2478,-11.1549,-11.067,-11.0584,-11.0061,-10.981,-10.9789,-10.9794,-10.9794,-10.9832,-11.1196,-11.2445,-11.3771,-11.6667,-11.8884,-11.9528,-11.9717,-12.0474,-12.18,-12.2898,-12.3694,-12.4943,-12.5284,-12.6307,-12.7746,-12.7102,-12.8163,-13.1836,-13.1155,-13.0831,-13.193,-13.2022,-13.1963,-13.3212,-13.3363,-13.3499,-13.3742,-13.3809,-13.3899,-13.4063,-13.4542,-13.4563,-13.4129,-13.4146,-13.4674,-13.5279,-13.521,-13.5361,-13.5701,-13.6116,-13.6607,-9.9477,-9.9758,-10.1251,-10.193,-10.2096,-10.2115,-10.1967,-10.2206,-10.2004,-10.1912,-10.1947,-10.1816,-10.1684,-10.2159,-10.2091,-10.296,-10.4548,-10.5803,-10.6503,-10.6683,-10.6719,-10.6719,-10.6777,-10.6834,-10.7039,-10.7533,-10.7877,-10.8293,-10.8657,-10.8724,-10.8956,-10.9333,-10.9422,-10.9459,-10.9459,-10.9459,-10.9459,-10.9459,-10.9459,-10.9459,-10.9459,-10.9459,-10.9459,-10.9459,-10.9535,-10.9646,-10.9606,-10.976,-10.9794,-10.9794,-10.9794,-10.9794,-10.9794,-10.9794,-10.9794,-10.9794,-10.9794,-10.9794,-10.9794,-10.9794,-11.0476,-11.1764,-11.1991,-11.2426,-11.3697,-11.2871,-11.2023,-11.1946,-11.1077,-11.0,-11.0076,-11.0173,-11.0287,-11.0097,-11.1802,-11.3316,-11.4642,-11.6271,-11.7899,-11.9338,-11.9982,-12.0512,-12.2141,-12.3732,-12.5246,-12.6686,-12.7367,-12.8428,-13.0587,-13.0397,-13.1193,-13.3616,-13.4147,-13.3882,-13.4336,-13.4828,-13.5737,-13.6381,-13.5813,-13.5641,-13.5944,-13.596,-13.6051,-13.6028,-13.6472,-13.6421,-13.5952,-13.6169,-13.6849,-13.7197,-13.7054,-13.6985,-13.7325,-13.774,-13.8155,-9.7656,-9.9616,-10.1205,-10.2464,-10.3551,-10.3568,-10.4157,-10.5025,-10.4142,-10.3718,-10.3514,-10.2624,-10.2861,-10.3801,-10.386,-10.48,-10.637,-10.6763,-10.6911,-10.6854,-10.6777,-10.6911,-10.72,-10.7216,-10.7484,-10.7877,-10.8294,-10.869,-10.9149,-10.9214,-10.9306,-10.9459,-10.9459,-10.9459,-10.9459,-10.9459,-10.9459,-10.9459,-10.9459,-10.9459,-10.9459,-10.9459,-10.9459,-10.9459,-10.9573,-10.9631,-10.9628,-10.976,-10.9794,-10.9794,-10.9794,-10.9794,-10.9794,-10.9794,-10.9794,-10.9794,-10.9794,-10.9794,-10.9794,-10.9794,-11.0476,-11.1953,-11.1326,-11.1832,-11.4236,-11.3138,-11.2915,-11.3524,-11.3316,-11.2559,-11.1953,-11.2407,-11.3127,-11.3316,-11.4566,-11.5816,-11.6384,-11.7899,-11.9111,-11.9944,-12.0815,-12.2671,-12.4943,-12.589,-12.6989,-12.8617,-12.9905,-13.0738,-13.2102,-13.2594,-13.3995,-13.5927,-13.6381,-13.676,-13.729,-13.7366,-13.801,-13.8199,-13.782,-13.8123,-13.8351,-13.8216,-13.8178,-13.808,-13.8019,-13.7934,-13.7998,-13.8144,-13.8532,-13.8927,-13.8633,-13.8073,-13.8533,-13.9175,-13.891,-9.5933,-9.7993,-10.0129,-10.1967,-10.3478,-10.4137,-10.4967,-10.5856,-10.5526,-10.5452,-10.5375,-10.4519,-10.4719,-10.5771,-10.5808,-10.6416,-10.7194,-10.7147,-10.6985,-10.6911,-10.7022,-10.72,-10.7521,-10.763,-10.7921,-10.8255,-10.8588,-10.8926,-10.9396,-10.9459,-10.9459,-10.9459,-10.9459,-10.9459,-10.9459,-10.9459,-10.9459,-10.9459,-10.9459,-10.9459,-10.9459,-10.9459,-10.9446,-10.9495,-10.9593,-10.9622,-10.961,-10.9739,-10.9794,-10.9794,-10.9794,-10.9794,-10.9794,-10.9794,-10.9794,-10.9794,-10.9794,-10.9794,-10.9794,-10.9794,-11.0287,-11.1196,-11.0855,-11.1693,-11.3116,-11.2872,-11.2893,-11.4095,-11.4199,-11.3392,-11.2673,-11.3657,-11.4453,-11.4339,-11.6271,-11.8051,-11.8505,-12.0096,-12.1497,-12.1649,-12.2368,-12.411,-12.6193,-12.7102,-12.7784,-12.9375,-13.0549,-13.1685,-13.2821,-13.3957,-13.5359,-13.7328,-13.8123,-13.8426,-13.9525,-13.9563,-13.96,-13.96,-13.9563,-13.9449,-13.9411,-13.9146,-13.907,-13.8821,-13.9011,-13.8966,-13.8776,-13.8931,-13.9004,-13.9364,-13.9305,-13.8935,-13.9175,-13.9175,-13.9175,-9.4267,-9.5343,-9.8118,-10.0199,-10.193,-10.3511,-10.4362,-10.4843,-10.6209,-10.7002,-10.7194,-10.7083,-10.7408,-10.7533,-10.7509,-10.7533,-10.7408,-10.7371,-10.7268,-10.7147,-10.7509,-10.7619,-10.7619,-10.7921,-10.8294,-10.869,-10.8756,-10.9024,-10.9422,-10.9459,-10.9459,-10.9459,-10.9459,-10.9459,-10.9459,-10.9459,-10.9459,-10.9459,-10.9459,-10.9459,-10.9422,-10.9484,-10.9495,-10.9606,-10.9628,-10.9647,-10.9666,-10.9777,-10.9794,-10.9794,-10.9794,-10.9794,-10.9794,-10.9794,-10.9794,-10.9794,-10.9794,-10.9794,-10.9794,-10.9794,-10.987,-11.0021,-11.1044,-11.2032,-11.2356,-11.2255,-11.2903,-11.4539,-11.3297,-11.2445,-11.2559,-11.4112,-11.4377,-11.3468,-11.7028,-11.9528,-11.9868,-12.2406,-12.43,-12.4375,-12.4489,-12.5436,-12.6837,-12.7178,-12.8163,-12.9223,-12.9829,-13.089,-13.3465,-13.4639,-13.6116,-13.8237,-13.926,-13.9487,-13.9449,-13.9411,-13.9525,-13.96,-13.96,-13.9563,-13.9563,-13.96,-13.9563,-13.9563,-13.96,-13.9579,-13.9579,-13.9534,-13.9499,-13.9457,-13.9402,-13.9275,-13.9206,-13.9175,-13.9175,-9.4338,-9.545,-9.6286,-9.8003,-10.0255,-10.1875,-10.3313,-10.4696,-10.6319,-10.711,-10.7305,-10.7482,-10.7607,-10.7744,-10.7873,-10.7928,-10.7854,-10.7958,-10.8001,-10.7921,-10.7921,-10.8091,-10.837,-10.8444,-10.8724,-10.9149,-10.9214,-10.9269,-10.9422,-10.9459,-10.9459,-10.9459,-10.9459,-10.9459,-10.9459,-10.9459,-10.9459,-10.9459,-10.9433,-10.9457,-10.9457,-10.9541,-10.9606,-10.9628,-10.9628,-10.9685,-10.9739,-10.9794,-10.9794,-10.9794,-10.9794,-10.9794,-10.9794,-10.9794,-10.9794,-10.9794,-10.9794,-10.9794,-10.9794,-10.9794,-10.9794,-10.9832,-11.0173,-11.0933,-11.1892,-11.2179,-11.2941,-11.4207,-11.3145,-11.2673,-11.3847,-11.5513,-11.6271,-11.6195,-11.9187,-12.1535,-12.1649,-12.3277,-12.4603,-12.4716,-12.5625,-12.6648,-12.7178,-12.8163,-12.8996,-12.964,-13.0662,-13.2064,-13.2859,-13.4942,-13.6608,-13.7669,-13.8881,-13.8994,-13.8199,-13.8654,-13.9487,-13.96,-13.96,-13.96,-13.96,-13.96,-13.96,-13.96,-13.96,-13.96,-13.96,-13.96,-13.9534,-13.9499,-13.942,-13.9305,-13.9168,-13.9175,-13.9175,-9.4787,-9.5665,-9.5945,-9.7034,-9.8598,-10.0218,-10.1543,-10.2776,-10.508,-10.6238,-10.6341,-10.6568,-10.6692,-10.6692,-10.7638,-10.8119,-10.8119,-10.8291,-10.837,-10.8256,-10.837,-10.848,-10.869,-10.8857,-10.9111,-10.9459,-10.9459,-10.9459,-10.9459,-10.9459,-10.9459,-10.9459,-10.9459,-10.9459,-10.9459,-10.9459,-10.9446,-10.9471,-10.9457,-10.9465,-10.953,-10.9647,-10.9723,-10.9722,-10.9704,-10.976,-10.9794,-10.9794,-10.9794,-10.9794,-10.9794,-10.9794,-10.9794,-10.9794,-10.9794,-10.9794,-10.9794,-10.9794,-10.9794,-10.9794,-10.9794,-10.9794,-10.9794,-11.0183,-11.1111,-11.1222,-11.1581,-11.2445,-11.1767,-11.1569,-11.2652,-11.4806,-11.6157,-11.6687,-11.9831,-12.2255,-12.2292,-12.3656,-12.4943,-12.5625,-12.6534,-12.733,-12.8125,-12.9034,-12.9602,-12.9829,-13.0359,-13.1344,-13.2177,-13.3844,-13.5359,-13.6116,-13.6911,-13.7328,-13.7517,-13.8085,-13.9184,-14.0055,-14.0055,-14.0055,-14.0244,-14.0206,-13.96,-13.96,-13.96,-13.96,-13.96,-13.96,-13.96,-13.9594,-13.9499,-13.9392,-13.9199,-13.9168,-13.8382,-9.5577,-9.5824,-9.6501,-9.6888,-9.7252,-9.8838,-9.9683,-10.0229,-10.312,-10.4571,-10.4501,-10.4835,-10.5005,-10.5239,-10.6886,-10.7727,-10.7954,-10.833,-10.8472,-10.844,-10.8718,-10.8857,-10.8788,-10.9177,-10.9459,-10.9459,-10.9459,-10.9459,-10.9459,-10.9459,-10.9459,-10.9459,-10.9459,-10.9459,-10.9459,-10.9459,-10.9471,-10.9442,-10.9465,-10.9509,-10.961,-10.9739,-10.9794,-10.9794,-10.9794,-10.987,-11.0097,-10.9908,-10.987,-11.0021,-10.9908,-10.9794,-10.9794,-10.9794,-10.9794,-10.9794,-10.9794,-10.9794,-10.9794,-10.9794,-10.9794,-10.9794,-10.9794,-10.9849,-10.9902,-10.9879,-10.9832,-10.9982,-10.9928,-10.9947,-10.9996,-11.2638,-11.4415,-11.468,-11.8657,-12.1914,-12.2027,-12.3429,-12.5057,-12.6724,-12.661,-12.7405,-12.8352,-12.8958,-12.9299,-12.9185,-12.9602,-13.0359,-13.1496,-13.2367,-13.3124,-13.3844,-13.4677,-13.5396,-13.6533,-13.7101,-13.8957,-14.1229,-14.0661,-14.0434,-14.1002,-14.0661,-13.96,-13.96,-13.96,-13.96,-13.96,-13.9411,-13.9297,-13.9011,-13.8625,-13.8666,-13.8787,-13.8444,-13.7664,-9.5799,-9.6407,-9.6669,-9.6925,-9.7142,-9.8838,-9.961,-9.9896,-10.1863,-10.2151,-10.1362,-10.2921,-10.3623,-10.3744,-10.4607,-10.5801,-10.6923,-10.7332,-10.8062,-10.9106,-10.9271,-10.9321,-10.9269,-10.9396,-10.9459,-10.9459,-10.9459,-10.9459,-10.9459,-10.9459,-10.9459,-10.9459,-10.9459,-10.9459,-10.9459,-10.9433,-10.948,-10.9442,-10.953,-10.9647,-10.9777,-10.9794,-10.9794,-10.9794,-10.9794,-11.0362,-11.1499,-11.0438,-11.0362,-11.1499,-11.0438,-10.9794,-10.9794,-10.9794,-10.9794,-10.9794,-10.9794,-10.9794,-10.9794,-10.9794,-10.9794,-10.9794,-10.9794,-10.9794,-10.9804,-10.979,-10.9803,-10.9803,-10.9822,-10.9827,-11.0084,-11.1645,-11.271,-11.2938,-11.6119,-11.8808,-12.0209,-12.1762,-12.3391,-12.483,-12.5171,-12.5284,-12.5852,-12.6875,-12.7708,-12.7973,-12.8882,-12.9678,-13.0284,-13.142,-13.1571,-13.1723,-13.3086,-13.4753,-13.5245,-13.7214,-13.96,-14.1646,-14.0699,-14.0623,-14.1418,-14.0774,-13.9714,-13.9676,-13.9638,-13.96,-13.9487,-13.8729,-13.801,-13.7782,-13.6414,-13.5034,-13.5676,-13.5754,-13.5399,-9.548,-9.6557,-9.6761,-9.6888,-9.7031,-9.7972,-9.8431,-9.8589,-9.9505,-9.9523,-9.9171,-10.1108,-10.2069,-10.2336,-10.3588,-10.4715,-10.5596,-10.582,-10.6845,-10.8277,-10.8331,-10.8701,-10.9384,-10.9459,-10.9459,-10.9459,-10.9459,-10.9459,-10.9459,-10.9459,-10.9459,-10.9459,-10.9459,-10.9446,-10.9433,-10.9503,-10.9509,-10.9568,-11.0366,-11.0838,-11.0855,-11.0173,-10.9794,-10.9794,-10.9794,-11.0249,-11.1006,-10.9508,-10.9069,-10.9902,-10.8349,-10.7895,-10.8577,-10.8674,-10.9015,-10.9751,-10.9827,-10.9789,-10.9819,-10.9819,-10.9819,-10.9819,-10.9823,-10.9798,-10.9819,-10.9818,-10.9794,-10.9796,-10.9806,-10.9785,-10.9844,-11.1236,-11.218,-11.218,-11.4453,-11.6384,-11.7369,-11.8316,-11.9755,-12.1914,-12.2406,-12.2974,-12.4413,-12.5398,-12.6155,-12.7102,-12.7784,-12.8844,-12.9602,-13.0512,-13.0737,-13.0151,-13.1856,-13.3618,-13.4717,-13.6894,-13.9297,-14.1721,-14.0661,-14.0737,-14.2668,-14.1077,-14.0169,-14.0509,-14.0017,-13.9676,-13.9563,-13.8843,-13.8048,-13.7366,-13.5278,-13.4135,-13.4265,-13.4412,-13.4629,-9.4466,-9.5897,-9.6063,-9.6336,-9.6678,-9.6663,-9.6736,-9.701,-9.6943,-9.726,-9.7973,-9.9589,-10.0465,-10.0888,-10.275,-10.3696,-10.3956,-10.4141,-10.5163,-10.6731,-10.6652,-10.7341,-10.8704,-10.8969,-10.9082,-10.912,-10.9346,-10.9459,-10.9459,-10.9459,-10.9459,-10.9446,-10.9446,-10.9433,-10.9465,-10.9811,-10.9987,-11.0044,-11.1633,-11.2521,-11.2483,-11.1196,-11.0438,-11.0173,-11.0173,-11.0173,-11.0152,-10.8364,-10.7432,-10.7583,-10.5802,-10.5385,-10.6825,-10.6682,-10.7251,-10.8607,-10.8531,-10.8431,-10.8382,-10.8433,-10.8622,-10.9077,-10.956,-10.9502,-10.8896,-10.8973,-10.9097,-10.9093,-10.9252,-10.9455,-10.9537,-11.0784,-11.1726,-11.1877,-11.3127,-11.4074,-11.4415,-11.4528,-11.5702,-11.8657,-11.9187,-12.0588,-12.2747,-12.3845,-12.4792,-12.6042,-12.6894,-12.769,-12.8883,-12.9428,-12.9664,-13.0271,-13.1529,-13.3124,-13.5001,-13.6535,-13.8902,-14.1646,-14.0699,-14.0547,-14.335,-14.1456,-14.0131,-14.138,-14.0396,-13.9676,-13.9525,-13.9449,-13.854,-13.7442,-13.5472,-13.4272,-13.448,-13.4591,-13.4573,-9.2303,-9.2614,-9.2877,-9.3752,-9.507,-9.5093,-9.5778,-9.6936,0.0,0.0,0.0,-9.9048,-9.9418,-9.9503,-10.02,-10.1228,-10.2571,-10.2625,-10.3516,-10.5029,-10.5029,-10.508,-10.5344,-10.6703,-10.7383,-10.7421,-10.878,-10.9459,-10.9459,-10.9459,-10.9446,-10.9457,-10.948,-10.9503,-10.9681,-11.1009,-11.171,-11.1784,-11.3392,-11.4225,-11.4225,-11.396,-11.3165,-11.1802,-11.1764,-11.178,-11.185,-10.8948,-10.7939,-10.9216,-10.6411,-10.4933,-10.516,-10.3896,-10.329,-10.353,-10.2355,-10.1672,-10.1672,-10.1672,-10.281,-10.5501,-10.8218,-10.809,-10.402,-10.4912,-10.5691,-10.567,-10.6837,-10.7535,-10.7592,-10.9096,-11.0138,-11.0211,-11.0514,-11.1233,-11.237,-11.2597,-11.3392,-11.5286,-11.6801,-11.7937,-11.8694,-12.0967,-12.2879,-12.3427,-12.5453,-12.7478,-12.7663,-12.7754,-12.8603,-13.093,-13.266,-13.4691,-13.6477,-13.8089,-13.9907,-14.1553,-14.0623,-14.032,-14.1683,-14.0888,-13.9828,-14.0169,-13.9828,-13.9525,-13.9449,-13.8426,-13.7593,-13.729,-13.4828,-13.2969,-13.4177,-13.5044,-13.4998,-9.102,-9.177,-9.203,-9.2637,0.0,-9.3361,-9.3937,-9.4849,-9.4443,-9.5454,-9.7337,-9.7667,-9.8352,-9.9332,-9.9524,-10.0056,-10.0869,-10.0887,-10.1739,-10.3287,-10.3287,-10.3698,-10.4438,-10.5231,-10.5646,-10.5684,-10.6477,-10.6892,-10.6854,-10.6854,-10.7318,-10.8157,-10.8195,-10.8202,-10.8398,-11.0026,-11.2145,-11.468,-11.5551,-11.5968,-11.593,-11.5134,-11.4301,-11.3506,-11.343,0.0,0.0,0.0,0.0,0.0,0.0,0.0,0.0,0.0,0.0,-9.9762,-9.6625,-9.4852,-9.489,-9.489,-9.5952,-9.8417,-10.1641,-10.18,-9.7723,-9.8847,-10.079,-10.3195,-10.3375,-10.4048,-10.5644,-10.66,-10.7093,-10.7185,-10.7942,-10.8755,-10.9643,-11.0438,-11.1612,-11.3165,-11.4112,-11.5379,-11.6987,-11.8805,-12.0262,-12.2037,-12.3758,-12.5009,-12.5835,-12.609,-12.6609,-12.8353,-13.1223,-13.4077,-13.5844,-13.8048,-14.0078,-14.0589,-14.019,-14.0358,-14.1797,-14.0699,-13.96,-13.9525,-13.8881,-13.8048,-13.7328,-13.6533,-13.5699,-13.4753,-13.352,-13.2659,-13.1945,-13.1592,-13.1388,-8.9663,-9.0889,-9.111,-9.1383,-9.1675,-9.1442,-9.1701,-9.2287,-9.2763,-9.405,-9.5908,-9.6003,-9.6945,-9.8538,-9.8899,-9.907,-9.9072,-9.9394,-10.0262,-10.1582,-10.1582,-10.224,-10.3418,-10.3758,-10.3909,-10.3947,-10.4249,-10.4424,-10.4424,-10.4424,-10.5127,-10.6441,-10.6479,-10.6673,-10.7168,0.0,0.0,0.0,-11.7028,-11.7654,-11.7616,-11.6328,-11.5457,-11.5192,-11.5172,0.0,-11.4621,-11.2873,-11.1108,-10.9402,-10.7394,0.0,0.0,0.0,0.0,0.0,0.0,0.0,0.0,0.0,0.0,0.0,-9.172,-9.198,-9.035,-9.1875,-9.491,-9.9354,-9.8882,-9.9613,-10.2818,-10.3119,-10.3385,-10.4028,-10.5333,-10.6317,-10.6786,-10.796,-10.9453,-11.1044,-11.1536,-11.2917,-11.5677,-11.6868,-11.8285,-12.0755,-12.1906,-12.2702,-12.3764,-12.4193,-12.4489,-12.4831,-12.8452,-13.1919,-13.3701,-13.5958,-13.7273,-13.7861,-13.7747,-13.803,-13.8919,-13.8199,-13.7593,-13.7404,-13.6684,-13.5245,-13.4033,-13.3768,-13.3238,-13.2026,-13.1757,-13.1183,-12.8994,-12.7684,-12.7294,-8.7353,-8.7499,-8.7799,-8.8754,-9.004,-8.8877,-8.9283,-9.0749,-9.1346,-9.2579,-9.4254,-9.4595,-9.4863,-9.5246,-9.6686,-9.7311,-9.7407,-9.8883,-9.9677,-9.9843,-9.9843,-9.9973,-10.0209,-10.153,-10.221,-10.2248,-10.3682,-10.4424,-10.4424,-10.4424,-10.4545,-10.4858,-10.4916,-10.5674,-10.7164,-10.599,-10.7181,-11.0741,-11.6385,-11.9261,-11.9235,-11.9013,-11.8259,-11.699,-11.6896,-11.6174,-11.4692,-11.1752,-10.9379,-10.7624,-10.4591,-10.1495,-9.8417,-9.3753,-8.9096,0.0,-7.9673,0.0,0.0,0.0,0.0,0.0,0.0,0.0,0.0,-8.437,-8.7614,-9.0944,-9.2375,-9.4441,-9.7635,-9.7974,-9.9166,-10.1985,-10.2552,-10.329,-10.4727,-10.5085,-10.5936,-10.7711,-10.9188,-11.0796,-11.2851,-11.5503,-11.7277,-11.8291,-12.0312,-12.1374,-12.0903,-12.171,-12.263,-12.282,-12.5817,-12.868,-13.0174,-13.0958,-13.1461,-13.1209,-13.1401,-13.1022,-13.1685,-13.142,-13.1079,-13.1079,-13.1041,-13.0662,-13.0359,-13.0321,-13.0246,-12.9905,-12.8673,-12.7252,-12.5703,-12.5807,-12.6875,-8.4749,-8.5642,-8.5885,-8.6026,-8.6081,-8.6608,-8.7369,-8.8324,-8.9673,-9.0688,-9.148,-9.2576,-9.3073,-9.3148,-9.3849,-9.4172,-9.4361,-9.5968,-9.6724,-9.6703,-9.6741,-9.6719,-9.6735,-9.7415,-9.7755,-9.7792,-9.9491,-10.0284,-10.0322,-10.1228,-10.2165,-10.3176,-10.3176,-10.2703,-10.1765,-10.1863,-10.4081,-10.8283,-11.2996,-11.5868,-11.6678,-11.676,-11.6478,-11.5855,-11.5836,-11.5457,-11.4714,-11.2403,-10.994,-10.7379,-10.4954,-10.0927,-9.487,-8.9827,-8.4081,0.0,0.0,0.0,0.0,0.0,0.0,0.0,0.0,0.0,0.0,0.0,-8.0937,-8.1376,-8.5401,-8.8918,-9.1263,-9.149,-9.2114,-9.3609,-9.5669,-9.6765,-9.6308,-10.1754,-10.4913,-10.3285,-10.5385,-10.8046,-11.0606,-11.2235,-11.412,-11.7072,-11.711,-11.655,-11.6066,-11.8039,-11.9633,-11.9747,-12.2516,-12.5276,-12.6897,-12.8669,-12.9845,-12.9763,-12.9693,-12.9696,-12.9678,-12.9678,-12.9337,-12.8466,-12.8276,-12.8011,-12.7027,-12.6875,-12.6875,-12.6534,-12.4792,-12.2917,-12.1965,-12.2389,-12.2808,-8.2912,-8.3844,-8.2222,-8.1697,-8.2013,-8.3585,-8.4624,-8.5443,-8.6956,-8.7409,-8.7145,-8.8428,-8.8768,-8.8466,-8.8844,-8.9221,-8.9712,-9.1751,-9.311,-9.3866,-9.3866,-9.4054,-9.4432,-9.4432,-9.4432,-9.4507,-9.5376,-9.6018,-9.6433,-9.7301,-9.8386,-9.9621,-9.8864,-9.7047,-9.4479,-9.6682,-10.0374,-10.5276,-10.8643,-11.1513,-11.3782,-11.4296,-11.456,-11.4641,-11.4265,-11.4095,-11.4056,-11.1764,-10.9075,-10.6234,-10.3469,-9.8537,-9.0944,-8.5258,0.0,0.0,0.0,0.0,0.0,0.0,0.0,0.0,0.0,-5.8805,-6.2871,0.0,-7.252,0.0,-7.7632,-8.2349,-8.5559,-8.4766,0.0,0.0,-8.7675,-8.86,-8.7993,-9.6476,-10.1052,-9.7742,-9.9954,-10.3235,-10.703,-10.813,-11.0087,-11.3781,-11.2529,-11.1172,-11.1285,-11.4359,-11.6673,-11.6559,-11.8722,-12.1075,-12.2365,-12.5038,-12.6836,-12.7442,-12.7337,-12.7289,-12.7273,-12.7254,-12.6913,-12.5701,-12.536,-12.4906,-12.3694,-12.3429,-12.3466,-12.3277,-12.1497,-11.9698,-11.9584,-11.9597,-11.9567,-8.2406,-8.1643,-7.476,-7.4532,-7.8673,-7.9234,-8.0367,-8.1856,-8.2406,-8.1745,-8.0311,-8.0462,-7.9706,-7.8423,-7.9857,0.0,-8.2954,-8.6163,-8.9221,-9.2129,-9.2166,-9.2997,-9.4432,-9.4394,-9.4432,-9.4394,-9.3035,-9.3148,-9.4507,-9.3261,-9.2699,-9.2833,-8.9825,-8.7399,-8.6068,-9.0382,-9.5173,-10.0056,-10.3438,-10.7402,-11.2035,-11.3698,-11.4492,-11.4417,-11.3127,-11.2335,-11.224,-10.7846,-10.453,-10.2598,-9.7107,-9.1453,-8.5751,0.0,0.0,0.0,0.0,0.0,0.0,0.0,0.0,0.0,0.0,0.0,0.0,0.0,0.0,-6.5191,-6.8712,0.0,-8.1708,-7.8235,0.0,0.0,0.0,-7.8857,-8.2273,-8.756,-9.0842,-9.0625,0.0,0.0,-10.0054,-10.3277,-10.5374,-10.5899,-10.6933,-10.7739,-10.7871,-11.1892,-11.4548,-11.3145,-11.4397,-11.5573,-11.6332,-11.7584,-11.9206,-12.0616,-12.063,-12.0817,-12.0733,-12.0775,-12.0664,-12.055,-12.0361,-12.0361,-12.0209,-12.0058,-12.0096,-11.9944,-11.9679,-11.9471,-11.9092,-11.8992,-11.8849,-7.3558,-6.8847,-6.6226,-6.6314,-6.8383,-7.0497,-7.3079,-7.5875,-7.6971,-7.7121,-7.6535,-7.5478,-7.3023,-6.9625,-6.9248,0.0,0.0,0.0,-8.0801,-8.3067,-8.4011,-8.4804,-8.5446,-8.5446,-8.5974,-8.6956,-8.7296,-8.8391,-9.0014,-9.0279,-8.6466,-7.8842,0.0,0.0,-7.8801,-8.1648,-8.6535,-9.3306,-9.6762,-10.0443,-10.4371,-10.7015,-10.889,-10.9858,-10.9298,-10.8529,-10.7566,-10.3798,-10.0029,-9.6387,-9.2979,-8.6035,0.0,0.0,0.0,0.0,0.0,0.0,0.0,0.0,0.0,0.0,0.0,-4.7075,-4.9712,0.0,0.0,0.0,-5.9835,-6.3569,-7.0871,-7.1555,0.0,0.0,0.0,0.0,0.0,0.0,0.0,-8.1089,-8.5674,-9.1147,-9.6139,-9.7087,-9.7668,-9.8749,-10.0276,-10.1698,-10.277,0.0,-10.973,-11.2044,-11.212,-11.2613,-11.4548,-11.3827,-11.3524,-11.5108,-11.6963,-11.7935,-11.7019,-11.8464,-11.93,-11.8657,-11.9035,-11.9717,-11.9717,-11.6384,-11.3771,-11.3733,-11.3584,-11.3468,-11.3659,-11.3501,-11.3386,-6.3147,0.0,0.0,0.0,0.0,-6.1109,-6.4116,-6.7208,-6.8787,-6.9026,-6.8206,-6.6944,0.0,0.0,0.0,0.0,0.0,0.0,-7.174,-7.4345,-7.695,-7.8385,-7.8838,-7.8818,-7.944,-8.0593,-8.0951,-8.1933,-8.3388,-8.1329,-7.475,-6.4208,0.0,0.0,0.0,0.0,-8.0058,-8.7241,-9.2112,-9.5867,-9.8736,-10.153,-10.3593,-10.4734,-10.4341,-10.3363,-10.1757,-9.8141,-9.3843,-8.9002,-8.5745,0.0,0.0,0.0,0.0,0.0,0.0,0.0,0.0,0.0,0.0,0.0,0.0,0.0,0.0,0.0,0.0,0.0,0.0,0.0,-6.0601,-6.452,-6.5921,0.0,0.0,0.0,0.0,0.0,0.0,0.0,0.0,0.0,-8.7816,-8.8815,-9.0133,0.0,0.0,-9.7421,-9.7706,-10.148,-10.529,-10.8326,-10.825,0.0,-11.0982,-10.9768,-10.9085,-11.0716,-11.2965,-11.4133,-11.2804,-11.4146,-11.521,-11.4528,-11.5399,-11.5647,-11.4114,-10.9987,-10.7092,-10.6809,-10.6614,-10.6532,-10.6751,-10.6548,-10.6514,0.0,0.0,0.0,0.0,0.0,0.0,0.0,0.0,-5.7006,-5.6119,0.0,-5.3201,0.0,0.0,0.0,0.0,-5.3049,-5.792,0.0,0.0,-7.2268,-7.5629,-7.6988,-7.698,-7.7185,-7.7115,-7.4115,-7.3397,-7.413,-6.3817,0.0,0.0,0.0,0.0,0.0,0.0,-7.7207,-8.2293,-9.0165,-9.5225,-9.6999,-9.8736,-9.9718,-9.9793,-9.8273,-9.6651,-9.4931,-9.0329,-8.5401,-8.0443,-7.3966,0.0,0.0,0.0,0.0,0.0,0.0,0.0,0.0,0.0,0.0,0.0,0.0,0.0,0.0,0.0,0.0,0.0,0.0,0.0,0.0,-5.6945,0.0,0.0,0.0,0.0,0.0,0.0,0.0,0.0,0.0,0.0,-7.3044,-7.8233,-8.3426,-8.6908,0.0,0.0,0.0,0.0,-10.1951,-10.0661,-10.1686,-10.2748,-10.29,-10.4152,-10.5632,-10.7263,0.0,0.0,-10.7535,-10.6243,-10.5818,-10.7295,-10.7635,-10.6087,-10.1134,-9.9866,-9.96,-9.9423,-9.9189,-9.9506,-9.9558,-9.8843,-9.9407,0.0,0.0,0.0,0.0,0.0,0.0,0.0,0.0,0.0,-4.8422,-4.7288,-4.6167,0.0,0.0,0.0,0.0,0.0,0.0,0.0,0.0,-6.0917,-6.3551,-6.4169,-6.534,-6.6401,0.0,-6.5216,-6.1093,0.0,0.0,0.0,0.0,0.0,0.0,0.0,0.0,-6.7872,-7.7043,-8.3256,-8.873,-9.3488,-9.5376,-9.6735,-9.783,-9.7286,-9.4722,-8.9884,-8.3903,-7.7879,0.0,0.0,0.0,0.0,0.0,0.0,0.0,0.0,0.0,0.0,0.0,0.0,0.0,0.0,0.0,0.0,0.0,0.0,0.0,0.0,0.0,0.0,0.0,-5.574,0.0,0.0,0.0,0.0,0.0,0.0,0.0,0.0,0.0,-6.6352,-7.2356,-7.8337,-8.2934,-8.6669,-8.9821,-9.1994,0.0,0.0,0.0,0.0,0.0,0.0,0.0,-9.9865,-9.9333,-9.9258,-9.9242,-9.9193,-9.8665,-9.8455,-9.8969,0.0,0.0,-8.8202,-8.8789,-8.9867,-8.684,-8.6157,-8.606,-8.6241,-8.6034,-8.6352,0.0,0.0,0.0,0.0,0.0,0.0,0.0,0.0,0.0,-4.1074,-4.0475,0.0,0.0,0.0,0.0,0.0,0.0,0.0,0.0,0.0,0.0,0.0,-5.4679,-5.5408,0.0,0.0,0.0,0.0,0.0,0.0,0.0,0.0,0.0,0.0,0.0,0.0,-6.2342,-7.2646,-7.8913,-8.4728,-9.015,-9.1981,-9.3114,-9.3665,-9.3643,-9.081,-8.4707,0.0,0.0,0.0,0.0,0.0,0.0,0.0,0.0,0.0,0.0,0.0,0.0,0.0,0.0,0.0,0.0,0.0,0.0,0.0,0.0,0.0,0.0,0.0,0.0,0.0,-5.1086,0.0,0.0,0.0,0.0,0.0,0.0,0.0,0.0,0.0,0.0,0.0,-7.1995,-7.6659,-8.0834,-8.4954,-8.9125,-9.014,-9.2119,0.0,0.0,0.0,0.0,0.0,0.0,0.0,0.0,0.0,0.0,0.0,0.0,0.0,0.0,-8.3342,-7.5817,-7.7669,-7.914,-7.4964,0.0,0.0,0.0,0.0,0.0,0.0,0.0,0.0,0.0,0.0,0.0,0.0,0.0,0.0,0.0,-3.2227,0.0,0.0,-2.9732,0.0,0.0,0.0,0.0,0.0,0.0,0.0,0.0,0.0,0.0,0.0,0.0,0.0,0.0,0.0,0.0,0.0,0.0,0.0,0.0,0.0,0.0,-6.1133,-6.9496,-7.7743,-8.3611,-8.6981,-8.8656,-8.8769,-8.727,-8.7068,-8.4653,-7.9518,0.0,0.0,0.0,0.0,0.0,0.0,0.0,0.0,0.0,0.0,0.0,0.0,0.0,0.0,0.0,0.0,0.0,0.0,0.0,0.0,0.0,0.0,0.0,0.0,0.0,0.0,-5.1206,-5.2846,-5.1743,0.0,0.0,0.0,0.0,0.0,0.0,0.0,0.0,0.0,-6.8202,-7.5784,-8.193,-8.4236,-8.5896,-8.8134,-9.1647,-9.0813,-9.0406,-9.2109,-9.2383,-9.1859,0.0,0.0,0.0,0.0,0.0,0.0,0.0,0.0,0.0,0.0,0.0,0.0,0.0,0.0,0.0,0.0,0.0,0.0,0.0,0.0,0.0,0.0,0.0,0.0,0.0,0.0,0.0,0.0,0.0,0.0,0.0,0.0,0.0,0.0,0.0,0.0,0.0,0.0,0.0,0.0,0.0,0.0,0.0,0.0,0.0,0.0,0.0,0.0,0.0,0.0,0.0,0.0,0.0,0.0,-5.8374,-6.7737,-7.6102,-8.2028,-8.5291,-8.5896,-8.5921,-8.5295,-8.4237,-8.0745,0.0,0.0,0.0,0.0,0.0,0.0,0.0,0.0,0.0,0.0,0.0,0.0,0.0,0.0,0.0,0.0,0.0,0.0,0.0,0.0,0.0,0.0,0.0,0.0,0.0,0.0,0.0,0.0,-5.1552,-5.1582,-4.7626,0.0,0.0,0.0,0.0,0.0,0.0,0.0,0.0,0.0,0.0,-7.7258,-8.1595,-8.3731,-8.5255,-8.6442,-8.727,-8.7619,-8.7158,-8.7976,-8.7381,-8.3559,0.0,0.0,0.0,0.0,0.0,0.0,0.0,0.0,0.0,0.0,0.0,0.0,0.0,0.0,0.0,0.0,0.0,0.0,0.0,0.0,0.0,0.0,0.0,0.0,0.0,0.0,0.0,0.0,0.0,0.0,0.0,0.0,0.0,0.0,0.0,0.0,0.0,0.0,0.0,0.0,0.0,0.0,0.0,0.0,0.0,0.0,0.0,0.0,0.0,0.0,0.0,0.0,0.0,-5.5579,-6.6053,-7.3157,-7.9021,-8.3422,-8.3801,-8.3816,-8.3741,-8.0931,-7.6514,0.0,0.0,0.0,0.0,0.0,0.0,0.0,0.0,0.0,0.0,0.0,0.0,0.0,0.0,0.0,0.0,0.0,0.0,0.0,0.0,0.0,0.0,0.0,0.0,0.0,0.0,0.0,0.0,-4.8289,-4.9813,-4.8307,0.0,0.0,0.0,0.0,0.0,0.0,0.0,0.0,0.0,0.0,-7.2972,-7.836,-8.0134,0.0,0.0,-8.3574,-8.3841,-8.3638,-8.5074,-8.4293,-7.8783,-7.7078,0.0,0.0,0.0,0.0,0.0,0.0,0.0,0.0,0.0,0.0,0.0,0.0,0.0,0.0,0.0,0.0,0.0,0.0,0.0,0.0,0.0,0.0,0.0,0.0,0.0,0.0,0.0,0.0,0.0,0.0,0.0,0.0,0.0,0.0,0.0,0.0,0.0,0.0,0.0,0.0,0.0,0.0,0.0,0.0,0.0,0.0,0.0,0.0,0.0,0.0,0.0,0.0,-5.3145,-6.4117,-6.9732,-7.5621,-8.1607,-8.2118,-8.2221,-8.2025,-7.726,-7.2256,0.0,0.0,0.0,0.0,0.0,0.0,0.0,0.0,0.0,0.0,0.0,0.0,0.0,0.0,0.0,0.0,0.0,0.0,0.0,0.0,0.0,0.0,0.0,0.0,0.0,0.0,0.0,0.0,0.0,0.0,0.0,0.0,0.0,0.0,0.0,0.0,0.0,0.0,0.0,0.0,0.0,-6.9178,-7.4497,-7.5449,-7.693,0.0,-7.9738,-7.9338,-8.1046,-8.2828,-8.1842,-7.5354,0.0,0.0,0.0,0.0,0.0,0.0,0.0,0.0,0.0,0.0,0.0,0.0,0.0,0.0,0.0,0.0,0.0,0.0,0.0,0.0,0.0,0.0,0.0,0.0,0.0,0.0,0.0,0.0,0.0,0.0,0.0,0.0,0.0,0.0,0.0,0.0,0.0,0.0,0.0,0.0,0.0,0.0,0.0,0.0,0.0,0.0,0.0,0.0,0.0,0.0,0.0,0.0,0.0,0.0,-6.1107,-7.0919,-7.6865,-7.8511,-7.9955,-8.0014,-7.8592,-7.4969,0.0,0.0,0.0,0.0,0.0,0.0,0.0,0.0,0.0,0.0,0.0,0.0,0.0,0.0,0.0,0.0,0.0,0.0,0.0,0.0,0.0,0.0,0.0,0.0,0.0,0.0,0.0,-3.2766,0.0,0.0,0.0,0.0,0.0,0.0,0.0,0.0,0.0,0.0,0.0,0.0,0.0,0.0,-6.6722,-7.0837,-7.1693,-7.3201,0.0,0.0,-7.5162,-7.5877,-7.6437,-7.5387,0.0,0.0,0.0,0.0,0.0,0.0,0.0,0.0,0.0,0.0,0.0,0.0,0.0,0.0,0.0,0.0,0.0,0.0,0.0,0.0,0.0,0.0,0.0,0.0,0.0,0.0,0.0,0.0,0.0,0.0,0.0,0.0,0.0,0.0,0.0,0.0,0.0,0.0,0.0,0.0,0.0,0.0,0.0,0.0,0.0,0.0,0.0,0.0,0.0,0.0,0.0,0.0,0.0,0.0,-5.2643,-5.9877,-6.8557,-7.41,-7.6197,-7.7374,-7.7385,-7.6365,-7.2349,-6.7709,0.0,0.0,0.0,0.0,0.0,0.0,0.0,0.0,0.0,0.0,0.0,0.0,0.0,0.0,0.0,0.0,0.0,0.0,0.0,0.0,0.0,0.0,0.0,0.0,0.0,0.0,0.0,0.0,0.0,0.0,0.0,0.0,0.0,0.0,0.0,0.0,0.0,0.0,0.0,0.0,0.0,0.0,-6.7462,-6.8661,0.0,0.0,0.0,-7.1344,-7.1681,0.0,0.0,0.0,0.0,0.0,0.0,0.0,0.0,0.0,0.0,0.0,0.0,0.0,0.0,0.0,0.0,0.0,0.0,0.0,0.0,0.0,0.0,0.0,0.0,0.0,0.0,0.0,0.0,0.0,0.0,0.0,0.0,0.0,0.0,0.0,0.0,0.0,0.0,0.0,0.0,0.0,0.0,0.0,0.0,0.0,0.0,0.0,0.0,0.0,0.0,0.0,0.0,0.0,0.0,0.0,0.0,0.0,-5.91,-6.4878,-6.9933,-7.4261,-7.483,-7.4906,-7.4639,-7.0194,-6.5946,0.0,0.0,0.0,0.0,0.0,0.0,0.0,0.0,0.0,0.0,0.0,0.0,0.0,0.0,0.0,0.0,0.0,0.0,0.0,0.0,0.0,0.0,0.0,0.0,0.0,0.0,0.0,0.0,0.0,0.0,0.0,0.0,0.0,0.0,0.0,0.0,0.0,0.0,0.0,0.0,0.0,-6.3332,-6.4401,-6.563,-6.6085,0.0,0.0,-6.7635,-6.8008,-6.8111,0.0,0.0,0.0,0.0,0.0,0.0,0.0,0.0,0.0,0.0,0.0,0.0,0.0,0.0,0.0,0.0,0.0,0.0,0.0,0.0,0.0,0.0,0.0,0.0,0.0,0.0,0.0,0.0,0.0,0.0,0.0,0.0,0.0,0.0,0.0,0.0,0.0,0.0,0.0,0.0,0.0,0.0,0.0,0.0,0.0,0.0,0.0,0.0,0.0,0.0,0.0,0.0,0.0,0.0,0.0,0.0,-5.6035,-6.4883,-7.0578,-7.2742,-7.4147,-7.4211,-7.287,-7.0649,-6.6601,0.0,0.0,0.0,0.0,0.0,0.0,0.0,0.0,0.0,0.0,0.0,0.0,0.0,0.0,0.0,0.0,0.0,0.0,0.0,0.0,0.0,0.0,0.0,0.0,0.0,0.0,0.0,0.0,0.0,0.0,0.0,0.0,0.0,0.0,0.0,0.0,0.0,0.0,0.0,0.0,0.0,-5.8943,-6.1816,-6.0628,0.0,0.0,0.0,0.0,-6.4312,-6.3497,0.0,0.0,0.0,0.0,0.0,0.0,0.0,0.0,0.0,0.0,0.0,0.0,0.0,0.0,0.0,0.0,0.0,0.0,0.0,0.0,0.0,0.0,0.0,0.0,0.0,0.0,0.0,0.0,0.0,0.0,0.0,0.0,0.0,0.0,0.0,0.0,0.0,0.0,0.0,0.0,0.0,0.0,0.0,0.0,0.0,0.0,0.0,0.0,0.0,0.0,0.0,0.0,0.0,0.0,0.0,0.0,-5.5121,-6.3286,-6.8717,-7.1109,-7.1971,-7.2018,-7.1193,-6.9634,-6.5981,0.0,0.0,0.0,0.0,0.0,0.0,0.0,0.0,0.0,0.0,0.0,0.0,0.0,0.0,0.0,0.0,0.0,0.0,0.0,0.0,0.0,0.0,0.0,0.0,0.0,0.0,0.0,0.0,0.0,0.0,0.0,0.0,0.0,0.0,0.0,0.0,0.0,0.0,0.0,0.0,-5.2718,-5.607,-5.6868,0.0,0.0,0.0,0.0,0.0,0.0,-5.9373,-5.735,0.0,0.0,0.0,0.0,0.0,0.0,0.0,0.0,0.0,0.0,0.0,0.0,0.0,0.0,0.0,0.0,0.0,0.0,0.0,0.0,0.0,0.0,0.0,0.0,0.0,0.0,0.0,0.0,0.0,0.0,0.0,0.0,0.0,0.0,0.0,0.0,0.0,0.0,0.0,0.0,0.0,0.0,0.0,0.0,0.0,0.0,0.0,0.0,0.0,0.0,0.0,0.0,0.0,0.0,0.0,-5.4573,-6.1113,-6.6126,-6.9426,-6.9718,-6.9823,-6.9883,-6.8311,-6.4981,-5.9791,0.0,0.0,0.0,0.0,0.0,0.0,0.0,0.0,0.0,0.0,0.0,0.0,0.0,0.0,0.0,0.0,0.0,0.0,0.0,0.0,0.0,0.0,0.0,0.0,0.0,0.0,0.0,0.0,0.0,0.0,0.0,0.0,0.0,0.0,0.0,0.0,0.0,0.0,0.0,-5.0255,-5.3411,0.0,0.0,0.0,0.0,0.0,0.0,0.0,0.0,-5.3223,0.0,0.0,0.0,0.0,0.0,0.0,0.0,0.0,0.0,0.0,0.0,0.0,0.0,0.0,0.0,0.0,0.0,0.0,0.0,0.0,0.0,0.0,0.0,0.0,0.0,0.0,0.0,0.0,0.0,0.0,0.0,0.0,0.0,0.0,0.0,0.0,0.0,0.0,0.0,0.0,0.0,0.0,0.0,0.0,0.0,0.0,0.0,0.0,0.0,0.0,0.0,0.0,0.0,0.0,0.0,0.0,-5.9426,-6.4347,-6.7381,-6.8983,-6.9732,-6.9617,-6.8135,-6.4278,-5.7983,0.0,0.0,0.0,0.0,0.0,0.0,0.0,0.0,0.0,0.0,0.0,0.0,0.0,0.0,0.0,0.0,0.0,0.0,0.0,0.0,0.0,0.0,0.0,0.0,0.0,0.0,0.0,0.0,0.0,0.0,0.0,0.0,0.0,0.0,0.0,0.0,0.0,0.0,-4.0855,-4.5706,0.0,0.0,0.0,0.0,0.0,0.0,0.0,0.0,-5.0797,0.0,0.0,0.0,0.0,0.0,0.0,0.0,0.0,0.0,0.0,0.0,0.0,0.0,0.0,0.0,0.0,0.0,0.0,0.0,0.0,0.0,0.0,0.0,0.0,0.0,0.0,0.0,0.0,0.0,0.0,0.0,0.0,0.0,0.0,0.0,0.0,0.0,0.0,0.0,0.0,0.0,0.0,0.0,0.0,0.0,0.0,0.0,0.0,0.0,0.0,0.0,0.0,0.0,0.0,0.0,0.0,0.0,0.0,-6.3813,-6.688,-6.8724,-6.9619,-6.9364,-6.6295,-6.2291,0.0,0.0,0.0,0.0,0.0,0.0,0.0,0.0,0.0,0.0,0.0,0.0,0.0,0.0,0.0,0.0,0.0,0.0,0.0,0.0,0.0,0.0,0.0,0.0,0.0,0.0,0.0,0.0,0.0,0.0,0.0,0.0,0.0,0.0,0.0,0.0,0.0,0.0,0.0,0.0,0.0,0.0,0.0,0.0,0.0,0.0,0.0,0.0,0.0,0.0,0.0,0.0,0.0,0.0,0.0,0.0,0.0,0.0,0.0,0.0,0.0,0.0,0.0,0.0,0.0,0.0,0.0,0.0,0.0,0.0,0.0,0.0,0.0,0.0,0.0,0.0,0.0,0.0,0.0,0.0,0.0,0.0,0.0,0.0,0.0,0.0,0.0,0.0,0.0,0.0,0.0,0.0,0.0,0.0,0.0,0.0,0.0,0.0,0.0,0.0,0.0,0.0,0.0,0.0,0.0,0.0,0.0,0.0,-6.2776,-6.6226,-6.8427,-6.9496,-6.9346,-6.4409,-5.9828,0.0,0.0,0.0,0.0,0.0,0.0,0.0,0.0,0.0,0.0,0.0,0.0,0.0,0.0,0.0,0.0,0.0,0.0,0.0,0.0,0.0,0.0,0.0,0.0,0.0,0.0,0.0,0.0,0.0,0.0,0.0,0.0,0.0,0.0,0.0,0.0,0.0,0.0,0.0,0.0,0.0,0.0,0.0,0.0,0.0,0.0,0.0,0.0,-4.7704,0.0,0.0,0.0,0.0,0.0,0.0,0.0,0.0,0.0,0.0,0.0,0.0,0.0,0.0,0.0,0.0,0.0,0.0,0.0,0.0,0.0,0.0,0.0,0.0,0.0,0.0,0.0,0.0,0.0,0.0,0.0,0.0,0.0,0.0,0.0,0.0,0.0,0.0,0.0,0.0,0.0,0.0,0.0,0.0,0.0,0.0,0.0,0.0,0.0,0.0,0.0,0.0,0.0,0.0,0.0,0.0,0.0,0.0,0.0,-5.9627,-6.4342,-6.7696,-6.941,-6.9233,-6.3338,-5.7121,0.0,0.0,0.0,0.0,0.0,0.0,0.0,0.0,0.0,0.0,0.0,0.0,0.0,0.0,0.0,0.0,0.0,0.0,0.0,0.0,0.0,0.0,0.0,0.0,0.0,0.0,0.0,0.0,0.0,0.0,0.0,0.0,0.0,0.0,0.0,0.0,0.0,0.0,0.0,0.0,0.0,0.0,0.0,0.0,0.0,0.0,0.0,0.0,0.0,0.0,0.0,0.0,0.0,0.0,0.0,0.0,0.0,0.0,0.0,0.0,0.0,0.0,0.0,0.0,0.0,0.0,0.0,0.0,0.0,0.0,0.0,0.0,0.0,0.0,0.0,0.0,0.0,0.0,0.0,0.0,0.0,0.0,0.0,0.0,0.0,0.0,0.0,0.0,0.0,0.0,0.0,0.0,0.0,0.0,0.0,0.0,0.0,0.0,0.0,0.0,0.0,0.0,0.0,0.0,0.0,0.0,0.0,0.0,-5.7824,-6.2706,-6.6229,-6.7093,-6.5037,-5.8853,-5.3204,0.0,0.0,0.0,0.0,0.0,0.0,0.0,0.0,0.0,0.0,0.0,0.0,0.0,0.0,0.0,0.0,0.0,0.0,0.0,0.0,0.0,0.0,0.0,0.0,0.0,0.0,0.0,0.0,0.0,0.0,0.0,0.0,0.0,0.0,0.0,0.0,0.0,0.0,0.0,0.0,0.0,0.0,0.0,0.0,0.0,0.0,0.0,0.0,0.0,0.0,0.0,0.0,0.0,0.0,0.0,0.0,0.0,0.0,0.0,0.0,0.0,0.0,0.0,0.0,0.0,0.0,0.0,0.0,0.0,0.0,0.0,0.0,0.0,0.0,0.0,0.0,0.0,0.0,0.0,0.0,0.0,0.0,0.0,0.0,0.0,0.0,0.0,0.0,0.0,0.0,0.0,0.0,0.0,0.0,0.0,0.0,0.0,0.0,0.0,0.0,0.0,0.0,0.0,0.0,0.0,0.0,0.0,0.0,0.0,-6.0226,-6.2632,-6.2586,-5.9975,-5.4132,-4.9186,0.0,0.0,0.0,0.0,0.0,0.0,0.0,0.0,0.0,0.0,0.0,0.0,0.0,0.0,0.0,0.0,0.0,0.0,0.0,0.0,0.0,0.0,0.0,0.0,0.0,0.0,0.0,0.0,0.0,0.0,0.0,0.0,0.0,0.0,0.0,0.0,0.0,0.0,0.0,0.0,0.0,0.0,0.0,0.0,0.0,0.0,0.0,0.0,0.0,0.0,0.0,0.0,0.0,0.0,0.0,0.0,0.0,0.0,0.0,0.0,0.0,0.0,0.0,0.0,0.0,0.0,0.0,0.0,0.0,0.0,0.0,0.0,0.0,0.0,0.0,0.0,0.0,0.0,0.0,0.0,0.0,0.0,0.0,0.0,0.0,0.0,0.0,0.0,0.0,0.0,0.0,0.0,0.0,0.0,0.0,0.0,0.0,0.0,0.0,0.0,0.0,0.0,0.0,0.0,0.0,0.0,0.0,0.0,0.0,-5.6794,-5.5868,-5.5313,-5.5099,-5.0207,-4.5243,0.0,0.0,0.0,0.0,0.0,0.0,0.0,0.0,0.0,0.0,0.0,0.0,0.0,0.0,0.0,0.0,0.0,0.0,0.0,0.0,0.0,0.0,0.0,0.0,0.0,0.0,0.0,0.0,0.0,0.0,0.0,0.0,0.0,0.0,0.0,0.0,0.0,0.0,0.0,0.0,0.0,0.0,0.0,0.0,0.0,0.0,0.0,0.0,0.0,0.0,0.0,0.0,0.0,0.0,0.0,0.0,0.0,0.0,0.0,0.0,0.0,0.0,0.0,0.0,0.0,0.0,0.0,0.0,0.0,0.0,0.0,0.0,0.0,0.0,0.0,0.0,0.0,0.0,0.0,0.0,0.0,0.0,0.0,0.0,0.0,0.0,0.0,0.0,0.0,0.0,0.0,0.0,0.0,0.0,0.0,0.0,0.0,0.0,0.0,0.0,0.0,0.0,0.0,0.0,0.0,0.0,0.0,0.0,0.0,-4.7368,-4.9003,-4.9428,-4.8519,-4.4564,-4.0654,-3.6816,0.0,0.0,0.0,0.0,0.0,0.0,0.0,0.0,0.0,0.0,0.0,0.0,0.0,0.0,0.0,0.0,0.0,0.0,0.0,0.0,0.0,0.0,0.0,0.0,0.0,0.0,0.0,0.0,0.0,0.0,0.0,0.0,0.0,0.0,0.0,0.0,0.0,0.0,0.0,0.0,0.0,0.0,0.0,0.0,0.0,0.0,0.0,0.0,0.0,0.0,0.0,0.0,0.0,0.0,0.0,0.0,0.0,0.0,0.0,0.0,0.0,0.0,0.0,0.0,0.0,0.0,0.0,0.0,0.0,0.0,0.0,0.0,0.0,0.0,0.0,0.0,0.0,0.0,0.0,0.0,0.0,0.0,0.0,0.0,0.0,0.0,0.0,0.0,0.0,0.0,0.0,0.0,0.0,0.0,0.0,0.0,0.0,0.0,0.0,0.0,0.0,0.0,0.0,0.0,0.0,0.0,0.0,0.0,-4.0474,-4.3286,-4.4517,-4.3874,-4.0654,-3.758,0.0,0.0,0.0,0.0,0.0,0.0,0.0,0.0,0.0,0.0,0.0,0.0,0.0,0.0,0.0,0.0,0.0,0.0,0.0,0.0,0.0,0.0,0.0,0.0,0.0,0.0,0.0,0.0,0.0,0.0,0.0,0.0,0.0,0.0,0.0,0.0,0.0,0.0,0.0,0.0,0.0,0.0,0.0,0.0,0.0,0.0,0.0,0.0,0.0,0.0,0.0,0.0,0.0,0.0,0.0,0.0,0.0,0.0,0.0,0.0,0.0,0.0,0.0,0.0,0.0,0.0,0.0,0.0,0.0,0.0,0.0,0.0,0.0,0.0,0.0,0.0,0.0,0.0,0.0,0.0,0.0,0.0,0.0,0.0,0.0,0.0,0.0,0.0,0.0,0.0,0.0,0.0,0.0,0.0,0.0,0.0,0.0,0.0,0.0,0.0,0.0,0.0,0.0,0.0,0.0,0.0,0.0,0.0,-3.2077,-3.6973,-3.8938,-4.0704,-4.2033,-3.8878,-3.6411,0.0,0.0,0.0,0.0,0.0,0.0,0.0,0.0,0.0,0.0,0.0,0.0,0.0,0.0,0.0,0.0,0.0,0.0,0.0,0.0,0.0,0.0,0.0,0.0,0.0,0.0,0.0,0.0,0.0,0.0,0.0,0.0,0.0,0.0,0.0,0.0,0.0,0.0,0.0,0.0,0.0,0.0,0.0,0.0,0.0,0.0,0.0,0.0,0.0,0.0,0.0,0.0,0.0,0.0,0.0,0.0,0.0,0.0,0.0,0.0,0.0,0.0,0.0,0.0,0.0,0.0,0.0,0.0,0.0,0.0,0.0,0.0,0.0,0.0,0.0,0.0,0.0,0.0,0.0,0.0,0.0,0.0,0.0,0.0,0.0,0.0,0.0,0.0,0.0,0.0,0.0,0.0,0.0,0.0,0.0,0.0,0.0,0.0,0.0,0.0,0.0,0.0,0.0,0.0,0.0,0.0,0.0,0.0,0.0,-3.5185,0.0,-3.9276,0.0,-3.6566,-3.4647,0.0,0.0,0.0,0.0,0.0,0.0,0.0,0.0,0.0,0.0,0.0,0.0,0.0,0.0,0.0,0.0,0.0,0.0,0.0,0.0,0.0,0.0,0.0,0.0,0.0,0.0,0.0,0.0,0.0,0.0,0.0,0.0,0.0,0.0,0.0,0.0,0.0,0.0,0.0,0.0,0.0,0.0,0.0,0.0,0.0,0.0,0.0,0.0,0.0,0.0,0.0,0.0,0.0,0.0,0.0,0.0,0.0,0.0,0.0,0.0,0.0,0.0,0.0,0.0,0.0,0.0,0.0,0.0,0.0,0.0,0.0,0.0,0.0,0.0,0.0,0.0,0.0,0.0,0.0,0.0,0.0,0.0,0.0,0.0,0.0,0.0,0.0,0.0,0.0,0.0,0.0,0.0,0.0,0.0,0.0,0.0,0.0,0.0,0.0,0.0,0.0,0.0,0.0,0.0,0.0,0.0,0.0,0.0,0.0,-3.2589,-3.5361,-3.6886,-3.711,-3.5495,-3.4083,0.0,0.0,0.0,0.0,0.0,0.0,0.0,0.0,0.0,0.0,0.0,0.0,0.0,0.0,0.0,0.0,0.0,0.0,0.0,0.0,0.0,0.0,0.0,0.0,0.0,0.0,0.0,0.0,0.0,0.0,0.0,0.0,0.0,0.0,0.0,0.0,0.0,0.0,0.0,0.0,0.0,0.0,0.0,0.0,0.0,0.0,0.0,0.0,0.0,0.0,0.0,0.0,0.0,0.0,0.0,0.0,0.0,0.0,0.0,0.0,0.0,0.0,0.0,0.0,0.0,0.0,0.0,0.0,0.0,0.0,0.0,0.0,0.0,0.0,0.0,0.0,0.0,0.0,0.0,0.0,0.0,0.0,0.0,0.0,0.0,0.0,0.0,0.0,0.0,0.0,0.0,0.0,0.0,0.0,0.0,0.0,0.0,0.0,0.0,0.0,0.0,0.0,0.0,0.0,0.0,0.0,0.0,0.0,0.0,0.0,-3.1245,-3.3688,-3.6823,-3.5349,-3.4474,0.0,0.0,0.0,0.0,0.0,0.0,0.0,0.0,0.0,0.0,0.0,0.0,0.0,0.0,0.0,0.0,0.0,0.0,0.0,0.0,0.0,0.0,0.0,0.0,0.0,0.0,0.0,0.0,0.0,0.0,0.0,0.0,0.0,0.0,0.0,0.0,0.0,0.0,0.0,0.0,0.0,0.0,0.0,0.0,0.0,0.0,0.0,0.0,0.0,0.0,0.0,0.0,0.0,0.0,0.0,0.0,0.0,0.0,0.0,0.0,0.0,0.0,0.0,0.0,0.0,0.0,0.0,0.0,0.0,0.0,0.0,0.0,0.0,0.0,0.0,0.0,0.0,0.0,0.0,0.0,0.0,0.0,0.0,0.0,0.0,0.0,0.0,0.0,0.0,0.0,0.0,0.0,0.0,0.0,0.0,0.0,0.0,0.0,0.0,0.0,0.0,0.0,0.0,0.0,0.0,0.0,0.0,0.0,0.0,0.0,-3.1717,0.0,-3.4961,-3.3538,-3.2562,-3.2487,0.0,0.0,0.0,0.0,0.0,0.0,0.0,0.0,0.0,0.0,0.0,0.0,0.0,0.0,0.0,0.0,0.0,0.0,0.0,0.0,0.0,0.0,0.0,0.0,0.0,0.0,0.0,0.0,0.0,0.0,0.0,0.0,0.0,0.0,0.0,0.0,0.0,0.0,0.0,0.0,0.0,0.0,0.0,0.0,0.0,0.0,0.0,0.0,0.0,0.0,0.0,0.0,0.0,0.0,0.0,0.0,0.0,0.0,0.0,0.0,0.0,0.0,0.0,0.0,0.0,0.0,0.0,0.0,0.0,0.0,0.0,0.0,0.0,0.0,0.0,0.0,0.0,0.0,0.0,0.0,0.0,0.0,0.0,0.0,0.0,0.0,0.0,0.0,0.0,0.0,0.0,0.0,0.0,0.0,0.0,0.0,0.0,0.0,0.0,0.0,0.0,0.0,0.0,0.0,0.0,0.0,0.0,0.0,0.0,0.0,-3.1755,-3.3336,-3.2362,-3.1729,0.0,0.0,0.0,0.0,0.0,0.0,0.0,0.0,0.0,0.0,0.0,0.0,0.0,0.0,0.0,0.0,0.0,0.0,0.0,0.0,0.0,0.0,0.0,0.0,0.0,0.0,0.0,0.0,0.0,0.0,0.0,0.0,0.0,0.0,0.0,0.0,0.0,0.0,0.0,0.0,0.0,0.0,0.0,0.0,0.0,0.0,0.0,0.0,0.0,0.0,0.0,0.0,0.0,0.0,0.0,0.0,0.0,0.0,0.0,0.0,0.0,0.0,0.0,0.0,0.0,0.0,0.0,0.0,0.0,0.0,0.0,0.0,0.0,0.0,0.0,0.0,0.0,0.0,0.0,0.0,0.0,0.0,0.0,0.0,0.0,0.0,0.0,0.0,0.0,0.0,0.0,0.0,0.0,0.0,0.0,0.0,0.0,0.0,0.0,0.0,0.0,0.0,0.0,0.0,0.0,0.0,0.0,0.0,0.0,0.0,0.0,-3.0094,-3.1572,-3.1506,0.0,-3.1165,0.0,0.0,0.0,0.0,0.0,0.0,0.0,0.0,0.0,0.0,0.0,0.0,0.0,0.0,0.0,0.0,0.0,0.0,0.0,0.0,0.0,0.0,0.0,0.0,0.0,0.0,0.0,0.0,0.0,0.0,0.0,0.0,0.0,0.0,0.0,0.0,0.0,0.0,0.0,0.0,0.0,0.0,0.0,0.0,0.0,0.0,0.0,0.0,0.0,0.0,0.0,0.0,0.0,0.0,0.0,0.0,0.0,0.0,0.0,0.0,0.0,0.0,0.0,0.0,0.0,0.0,0.0,0.0,0.0,0.0,0.0,0.0,0.0,0.0,0.0,0.0,0.0,0.0,0.0,0.0,0.0,0.0,0.0,0.0,0.0,0.0,0.0,0.0,0.0,0.0,0.0,0.0,0.0,0.0,0.0,0.0,0.0,0.0,0.0,0.0,0.0,0.0,0.0,0.0,0.0,0.0,0.0,0.0,0.0,0.0,0.0,0.0,-2.9712,-2.9671,-2.9558,0.0,0.0,0.0,0.0,0.0,0.0,0.0,0.0,0.0,0.0,0.0,0.0,0.0,0.0,0.0,0.0,0.0,0.0,0.0,0.0,0.0,0.0,0.0,0.0,0.0,0.0,0.0,0.0,0.0,0.0,0.0,0.0,0.0,0.0,0.0,0.0,0.0,0.0,0.0,0.0,0.0,0.0,0.0,0.0,0.0,0.0,0.0,0.0,0.0,0.0,0.0,0.0,0.0,0.0,0.0,0.0,0.0,0.0,0.0,0.0,0.0,0.0,0.0,0.0,0.0,0.0,0.0,0.0,0.0,0.0,0.0,0.0,0.0,0.0,0.0,0.0,0.0,0.0,0.0,0.0,0.0,0.0,0.0,0.0,0.0,0.0,0.0,0.0,0.0,0.0,0.0,0.0,0.0,0.0,0.0,0.0,0.0,0.0,0.0,0.0,0.0,0.0,0.0,0.0,0.0,0.0,0.0,0.0,0.0,0.0,-2.89,-2.89,-2.8919,-2.8812,-2.8682,0.0,0.0,0.0,0.0,0.0,0.0,0.0,0.0,0.0,0.0,0.0,0.0,0.0,0.0,0.0,0.0,0.0,0.0,0.0,0.0,0.0,0.0,0.0,0.0,0.0,0.0,0.0,0.0,0.0,0.0,0.0,0.0,0.0,0.0,0.0,0.0,0.0,0.0,0.0,0.0,0.0,0.0,0.0,0.0,0.0,0.0,0.0,0.0,0.0,0.0,0.0,0.0,0.0,0.0,0.0,0.0,0.0,0.0,0.0,0.0,0.0,0.0,0.0,0.0,0.0,0.0,0.0,0.0,0.0,0.0,0.0,0.0,0.0,0.0,0.0,0.0,0.0,0.0,0.0,0.0,0.0,0.0,0.0,0.0,0.0,0.0,0.0,0.0,0.0,0.0,0.0,0.0,0.0,0.0,0.0,0.0,0.0,0.0,0.0,0.0,0.0,0.0,0.0,0.0,0.0,0.0,0.0,0.0,0.0,0.0,0.0,0.0,0.0,0.0,-2.8258,0.0,0.0,0.0,0.0,0.0,0.0,0.0,0.0,0.0,0.0,0.0,0.0,0.0,0.0,0.0,0.0,0.0,0.0,0.0,0.0,0.0,0.0,0.0,0.0,0.0,0.0,0.0,0.0,0.0,0.0,0.0,0.0,0.0,0.0,0.0,0.0,0.0,0.0,0.0,0.0,0.0,0.0,0.0,0.0,0.0,0.0,0.0,0.0,0.0,0.0,0.0,0.0,0.0,0.0,0.0,0.0,0.0,0.0,0.0,0.0,0.0,0.0,0.0,0.0,0.0,0.0,0.0,0.0,0.0,0.0,0.0,0.0,0.0,0.0,0.0,0.0,0.0,0.0,0.0,0.0,0.0,0.0,0.0,0.0,0.0,0.0,0.0,0.0,0.0,0.0,0.0,0.0,0.0,0.0,0.0,0.0,0.0,0.0,0.0,0.0,0.0,0.0,0.0,0.0,0.0,0.0,0.0,0.0,0.0,0.0,0.0,0.0,0.0,0.0,0.0,0.0,0.0,0.0,0.0,0.0,0.0,0.0,0.0,0.0,0.0,0.0,0.0,0.0,0.0,0.0,0.0,0.0,0.0,0.0,0.0,0.0,0.0,0.0,0.0,0.0,0.0,0.0,0.0,0.0,0.0,0.0,0.0,0.0,0.0,0.0,0.0,0.0,0.0,0.0,0.0,0.0,0.0,0.0,0.0,0.0,0.0,0.0,0.0,0.0,0.0,0.0,0.0,0.0,0.0,0.0,0.0,0.0,0.0,0.0,0.0,0.0,0.0,0.0,0.0,0.0,0.0,0.0,0.0,0.0,0.0,0.0,0.0,0.0,0.0,0.0,0.0,0.0,0.0,0.0,0.0,0.0,0.0,0.0,0.0,0.0,0.0,0.0,0.0,0.0,0.0,0.0,0.0,0.0,0.0,0.0,0.0,0.0,0.0,0.0,0.0,0.0,0.0,0.0,0.0,0.0,0.0,0.0,0.0,0.0,0.0,0.0,0.0,0.0,0.0,0.0,0.0,0.0,0.0,0.0,0.0,0.0,0.0,0.0,0.0,0.0,0.0,0.0,0.0,0.0,0.0,0.0,0.0,0.0,0.0,0.0,0.0,0.0,0.0,0.0,0.0,0.0,0.0,0.0,0.0,0.0,0.0,0.0,0.0,0.0,0.0,0.0,0.0,0.0,0.0,0.0,0.0,0.0,0.0,0.0,0.0,0.0,0.0,0.0,0.0,0.0,0.0,0.0,0.0,0.0,0.0,0.0,0.0,0.0,0.0,0.0,0.0,0.0,0.0,0.0,0.0,0.0,0.0,0.0,0.0,0.0,0.0,0.0,0.0,0.0,0.0,0.0,0.0,0.0,0.0,0.0,0.0,0.0,0.0,0.0,0.0,0.0,0.0,0.0,0.0,0.0,0.0,0.0,0.0,0.0,0.0,0.0,0.0,0.0,0.0,0.0,0.0,0.0,0.0,0.0,0.0,0.0,0.0,0.0,0.0,0.0,0.0,0.0,0.0,0.0,0.0,0.0,0.0,0.0,0.0,0.0,0.0,0.0,0.0,0.0,0.0,0.0,0.0,0.0,0.0,0.0,0.0,0.0,0.0,0.0,0.0,0.0,0.0,0.0,0.0,0.0,0.0,0.0,0.0,0.0,0.0,0.0,0.0,0.0,0.0,0.0,0.0,0.0,0.0,0.0,0.0,0.0,0.0,0.0,0.0,0.0,0.0,0.0,0.0,0.0,0.0,0.0,0.0,0.0,0.0,0.0,0.0,0.0,0.0,0.0,0.0,0.0,0.0,0.0,0.0,0.0,0.0,0.0,0.0,0.0,0.0,0.0,0.0,0.0,0.0,0.0,0.0,0.0,0.0,0.0,0.0,0.0,0.0,0.0,0.0,0.0,0.0,0.0,0.0,0.0,0.0,0.0,0.0,0.0,0.0,0.0,0.0,0.0,0.0,0.0,0.0,0.0,0.0,0.0,0.0,0.0,0.0,0.0,0.0,0.0,0.0,0.0,0.0,0.0,0.0,0.0,0.0,0.0,0.0,0.0,0.0,0.0,0.0,0.0,0.0,0.0,0.0,0.0,0.0,0.0,0.0,0.0,0.0,0.0,0.0,0.0,0.0,0.0,0.0,0.0,0.0,0.0,0.0,0.0,0.0,0.0,0.0,0.0,0.0,0.0,0.0,0.0,0.0,0.0,0.0,0.0,0.0,0.0,0.0,0.0,0.0,0.0,0.0,0.0,0.0,0.0,0.0,0.0,0.0,0.0,0.0,0.0,0.0,0.0,0.0,0.0,0.0,0.0,0.0,0.0,0.0,0.0,0.0,0.0,0.0,0.0,0.0,0.0,0.0,0.0,0.0,0.0,0.0,0.0,0.0,0.0,0.0,0.0,0.0,0.0,0.0,0.0,0.0,0.0,0.0,0.0,0.0,0.0,0.0,0.0,0.0,0.0,0.0,0.0,0.0,0.0,0.0,0.0,0.0,0.0,0.0,0.0,0.0,0.0,0.0,0.0,0.0,0.0,0.0,0.0,0.0,0.0,0.0,0.0,0.0,0.0,0.0,0.0,0.0,0.0,0.0,0.0,0.0,0.0,0.0,0.0,0.0,0.0,0.0,0.0,0.0,0.0,0.0,0.0,0.0,0.0,0.0,0.0,0.0,0.0,0.0,0.0,0.0,0.0,0.0,0.0,0.0,0.0,0.0,0.0,0.0,0.0,0.0,0.0,0.0,0.0,0.0,0.0,0.0,0.0,0.0,0.0,0.0,0.0,0.0,0.0,0.0,0.0,0.0,0.0,0.0,0.0,0.0,0.0,0.0,0.0,0.0,0.0,0.0,0.0,0.0,0.0,0.0,0.0,0.0,0.0,0.0,0.0,0.0,0.0,0.0,0.0,0.0,0.0,0.0,0.0,0.0,0.0,0.0,0.0,0.0,0.0,0.0,0.0,0.0,0.0,0.0,0.0,0.0,0.0,0.0,0.0,0.0,0.0,0.0,0.0,0.0,0.0,0.0,0.0,0.0,0.0,0.0,0.0,0.0,0.0,0.0,0.0,0.0,0.0,0.0,0.0,0.0,0.0,0.0,0.0,0.0,0.0,0.0,0.0,0.0,0.0,0.0,0.0,0.0,0.0,0.0,0.0,0.0,0.0,0.0,0.0,0.0,0.0,0.0,0.0,0.0,0.0,0.0,0.0,0.0,0.0,0.0,0.0,0.0,0.0,0.0,0.0,0.0,0.0,0.0,0.0,0.0,0.0,0.0,0.0,0.0,0.0,0.0,0.0,0.0,0.0,0.0,0.0,0.0,0.0,0.0,0.0,0.0,0.0,0.0,0.0,0.0,0.0,0.0,0.0,0.0,0.0,0.0,0.0,0.0,0.0,0.0,0.0,0.0,0.0,0.0,0.0,0.0,0.0,0.0,0.0,0.0,0.0,0.0,0.0,0.0,0.0,0.0,0.0,0.0,0.0,0.0,0.0,0.0,0.0,0.0,0.0,0.0,0.0,0.0,0.0,0.0,0.0,0.0,0.0,0.0,0.0,0.0,0.0,0.0,0.0,0.0,0.0,0.0,0.0,0.0,0.0,0.0,0.0,0.0,0.0,0.0,0.0,0.0,0.0,0.0,0.0,0.0,0.0,0.0,0.0,0.0,0.0,0.0,0.0,0.0,0.0,0.0,0.0,0.0,0.0,0.0,0.0,0.0,0.0,0.0,0.0,0.0,0.0,0.0,0.0,0.0,0.0,0.0,0.0,0.0,0.0,0.0,0.0,0.0,0.0,0.0,0.0,0.0,0.0,0.0,0.0,0.0,0.0,0.0,0.0,0.0,0.0,0.0,0.0,0.0,0.0,0.0,0.0,0.0,0.0,0.0,0.0,0.0,0.0,0.0,0.0,0.0,0.0,0.0,0.0,0.0,0.0,0.0,0.0,0.0,0.0,0.0,0.0,0.0,0.0,0.0,0.0,0.0,0.0,0.0,0.0,0.0,0.0,0.0,0.0,0.0,0.0,0.0,0.0,0.0,0.0,0.0,0.0,0.0,0.0,0.0,0.0,0.0,0.0,0.0,0.0,0.0,0.0,0.0,0.0,0.0,0.0,0.0,0.0,0.0,0.0,0.0,0.0,0.0,0.0,0.0,0.0,0.0,0.0,0.0,0.0,0.0,0.0,0.0,0.0,0.0,0.0,0.0,0.0,0.0,0.0,0.0,0.0,0.0,0.0,0.0,0.0,0.0,0.0,0.0,0.0,0.0,0.0,0.0,0.0,0.0,0.0,0.0,0.0,0.0,0.0,0.0,0.0,0.0,0.0,0.0,0.0,0.0,0.0,0.0,0.0,0.0,0.0,0.0,0.0,0.0,0.0]}]]]